<?xml version="1.0" encoding="UTF-8" standalone="no" ?>
<gpx xmlns="http://www.topografix.com/GPX/1/1" xmlns:xsi="http://www.w3.org/2001/XMLSchema-instance" xsi:schemaLocation="http://www.topografix.com/GPX/1/1 http://www.topografix.com/GPX/1/1/gpx.xsd" version="1.1" creator="VisuGPX - https://www.visugpx.com">
  <metadata>
    <name>Etangs de Péronnes et des Noues</name>
    <desc><![CDATA[Etangs de Péronne et des Noues en boucle, dans la forêt de Nuaillé


]]></desc>
  </metadata>
  <wpt lat="47.08299" lon="-0.74672">
    <ele>168.525711</ele>
    <name><![CDATA[1 h]]></name>
  </wpt>
  <wpt lat="47.07933" lon="-0.72056">
    <ele>173.433929</ele>
    <name><![CDATA[2 h]]></name>
  </wpt>
  <wpt lat="47.08874" lon="-0.77073">
    <ele>145.617752</ele>
    <name><![CDATA[3 h]]></name>
  </wpt>
  <trk>
    <name><![CDATA[Les Noues Péronne 22,5]]></name>
    <trkseg>
      <trkpt lat="47.06675" lon="-0.81384">
        <ele>105.88</ele>
        <time>2011-09-15T10:45:37Z</time>
      </trkpt>
      <trkpt lat="47.0667" lon="-0.81387">
        <ele>123.67</ele>
        <time>2011-09-15T10:46:12Z</time>
      </trkpt>
      <trkpt lat="47.06675" lon="-0.81376">
        <ele>128.47</ele>
        <time>2011-09-15T10:47:14Z</time>
      </trkpt>
      <trkpt lat="47.06681" lon="-0.81363">
        <ele>127.99</ele>
        <time>2011-09-15T10:47:22Z</time>
      </trkpt>
      <trkpt lat="47.06689" lon="-0.81349">
        <ele>127.99</ele>
        <time>2011-09-15T10:47:31Z</time>
      </trkpt>
      <trkpt lat="47.06696" lon="-0.81333">
        <ele>125.11</ele>
        <time>2011-09-15T10:47:41Z</time>
      </trkpt>
      <trkpt lat="47.06701" lon="-0.81322">
        <ele>127.03</ele>
        <time>2011-09-15T10:47:46Z</time>
      </trkpt>
      <trkpt lat="47.06705" lon="-0.81312">
        <ele>127.51</ele>
        <time>2011-09-15T10:47:50Z</time>
      </trkpt>
      <trkpt lat="47.06706" lon="-0.81301">
        <ele>126.55</ele>
        <time>2011-09-15T10:48:00Z</time>
      </trkpt>
      <trkpt lat="47.06714" lon="-0.81278">
        <ele>126.55</ele>
        <time>2011-09-15T10:48:18Z</time>
      </trkpt>
      <trkpt lat="47.06723" lon="-0.81259">
        <ele>126.07</ele>
        <time>2011-09-15T10:48:27Z</time>
      </trkpt>
      <trkpt lat="47.06729" lon="-0.81242">
        <ele>125.59</ele>
        <time>2011-09-15T10:48:35Z</time>
      </trkpt>
      <trkpt lat="47.06733" lon="-0.81228">
        <ele>125.59</ele>
        <time>2011-09-15T10:48:41Z</time>
      </trkpt>
      <trkpt lat="47.06732" lon="-0.81218">
        <ele>125.11</ele>
        <time>2011-09-15T10:48:45Z</time>
      </trkpt>
      <trkpt lat="47.06735" lon="-0.81209">
        <ele>125.11</ele>
        <time>2011-09-15T10:48:49Z</time>
      </trkpt>
      <trkpt lat="47.06742" lon="-0.81198">
        <ele>125.11</ele>
        <time>2011-09-15T10:48:53Z</time>
      </trkpt>
      <trkpt lat="47.06749" lon="-0.81191">
        <ele>125.11</ele>
        <time>2011-09-15T10:49:01Z</time>
      </trkpt>
      <trkpt lat="47.06755" lon="-0.8118">
        <ele>125.59</ele>
        <time>2011-09-15T10:49:06Z</time>
      </trkpt>
      <trkpt lat="47.06759" lon="-0.8117">
        <ele>125.59</ele>
        <time>2011-09-15T10:49:10Z</time>
      </trkpt>
      <trkpt lat="47.06764" lon="-0.81161">
        <ele>125.11</ele>
        <time>2011-09-15T10:49:17Z</time>
      </trkpt>
      <trkpt lat="47.06771" lon="-0.81154">
        <ele>125.59</ele>
        <time>2011-09-15T10:49:24Z</time>
      </trkpt>
      <trkpt lat="47.06778" lon="-0.81115">
        <ele>125.59</ele>
        <time>2011-09-15T10:49:57Z</time>
      </trkpt>
      <trkpt lat="47.06789" lon="-0.81101">
        <ele>125.59</ele>
        <time>2011-09-15T10:50:05Z</time>
      </trkpt>
      <trkpt lat="47.06801" lon="-0.81091">
        <ele>125.59</ele>
        <time>2011-09-15T10:50:14Z</time>
      </trkpt>
      <trkpt lat="47.06807" lon="-0.81065">
        <ele>126.07</ele>
        <time>2011-09-15T10:50:28Z</time>
      </trkpt>
      <trkpt lat="47.06813" lon="-0.81041">
        <ele>126.55</ele>
        <time>2011-09-15T10:50:35Z</time>
      </trkpt>
      <trkpt lat="47.0682" lon="-0.81028">
        <ele>126.07</ele>
        <time>2011-09-15T10:50:43Z</time>
      </trkpt>
      <trkpt lat="47.06833" lon="-0.81009">
        <ele>125.59</ele>
        <time>2011-09-15T10:50:57Z</time>
      </trkpt>
      <trkpt lat="47.06839" lon="-0.80992">
        <ele>126.07</ele>
        <time>2011-09-15T10:51:04Z</time>
      </trkpt>
      <trkpt lat="47.06847" lon="-0.8098">
        <ele>126.07</ele>
        <time>2011-09-15T10:51:08Z</time>
      </trkpt>
      <trkpt lat="47.06853" lon="-0.8097">
        <ele>126.55</ele>
        <time>2011-09-15T10:51:14Z</time>
      </trkpt>
      <trkpt lat="47.06859" lon="-0.80956">
        <ele>126.55</ele>
        <time>2011-09-15T10:51:26Z</time>
      </trkpt>
      <trkpt lat="47.06866" lon="-0.80941">
        <ele>126.55</ele>
        <time>2011-09-15T10:51:39Z</time>
      </trkpt>
      <trkpt lat="47.06873" lon="-0.8093">
        <ele>127.51</ele>
        <time>2011-09-15T10:51:46Z</time>
      </trkpt>
      <trkpt lat="47.06881" lon="-0.80916">
        <ele>127.03</ele>
        <time>2011-09-15T10:51:51Z</time>
      </trkpt>
      <trkpt lat="47.06888" lon="-0.80905">
        <ele>126.55</ele>
        <time>2011-09-15T10:51:55Z</time>
      </trkpt>
      <trkpt lat="47.06892" lon="-0.80897">
        <ele>127.03</ele>
        <time>2011-09-15T10:51:58Z</time>
      </trkpt>
      <trkpt lat="47.06893" lon="-0.80887">
        <ele>127.51</ele>
        <time>2011-09-15T10:52:04Z</time>
      </trkpt>
      <trkpt lat="47.06898" lon="-0.80879">
        <ele>127.99</ele>
        <time>2011-09-15T10:52:21Z</time>
      </trkpt>
      <trkpt lat="47.06908" lon="-0.80858">
        <ele>127.99</ele>
        <time>2011-09-15T10:52:33Z</time>
      </trkpt>
      <trkpt lat="47.06916" lon="-0.80842">
        <ele>127.99</ele>
        <time>2011-09-15T10:52:39Z</time>
      </trkpt>
      <trkpt lat="47.0693" lon="-0.80829">
        <ele>127.99</ele>
        <time>2011-09-15T10:52:46Z</time>
      </trkpt>
      <trkpt lat="47.06937" lon="-0.8082">
        <ele>127.99</ele>
        <time>2011-09-15T10:52:54Z</time>
      </trkpt>
      <trkpt lat="47.06942" lon="-0.80802">
        <ele>127.99</ele>
        <time>2011-09-15T10:53:05Z</time>
      </trkpt>
      <trkpt lat="47.0695" lon="-0.80785">
        <ele>127.99</ele>
        <time>2011-09-15T10:53:16Z</time>
      </trkpt>
      <trkpt lat="47.0696" lon="-0.8077">
        <ele>127.99</ele>
        <time>2011-09-15T10:53:25Z</time>
      </trkpt>
      <trkpt lat="47.06971" lon="-0.80759">
        <ele>127.51</ele>
        <time>2011-09-15T10:53:32Z</time>
      </trkpt>
      <trkpt lat="47.0698" lon="-0.80748">
        <ele>127.51</ele>
        <time>2011-09-15T10:53:39Z</time>
      </trkpt>
      <trkpt lat="47.06989" lon="-0.80738">
        <ele>127.51</ele>
        <time>2011-09-15T10:53:45Z</time>
      </trkpt>
      <trkpt lat="47.06997" lon="-0.8073">
        <ele>127.51</ele>
        <time>2011-09-15T10:53:50Z</time>
      </trkpt>
      <trkpt lat="47.07005" lon="-0.80723">
        <ele>127.51</ele>
        <time>2011-09-15T10:53:56Z</time>
      </trkpt>
      <trkpt lat="47.07013" lon="-0.80715">
        <ele>127.99</ele>
        <time>2011-09-15T10:54:02Z</time>
      </trkpt>
      <trkpt lat="47.07021" lon="-0.80709">
        <ele>128.47</ele>
        <time>2011-09-15T10:54:09Z</time>
      </trkpt>
      <trkpt lat="47.07029" lon="-0.80702">
        <ele>128.95</ele>
        <time>2011-09-15T10:54:16Z</time>
      </trkpt>
      <trkpt lat="47.07038" lon="-0.80697">
        <ele>128.95</ele>
        <time>2011-09-15T10:54:23Z</time>
      </trkpt>
      <trkpt lat="47.07047" lon="-0.8069">
        <ele>129.43</ele>
        <time>2011-09-15T10:54:32Z</time>
      </trkpt>
      <trkpt lat="47.07056" lon="-0.80682">
        <ele>129.92</ele>
        <time>2011-09-15T10:54:40Z</time>
      </trkpt>
      <trkpt lat="47.07065" lon="-0.80673">
        <ele>129.92</ele>
        <time>2011-09-15T10:54:50Z</time>
      </trkpt>
      <trkpt lat="47.07076" lon="-0.80656">
        <ele>129.92</ele>
        <time>2011-09-15T10:55:04Z</time>
      </trkpt>
      <trkpt lat="47.07086" lon="-0.80642">
        <ele>129.92</ele>
        <time>2011-09-15T10:55:13Z</time>
      </trkpt>
      <trkpt lat="47.07097" lon="-0.80631">
        <ele>129.92</ele>
        <time>2011-09-15T10:55:19Z</time>
      </trkpt>
      <trkpt lat="47.07106" lon="-0.80619">
        <ele>129.92</ele>
        <time>2011-09-15T10:55:26Z</time>
      </trkpt>
      <trkpt lat="47.07114" lon="-0.80608">
        <ele>130.4</ele>
        <time>2011-09-15T10:55:34Z</time>
      </trkpt>
      <trkpt lat="47.07119" lon="-0.80599">
        <ele>129.92</ele>
        <time>2011-09-15T10:55:41Z</time>
      </trkpt>
      <trkpt lat="47.07129" lon="-0.80591">
        <ele>129.92</ele>
        <time>2011-09-15T10:55:51Z</time>
      </trkpt>
      <trkpt lat="47.07143" lon="-0.80569">
        <ele>129.92</ele>
        <time>2011-09-15T10:56:03Z</time>
      </trkpt>
      <trkpt lat="47.07152" lon="-0.80555">
        <ele>129.43</ele>
        <time>2011-09-15T10:56:10Z</time>
      </trkpt>
      <trkpt lat="47.07157" lon="-0.80544">
        <ele>128.95</ele>
        <time>2011-09-15T10:56:17Z</time>
      </trkpt>
      <trkpt lat="47.07171" lon="-0.80529">
        <ele>128.95</ele>
        <time>2011-09-15T10:56:28Z</time>
      </trkpt>
      <trkpt lat="47.07178" lon="-0.80512">
        <ele>128.95</ele>
        <time>2011-09-15T10:56:36Z</time>
      </trkpt>
      <trkpt lat="47.07186" lon="-0.80503">
        <ele>128.47</ele>
        <time>2011-09-15T10:56:40Z</time>
      </trkpt>
      <trkpt lat="47.07192" lon="-0.80493">
        <ele>128.47</ele>
        <time>2011-09-15T10:56:45Z</time>
      </trkpt>
      <trkpt lat="47.07193" lon="-0.80476">
        <ele>128.47</ele>
        <time>2011-09-15T10:56:56Z</time>
      </trkpt>
      <trkpt lat="47.07192" lon="-0.80447">
        <ele>128.95</ele>
        <time>2011-09-15T10:57:12Z</time>
      </trkpt>
      <trkpt lat="47.07191" lon="-0.80416">
        <ele>129.43</ele>
        <time>2011-09-15T10:57:28Z</time>
      </trkpt>
      <trkpt lat="47.07188" lon="-0.80392">
        <ele>129.43</ele>
        <time>2011-09-15T10:57:39Z</time>
      </trkpt>
      <trkpt lat="47.0719" lon="-0.8037">
        <ele>129.92</ele>
        <time>2011-09-15T10:57:47Z</time>
      </trkpt>
      <trkpt lat="47.07189" lon="-0.80352">
        <ele>129.92</ele>
        <time>2011-09-15T10:57:55Z</time>
      </trkpt>
      <trkpt lat="47.07189" lon="-0.80335">
        <ele>130.88</ele>
        <time>2011-09-15T10:58:03Z</time>
      </trkpt>
      <trkpt lat="47.0719" lon="-0.8032">
        <ele>130.88</ele>
        <time>2011-09-15T10:58:10Z</time>
      </trkpt>
      <trkpt lat="47.07191" lon="-0.80305">
        <ele>131.36</ele>
        <time>2011-09-15T10:58:16Z</time>
      </trkpt>
      <trkpt lat="47.07191" lon="-0.80291">
        <ele>131.84</ele>
        <time>2011-09-15T10:58:22Z</time>
      </trkpt>
      <trkpt lat="47.07192" lon="-0.80279">
        <ele>131.84</ele>
        <time>2011-09-15T10:58:27Z</time>
      </trkpt>
      <trkpt lat="47.07193" lon="-0.80266">
        <ele>132.32</ele>
        <time>2011-09-15T10:58:33Z</time>
      </trkpt>
      <trkpt lat="47.07196" lon="-0.80253">
        <ele>132.8</ele>
        <time>2011-09-15T10:58:38Z</time>
      </trkpt>
      <trkpt lat="47.07195" lon="-0.80241">
        <ele>132.8</ele>
        <time>2011-09-15T10:58:43Z</time>
      </trkpt>
      <trkpt lat="47.07197" lon="-0.80227">
        <ele>133.28</ele>
        <time>2011-09-15T10:58:48Z</time>
      </trkpt>
      <trkpt lat="47.07198" lon="-0.80216">
        <ele>133.28</ele>
        <time>2011-09-15T10:58:53Z</time>
      </trkpt>
      <trkpt lat="47.07196" lon="-0.80207">
        <ele>133.76</ele>
        <time>2011-09-15T10:58:58Z</time>
      </trkpt>
      <trkpt lat="47.07199" lon="-0.80196">
        <ele>134.24</ele>
        <time>2011-09-15T10:59:04Z</time>
      </trkpt>
      <trkpt lat="47.072" lon="-0.80184">
        <ele>134.24</ele>
        <time>2011-09-15T10:59:12Z</time>
      </trkpt>
      <trkpt lat="47.07201" lon="-0.80166">
        <ele>134.72</ele>
        <time>2011-09-15T10:59:22Z</time>
      </trkpt>
      <trkpt lat="47.072" lon="-0.80152">
        <ele>135.2</ele>
        <time>2011-09-15T10:59:28Z</time>
      </trkpt>
      <trkpt lat="47.07199" lon="-0.80139">
        <ele>135.2</ele>
        <time>2011-09-15T10:59:33Z</time>
      </trkpt>
      <trkpt lat="47.07197" lon="-0.80126">
        <ele>136.16</ele>
        <time>2011-09-15T10:59:39Z</time>
      </trkpt>
      <trkpt lat="47.07199" lon="-0.80115">
        <ele>135.68</ele>
        <time>2011-09-15T10:59:45Z</time>
      </trkpt>
      <trkpt lat="47.07202" lon="-0.80104">
        <ele>136.64</ele>
        <time>2011-09-15T10:59:51Z</time>
      </trkpt>
      <trkpt lat="47.07204" lon="-0.80086">
        <ele>136.16</ele>
        <time>2011-09-15T11:00:01Z</time>
      </trkpt>
      <trkpt lat="47.07205" lon="-0.80067">
        <ele>137.13</ele>
        <time>2011-09-15T11:00:11Z</time>
      </trkpt>
      <trkpt lat="47.07206" lon="-0.80047">
        <ele>137.61</ele>
        <time>2011-09-15T11:00:20Z</time>
      </trkpt>
      <trkpt lat="47.07208" lon="-0.80029">
        <ele>138.09</ele>
        <time>2011-09-15T11:00:28Z</time>
      </trkpt>
      <trkpt lat="47.07206" lon="-0.80013">
        <ele>138.57</ele>
        <time>2011-09-15T11:00:35Z</time>
      </trkpt>
      <trkpt lat="47.07206" lon="-0.79998">
        <ele>138.57</ele>
        <time>2011-09-15T11:00:41Z</time>
      </trkpt>
      <trkpt lat="47.07206" lon="-0.79985">
        <ele>139.05</ele>
        <time>2011-09-15T11:00:46Z</time>
      </trkpt>
      <trkpt lat="47.07207" lon="-0.79971">
        <ele>139.05</ele>
        <time>2011-09-15T11:00:51Z</time>
      </trkpt>
      <trkpt lat="47.07209" lon="-0.79958">
        <ele>139.53</ele>
        <time>2011-09-15T11:00:56Z</time>
      </trkpt>
      <trkpt lat="47.07211" lon="-0.79946">
        <ele>139.53</ele>
        <time>2011-09-15T11:01:01Z</time>
      </trkpt>
      <trkpt lat="47.07211" lon="-0.79936">
        <ele>139.53</ele>
        <time>2011-09-15T11:01:05Z</time>
      </trkpt>
      <trkpt lat="47.07209" lon="-0.79926">
        <ele>140.01</ele>
        <time>2011-09-15T11:01:10Z</time>
      </trkpt>
      <trkpt lat="47.07209" lon="-0.79918">
        <ele>140.49</ele>
        <time>2011-09-15T11:01:15Z</time>
      </trkpt>
      <trkpt lat="47.0721" lon="-0.79907">
        <ele>140.49</ele>
        <time>2011-09-15T11:01:21Z</time>
      </trkpt>
      <trkpt lat="47.07214" lon="-0.7989">
        <ele>140.97</ele>
        <time>2011-09-15T11:01:36Z</time>
      </trkpt>
      <trkpt lat="47.0722" lon="-0.79861">
        <ele>141.45</ele>
        <time>2011-09-15T11:01:49Z</time>
      </trkpt>
      <trkpt lat="47.07221" lon="-0.79835">
        <ele>141.93</ele>
        <time>2011-09-15T11:02:00Z</time>
      </trkpt>
      <trkpt lat="47.07222" lon="-0.79816">
        <ele>142.41</ele>
        <time>2011-09-15T11:02:08Z</time>
      </trkpt>
      <trkpt lat="47.07223" lon="-0.79798">
        <ele>143.37</ele>
        <time>2011-09-15T11:02:15Z</time>
      </trkpt>
      <trkpt lat="47.07221" lon="-0.79783">
        <ele>143.37</ele>
        <time>2011-09-15T11:02:21Z</time>
      </trkpt>
      <trkpt lat="47.0722" lon="-0.79771">
        <ele>143.37</ele>
        <time>2011-09-15T11:02:27Z</time>
      </trkpt>
      <trkpt lat="47.07221" lon="-0.79756">
        <ele>143.85</ele>
        <time>2011-09-15T11:02:35Z</time>
      </trkpt>
      <trkpt lat="47.07222" lon="-0.79742">
        <ele>144.34</ele>
        <time>2011-09-15T11:02:42Z</time>
      </trkpt>
      <trkpt lat="47.07226" lon="-0.79727">
        <ele>144.82</ele>
        <time>2011-09-15T11:02:49Z</time>
      </trkpt>
      <trkpt lat="47.07225" lon="-0.79712">
        <ele>144.82</ele>
        <time>2011-09-15T11:02:56Z</time>
      </trkpt>
      <trkpt lat="47.07228" lon="-0.79698">
        <ele>144.82</ele>
        <time>2011-09-15T11:03:03Z</time>
      </trkpt>
      <trkpt lat="47.07232" lon="-0.79683">
        <ele>145.3</ele>
        <time>2011-09-15T11:03:11Z</time>
      </trkpt>
      <trkpt lat="47.07239" lon="-0.79669">
        <ele>145.3</ele>
        <time>2011-09-15T11:03:19Z</time>
      </trkpt>
      <trkpt lat="47.07246" lon="-0.79655">
        <ele>146.26</ele>
        <time>2011-09-15T11:03:28Z</time>
      </trkpt>
      <trkpt lat="47.07253" lon="-0.79639">
        <ele>146.74</ele>
        <time>2011-09-15T11:03:39Z</time>
      </trkpt>
      <trkpt lat="47.07261" lon="-0.79625">
        <ele>147.22</ele>
        <time>2011-09-15T11:03:47Z</time>
      </trkpt>
      <trkpt lat="47.07268" lon="-0.79612">
        <ele>147.22</ele>
        <time>2011-09-15T11:03:55Z</time>
      </trkpt>
      <trkpt lat="47.07277" lon="-0.796">
        <ele>147.7</ele>
        <time>2011-09-15T11:04:02Z</time>
      </trkpt>
      <trkpt lat="47.07281" lon="-0.79586">
        <ele>148.18</ele>
        <time>2011-09-15T11:04:09Z</time>
      </trkpt>
      <trkpt lat="47.07288" lon="-0.79573">
        <ele>148.66</ele>
        <time>2011-09-15T11:04:17Z</time>
      </trkpt>
      <trkpt lat="47.07296" lon="-0.79564">
        <ele>148.66</ele>
        <time>2011-09-15T11:04:24Z</time>
      </trkpt>
      <trkpt lat="47.07304" lon="-0.7955">
        <ele>149.14</ele>
        <time>2011-09-15T11:04:32Z</time>
      </trkpt>
      <trkpt lat="47.07312" lon="-0.79535">
        <ele>149.14</ele>
        <time>2011-09-15T11:04:41Z</time>
      </trkpt>
      <trkpt lat="47.0732" lon="-0.79522">
        <ele>149.62</ele>
        <time>2011-09-15T11:04:49Z</time>
      </trkpt>
      <trkpt lat="47.07328" lon="-0.79511">
        <ele>150.1</ele>
        <time>2011-09-15T11:04:56Z</time>
      </trkpt>
      <trkpt lat="47.07336" lon="-0.79498">
        <ele>150.58</ele>
        <time>2011-09-15T11:05:04Z</time>
      </trkpt>
      <trkpt lat="47.07342" lon="-0.79484">
        <ele>150.1</ele>
        <time>2011-09-15T11:05:11Z</time>
      </trkpt>
      <trkpt lat="47.07349" lon="-0.79472">
        <ele>150.58</ele>
        <time>2011-09-15T11:05:18Z</time>
      </trkpt>
      <trkpt lat="47.07355" lon="-0.79462">
        <ele>150.58</ele>
        <time>2011-09-15T11:05:25Z</time>
      </trkpt>
      <trkpt lat="47.07362" lon="-0.79449">
        <ele>151.06</ele>
        <time>2011-09-15T11:05:32Z</time>
      </trkpt>
      <trkpt lat="47.07368" lon="-0.7944">
        <ele>151.54</ele>
        <time>2011-09-15T11:05:39Z</time>
      </trkpt>
      <trkpt lat="47.07374" lon="-0.79428">
        <ele>151.54</ele>
        <time>2011-09-15T11:05:47Z</time>
      </trkpt>
      <trkpt lat="47.0738" lon="-0.79415">
        <ele>152.03</ele>
        <time>2011-09-15T11:05:55Z</time>
      </trkpt>
      <trkpt lat="47.07386" lon="-0.79402">
        <ele>152.03</ele>
        <time>2011-09-15T11:06:02Z</time>
      </trkpt>
      <trkpt lat="47.07394" lon="-0.79389">
        <ele>152.51</ele>
        <time>2011-09-15T11:06:10Z</time>
      </trkpt>
      <trkpt lat="47.07401" lon="-0.79376">
        <ele>152.51</ele>
        <time>2011-09-15T11:06:18Z</time>
      </trkpt>
      <trkpt lat="47.07408" lon="-0.79363">
        <ele>152.51</ele>
        <time>2011-09-15T11:06:26Z</time>
      </trkpt>
      <trkpt lat="47.07415" lon="-0.7935">
        <ele>152.99</ele>
        <time>2011-09-15T11:06:34Z</time>
      </trkpt>
      <trkpt lat="47.07422" lon="-0.79336">
        <ele>152.99</ele>
        <time>2011-09-15T11:06:42Z</time>
      </trkpt>
      <trkpt lat="47.07429" lon="-0.79323">
        <ele>152.99</ele>
        <time>2011-09-15T11:06:49Z</time>
      </trkpt>
      <trkpt lat="47.07437" lon="-0.79311">
        <ele>152.99</ele>
        <time>2011-09-15T11:06:56Z</time>
      </trkpt>
      <trkpt lat="47.07444" lon="-0.793">
        <ele>153.47</ele>
        <time>2011-09-15T11:07:03Z</time>
      </trkpt>
      <trkpt lat="47.07451" lon="-0.79288">
        <ele>153.47</ele>
        <time>2011-09-15T11:07:10Z</time>
      </trkpt>
      <trkpt lat="47.07457" lon="-0.79275">
        <ele>153.47</ele>
        <time>2011-09-15T11:07:18Z</time>
      </trkpt>
      <trkpt lat="47.07463" lon="-0.79262">
        <ele>153.47</ele>
        <time>2011-09-15T11:07:28Z</time>
      </trkpt>
      <trkpt lat="47.07472" lon="-0.79249">
        <ele>153.95</ele>
        <time>2011-09-15T11:07:36Z</time>
      </trkpt>
      <trkpt lat="47.07481" lon="-0.79236">
        <ele>153.47</ele>
        <time>2011-09-15T11:07:44Z</time>
      </trkpt>
      <trkpt lat="47.07487" lon="-0.79224">
        <ele>153.95</ele>
        <time>2011-09-15T11:07:51Z</time>
      </trkpt>
      <trkpt lat="47.07493" lon="-0.79213">
        <ele>153.95</ele>
        <time>2011-09-15T11:07:58Z</time>
      </trkpt>
      <trkpt lat="47.07499" lon="-0.79199">
        <ele>153.95</ele>
        <time>2011-09-15T11:08:05Z</time>
      </trkpt>
      <trkpt lat="47.07507" lon="-0.79187">
        <ele>153.47</ele>
        <time>2011-09-15T11:08:21Z</time>
      </trkpt>
      <trkpt lat="47.07514" lon="-0.79178">
        <ele>153.95</ele>
        <time>2011-09-15T11:08:28Z</time>
      </trkpt>
      <trkpt lat="47.07523" lon="-0.79166">
        <ele>153.95</ele>
        <time>2011-09-15T11:08:35Z</time>
      </trkpt>
      <trkpt lat="47.07529" lon="-0.79155">
        <ele>153.95</ele>
        <time>2011-09-15T11:08:42Z</time>
      </trkpt>
      <trkpt lat="47.07535" lon="-0.79141">
        <ele>154.43</ele>
        <time>2011-09-15T11:08:49Z</time>
      </trkpt>
      <trkpt lat="47.07541" lon="-0.79129">
        <ele>153.95</ele>
        <time>2011-09-15T11:08:57Z</time>
      </trkpt>
      <trkpt lat="47.0755" lon="-0.79116">
        <ele>154.43</ele>
        <time>2011-09-15T11:09:05Z</time>
      </trkpt>
      <trkpt lat="47.07558" lon="-0.79099">
        <ele>154.43</ele>
        <time>2011-09-15T11:09:13Z</time>
      </trkpt>
      <trkpt lat="47.07565" lon="-0.79085">
        <ele>154.43</ele>
        <time>2011-09-15T11:09:22Z</time>
      </trkpt>
      <trkpt lat="47.07574" lon="-0.79072">
        <ele>153.95</ele>
        <time>2011-09-15T11:09:30Z</time>
      </trkpt>
      <trkpt lat="47.07582" lon="-0.79059">
        <ele>154.43</ele>
        <time>2011-09-15T11:09:37Z</time>
      </trkpt>
      <trkpt lat="47.07589" lon="-0.79047">
        <ele>154.43</ele>
        <time>2011-09-15T11:09:44Z</time>
      </trkpt>
      <trkpt lat="47.07595" lon="-0.79035">
        <ele>154.43</ele>
        <time>2011-09-15T11:09:51Z</time>
      </trkpt>
      <trkpt lat="47.07601" lon="-0.79025">
        <ele>154.91</ele>
        <time>2011-09-15T11:09:57Z</time>
      </trkpt>
      <trkpt lat="47.07608" lon="-0.79015">
        <ele>154.43</ele>
        <time>2011-09-15T11:10:04Z</time>
      </trkpt>
      <trkpt lat="47.07612" lon="-0.79">
        <ele>154.43</ele>
        <time>2011-09-15T11:10:13Z</time>
      </trkpt>
      <trkpt lat="47.07622" lon="-0.78988">
        <ele>154.43</ele>
        <time>2011-09-15T11:10:20Z</time>
      </trkpt>
      <trkpt lat="47.07631" lon="-0.78973">
        <ele>154.43</ele>
        <time>2011-09-15T11:10:29Z</time>
      </trkpt>
      <trkpt lat="47.0764" lon="-0.78953">
        <ele>154.43</ele>
        <time>2011-09-15T11:10:39Z</time>
      </trkpt>
      <trkpt lat="47.07649" lon="-0.78941">
        <ele>154.91</ele>
        <time>2011-09-15T11:10:46Z</time>
      </trkpt>
      <trkpt lat="47.07656" lon="-0.78928">
        <ele>154.91</ele>
        <time>2011-09-15T11:10:54Z</time>
      </trkpt>
      <trkpt lat="47.07669" lon="-0.78911">
        <ele>154.91</ele>
        <time>2011-09-15T11:11:05Z</time>
      </trkpt>
      <trkpt lat="47.07676" lon="-0.78894">
        <ele>154.91</ele>
        <time>2011-09-15T11:11:13Z</time>
      </trkpt>
      <trkpt lat="47.07685" lon="-0.78884">
        <ele>154.91</ele>
        <time>2011-09-15T11:11:19Z</time>
      </trkpt>
      <trkpt lat="47.07692" lon="-0.78866">
        <ele>155.39</ele>
        <time>2011-09-15T11:11:33Z</time>
      </trkpt>
      <trkpt lat="47.07699" lon="-0.78848">
        <ele>154.91</ele>
        <time>2011-09-15T11:11:41Z</time>
      </trkpt>
      <trkpt lat="47.07706" lon="-0.78833">
        <ele>155.39</ele>
        <time>2011-09-15T11:11:48Z</time>
      </trkpt>
      <trkpt lat="47.07716" lon="-0.78818">
        <ele>155.87</ele>
        <time>2011-09-15T11:11:58Z</time>
      </trkpt>
      <trkpt lat="47.07728" lon="-0.78802">
        <ele>155.39</ele>
        <time>2011-09-15T11:12:06Z</time>
      </trkpt>
      <trkpt lat="47.07735" lon="-0.78788">
        <ele>155.39</ele>
        <time>2011-09-15T11:12:15Z</time>
      </trkpt>
      <trkpt lat="47.07744" lon="-0.78772">
        <ele>155.87</ele>
        <time>2011-09-15T11:12:22Z</time>
      </trkpt>
      <trkpt lat="47.0775" lon="-0.78761">
        <ele>155.39</ele>
        <time>2011-09-15T11:12:28Z</time>
      </trkpt>
      <trkpt lat="47.07758" lon="-0.78746">
        <ele>155.39</ele>
        <time>2011-09-15T11:12:37Z</time>
      </trkpt>
      <trkpt lat="47.07768" lon="-0.78734">
        <ele>155.39</ele>
        <time>2011-09-15T11:12:42Z</time>
      </trkpt>
      <trkpt lat="47.07773" lon="-0.78722">
        <ele>155.39</ele>
        <time>2011-09-15T11:12:49Z</time>
      </trkpt>
      <trkpt lat="47.07782" lon="-0.78706">
        <ele>155.39</ele>
        <time>2011-09-15T11:12:59Z</time>
      </trkpt>
      <trkpt lat="47.07785" lon="-0.78691">
        <ele>155.39</ele>
        <time>2011-09-15T11:13:06Z</time>
      </trkpt>
      <trkpt lat="47.07795" lon="-0.78679">
        <ele>155.39</ele>
        <time>2011-09-15T11:13:14Z</time>
      </trkpt>
      <trkpt lat="47.07806" lon="-0.78661">
        <ele>155.39</ele>
        <time>2011-09-15T11:13:26Z</time>
      </trkpt>
      <trkpt lat="47.07815" lon="-0.78647">
        <ele>155.39</ele>
        <time>2011-09-15T11:13:33Z</time>
      </trkpt>
      <trkpt lat="47.07822" lon="-0.78636">
        <ele>155.39</ele>
        <time>2011-09-15T11:13:38Z</time>
      </trkpt>
      <trkpt lat="47.07826" lon="-0.78625">
        <ele>155.39</ele>
        <time>2011-09-15T11:13:46Z</time>
      </trkpt>
      <trkpt lat="47.07835" lon="-0.78616">
        <ele>155.39</ele>
        <time>2011-09-15T11:13:51Z</time>
      </trkpt>
      <trkpt lat="47.07841" lon="-0.78606">
        <ele>155.87</ele>
        <time>2011-09-15T11:13:57Z</time>
      </trkpt>
      <trkpt lat="47.07848" lon="-0.78594">
        <ele>155.39</ele>
        <time>2011-09-15T11:14:05Z</time>
      </trkpt>
      <trkpt lat="47.07855" lon="-0.78581">
        <ele>155.39</ele>
        <time>2011-09-15T11:14:12Z</time>
      </trkpt>
      <trkpt lat="47.0786" lon="-0.7857">
        <ele>155.39</ele>
        <time>2011-09-15T11:14:18Z</time>
      </trkpt>
      <trkpt lat="47.07867" lon="-0.78555">
        <ele>155.39</ele>
        <time>2011-09-15T11:14:29Z</time>
      </trkpt>
      <trkpt lat="47.07874" lon="-0.78543">
        <ele>155.39</ele>
        <time>2011-09-15T11:14:35Z</time>
      </trkpt>
      <trkpt lat="47.07882" lon="-0.78532">
        <ele>155.39</ele>
        <time>2011-09-15T11:14:41Z</time>
      </trkpt>
      <trkpt lat="47.07888" lon="-0.78521">
        <ele>155.39</ele>
        <time>2011-09-15T11:14:47Z</time>
      </trkpt>
      <trkpt lat="47.07895" lon="-0.78509">
        <ele>155.87</ele>
        <time>2011-09-15T11:14:53Z</time>
      </trkpt>
      <trkpt lat="47.07902" lon="-0.78498">
        <ele>155.39</ele>
        <time>2011-09-15T11:15:01Z</time>
      </trkpt>
      <trkpt lat="47.0791" lon="-0.78482">
        <ele>155.87</ele>
        <time>2011-09-15T11:15:10Z</time>
      </trkpt>
      <trkpt lat="47.07917" lon="-0.78471">
        <ele>155.39</ele>
        <time>2011-09-15T11:15:16Z</time>
      </trkpt>
      <trkpt lat="47.0792" lon="-0.7846">
        <ele>155.87</ele>
        <time>2011-09-15T11:15:21Z</time>
      </trkpt>
      <trkpt lat="47.07924" lon="-0.78447">
        <ele>155.87</ele>
        <time>2011-09-15T11:15:27Z</time>
      </trkpt>
      <trkpt lat="47.07929" lon="-0.78437">
        <ele>156.35</ele>
        <time>2011-09-15T11:15:33Z</time>
      </trkpt>
      <trkpt lat="47.07934" lon="-0.78428">
        <ele>155.87</ele>
        <time>2011-09-15T11:15:39Z</time>
      </trkpt>
      <trkpt lat="47.07941" lon="-0.78413">
        <ele>156.35</ele>
        <time>2011-09-15T11:15:48Z</time>
      </trkpt>
      <trkpt lat="47.07944" lon="-0.78397">
        <ele>155.87</ele>
        <time>2011-09-15T11:15:54Z</time>
      </trkpt>
      <trkpt lat="47.07945" lon="-0.78383">
        <ele>155.87</ele>
        <time>2011-09-15T11:16:00Z</time>
      </trkpt>
      <trkpt lat="47.07948" lon="-0.7837">
        <ele>156.35</ele>
        <time>2011-09-15T11:16:07Z</time>
      </trkpt>
      <trkpt lat="47.07954" lon="-0.78355">
        <ele>155.87</ele>
        <time>2011-09-15T11:16:16Z</time>
      </trkpt>
      <trkpt lat="47.07958" lon="-0.78338">
        <ele>156.35</ele>
        <time>2011-09-15T11:16:24Z</time>
      </trkpt>
      <trkpt lat="47.07962" lon="-0.7832">
        <ele>155.87</ele>
        <time>2011-09-15T11:16:31Z</time>
      </trkpt>
      <trkpt lat="47.07964" lon="-0.78305">
        <ele>155.87</ele>
        <time>2011-09-15T11:16:37Z</time>
      </trkpt>
      <trkpt lat="47.07966" lon="-0.78291">
        <ele>155.87</ele>
        <time>2011-09-15T11:16:43Z</time>
      </trkpt>
      <trkpt lat="47.07971" lon="-0.78279">
        <ele>155.87</ele>
        <time>2011-09-15T11:16:49Z</time>
      </trkpt>
      <trkpt lat="47.07976" lon="-0.7827">
        <ele>156.35</ele>
        <time>2011-09-15T11:16:54Z</time>
      </trkpt>
      <trkpt lat="47.07981" lon="-0.78258">
        <ele>156.35</ele>
        <time>2011-09-15T11:17:01Z</time>
      </trkpt>
      <trkpt lat="47.07984" lon="-0.78245">
        <ele>156.35</ele>
        <time>2011-09-15T11:17:08Z</time>
      </trkpt>
      <trkpt lat="47.0799" lon="-0.78233">
        <ele>155.87</ele>
        <time>2011-09-15T11:17:16Z</time>
      </trkpt>
      <trkpt lat="47.07993" lon="-0.78215">
        <ele>155.87</ele>
        <time>2011-09-15T11:17:25Z</time>
      </trkpt>
      <trkpt lat="47.07998" lon="-0.78197">
        <ele>155.87</ele>
        <time>2011-09-15T11:17:34Z</time>
      </trkpt>
      <trkpt lat="47.08002" lon="-0.7818">
        <ele>155.87</ele>
        <time>2011-09-15T11:17:42Z</time>
      </trkpt>
      <trkpt lat="47.08006" lon="-0.78168">
        <ele>155.87</ele>
        <time>2011-09-15T11:17:49Z</time>
      </trkpt>
      <trkpt lat="47.08012" lon="-0.78153">
        <ele>155.39</ele>
        <time>2011-09-15T11:17:57Z</time>
      </trkpt>
      <trkpt lat="47.08016" lon="-0.78135">
        <ele>155.39</ele>
        <time>2011-09-15T11:18:08Z</time>
      </trkpt>
      <trkpt lat="47.08019" lon="-0.78119">
        <ele>155.39</ele>
        <time>2011-09-15T11:18:16Z</time>
      </trkpt>
      <trkpt lat="47.08026" lon="-0.78104">
        <ele>155.39</ele>
        <time>2011-09-15T11:18:20Z</time>
      </trkpt>
      <trkpt lat="47.0803" lon="-0.7809">
        <ele>155.39</ele>
        <time>2011-09-15T11:18:24Z</time>
      </trkpt>
      <trkpt lat="47.08034" lon="-0.78078">
        <ele>155.39</ele>
        <time>2011-09-15T11:18:31Z</time>
      </trkpt>
      <trkpt lat="47.08038" lon="-0.78059">
        <ele>155.39</ele>
        <time>2011-09-15T11:18:41Z</time>
      </trkpt>
      <trkpt lat="47.08044" lon="-0.78046">
        <ele>155.39</ele>
        <time>2011-09-15T11:18:48Z</time>
      </trkpt>
      <trkpt lat="47.08045" lon="-0.78031">
        <ele>155.39</ele>
        <time>2011-09-15T11:18:55Z</time>
      </trkpt>
      <trkpt lat="47.08051" lon="-0.78015">
        <ele>155.39</ele>
        <time>2011-09-15T11:19:02Z</time>
      </trkpt>
      <trkpt lat="47.08055" lon="-0.78">
        <ele>155.39</ele>
        <time>2011-09-15T11:19:09Z</time>
      </trkpt>
      <trkpt lat="47.08061" lon="-0.77982">
        <ele>154.91</ele>
        <time>2011-09-15T11:19:17Z</time>
      </trkpt>
      <trkpt lat="47.08067" lon="-0.77965">
        <ele>155.39</ele>
        <time>2011-09-15T11:19:25Z</time>
      </trkpt>
      <trkpt lat="47.08071" lon="-0.77948">
        <ele>155.39</ele>
        <time>2011-09-15T11:19:33Z</time>
      </trkpt>
      <trkpt lat="47.08077" lon="-0.77931">
        <ele>154.91</ele>
        <time>2011-09-15T11:19:42Z</time>
      </trkpt>
      <trkpt lat="47.08084" lon="-0.77917">
        <ele>154.91</ele>
        <time>2011-09-15T11:19:49Z</time>
      </trkpt>
      <trkpt lat="47.0809" lon="-0.779">
        <ele>154.91</ele>
        <time>2011-09-15T11:19:58Z</time>
      </trkpt>
      <trkpt lat="47.08095" lon="-0.77884">
        <ele>154.91</ele>
        <time>2011-09-15T11:20:05Z</time>
      </trkpt>
      <trkpt lat="47.08099" lon="-0.77869">
        <ele>154.91</ele>
        <time>2011-09-15T11:20:11Z</time>
      </trkpt>
      <trkpt lat="47.08102" lon="-0.77852">
        <ele>154.91</ele>
        <time>2011-09-15T11:20:22Z</time>
      </trkpt>
      <trkpt lat="47.08108" lon="-0.77834">
        <ele>154.43</ele>
        <time>2011-09-15T11:20:30Z</time>
      </trkpt>
      <trkpt lat="47.08115" lon="-0.77817">
        <ele>154.43</ele>
        <time>2011-09-15T11:20:37Z</time>
      </trkpt>
      <trkpt lat="47.08121" lon="-0.77802">
        <ele>153.95</ele>
        <time>2011-09-15T11:20:44Z</time>
      </trkpt>
      <trkpt lat="47.08126" lon="-0.77788">
        <ele>154.43</ele>
        <time>2011-09-15T11:20:51Z</time>
      </trkpt>
      <trkpt lat="47.08129" lon="-0.77774">
        <ele>153.95</ele>
        <time>2011-09-15T11:20:58Z</time>
      </trkpt>
      <trkpt lat="47.08132" lon="-0.77761">
        <ele>153.95</ele>
        <time>2011-09-15T11:21:04Z</time>
      </trkpt>
      <trkpt lat="47.08137" lon="-0.77749">
        <ele>154.43</ele>
        <time>2011-09-15T11:21:10Z</time>
      </trkpt>
      <trkpt lat="47.08144" lon="-0.77734">
        <ele>154.43</ele>
        <time>2011-09-15T11:21:17Z</time>
      </trkpt>
      <trkpt lat="47.08148" lon="-0.7772">
        <ele>153.95</ele>
        <time>2011-09-15T11:21:24Z</time>
      </trkpt>
      <trkpt lat="47.08154" lon="-0.77707">
        <ele>153.95</ele>
        <time>2011-09-15T11:21:30Z</time>
      </trkpt>
      <trkpt lat="47.08159" lon="-0.77693">
        <ele>154.43</ele>
        <time>2011-09-15T11:21:37Z</time>
      </trkpt>
      <trkpt lat="47.08163" lon="-0.77678">
        <ele>153.95</ele>
        <time>2011-09-15T11:21:44Z</time>
      </trkpt>
      <trkpt lat="47.08167" lon="-0.77663">
        <ele>154.43</ele>
        <time>2011-09-15T11:21:51Z</time>
      </trkpt>
      <trkpt lat="47.08169" lon="-0.7765">
        <ele>153.95</ele>
        <time>2011-09-15T11:21:57Z</time>
      </trkpt>
      <trkpt lat="47.08173" lon="-0.77638">
        <ele>154.43</ele>
        <time>2011-09-15T11:22:03Z</time>
      </trkpt>
      <trkpt lat="47.08176" lon="-0.77625">
        <ele>154.91</ele>
        <time>2011-09-15T11:22:10Z</time>
      </trkpt>
      <trkpt lat="47.0818" lon="-0.77611">
        <ele>154.43</ele>
        <time>2011-09-15T11:22:16Z</time>
      </trkpt>
      <trkpt lat="47.08184" lon="-0.77599">
        <ele>154.91</ele>
        <time>2011-09-15T11:22:22Z</time>
      </trkpt>
      <trkpt lat="47.08187" lon="-0.77585">
        <ele>154.91</ele>
        <time>2011-09-15T11:22:29Z</time>
      </trkpt>
      <trkpt lat="47.08192" lon="-0.77571">
        <ele>155.39</ele>
        <time>2011-09-15T11:22:36Z</time>
      </trkpt>
      <trkpt lat="47.08196" lon="-0.77558">
        <ele>155.87</ele>
        <time>2011-09-15T11:22:43Z</time>
      </trkpt>
      <trkpt lat="47.082" lon="-0.77543">
        <ele>155.39</ele>
        <time>2011-09-15T11:22:50Z</time>
      </trkpt>
      <trkpt lat="47.08204" lon="-0.77529">
        <ele>155.87</ele>
        <time>2011-09-15T11:22:57Z</time>
      </trkpt>
      <trkpt lat="47.08207" lon="-0.77516">
        <ele>155.87</ele>
        <time>2011-09-15T11:23:04Z</time>
      </trkpt>
      <trkpt lat="47.0821" lon="-0.775">
        <ele>155.87</ele>
        <time>2011-09-15T11:23:12Z</time>
      </trkpt>
      <trkpt lat="47.08215" lon="-0.77486">
        <ele>156.35</ele>
        <time>2011-09-15T11:23:19Z</time>
      </trkpt>
      <trkpt lat="47.0822" lon="-0.77473">
        <ele>156.35</ele>
        <time>2011-09-15T11:23:26Z</time>
      </trkpt>
      <trkpt lat="47.08225" lon="-0.77458">
        <ele>156.35</ele>
        <time>2011-09-15T11:23:33Z</time>
      </trkpt>
      <trkpt lat="47.08231" lon="-0.77445">
        <ele>156.35</ele>
        <time>2011-09-15T11:23:39Z</time>
      </trkpt>
      <trkpt lat="47.08238" lon="-0.77432">
        <ele>156.35</ele>
        <time>2011-09-15T11:23:47Z</time>
      </trkpt>
      <trkpt lat="47.08245" lon="-0.77421">
        <ele>156.35</ele>
        <time>2011-09-15T11:23:54Z</time>
      </trkpt>
      <trkpt lat="47.08248" lon="-0.77409">
        <ele>156.35</ele>
        <time>2011-09-15T11:24:01Z</time>
      </trkpt>
      <trkpt lat="47.08252" lon="-0.77397">
        <ele>156.83</ele>
        <time>2011-09-15T11:24:07Z</time>
      </trkpt>
      <trkpt lat="47.08253" lon="-0.77382">
        <ele>157.31</ele>
        <time>2011-09-15T11:24:14Z</time>
      </trkpt>
      <trkpt lat="47.08258" lon="-0.77369">
        <ele>157.31</ele>
        <time>2011-09-15T11:24:21Z</time>
      </trkpt>
      <trkpt lat="47.08264" lon="-0.7736">
        <ele>157.31</ele>
        <time>2011-09-15T11:24:28Z</time>
      </trkpt>
      <trkpt lat="47.08269" lon="-0.77348">
        <ele>157.79</ele>
        <time>2011-09-15T11:24:35Z</time>
      </trkpt>
      <trkpt lat="47.08276" lon="-0.77335">
        <ele>158.27</ele>
        <time>2011-09-15T11:24:42Z</time>
      </trkpt>
      <trkpt lat="47.08285" lon="-0.77322">
        <ele>158.27</ele>
        <time>2011-09-15T11:24:49Z</time>
      </trkpt>
      <trkpt lat="47.08293" lon="-0.7731">
        <ele>158.27</ele>
        <time>2011-09-15T11:24:56Z</time>
      </trkpt>
      <trkpt lat="47.08297" lon="-0.77297">
        <ele>158.27</ele>
        <time>2011-09-15T11:25:03Z</time>
      </trkpt>
      <trkpt lat="47.08303" lon="-0.77284">
        <ele>158.27</ele>
        <time>2011-09-15T11:25:10Z</time>
      </trkpt>
      <trkpt lat="47.08309" lon="-0.77272">
        <ele>158.75</ele>
        <time>2011-09-15T11:25:17Z</time>
      </trkpt>
      <trkpt lat="47.08316" lon="-0.77261">
        <ele>158.75</ele>
        <time>2011-09-15T11:25:24Z</time>
      </trkpt>
      <trkpt lat="47.08321" lon="-0.77246">
        <ele>159.24</ele>
        <time>2011-09-15T11:25:31Z</time>
      </trkpt>
      <trkpt lat="47.08324" lon="-0.77233">
        <ele>159.24</ele>
        <time>2011-09-15T11:25:38Z</time>
      </trkpt>
      <trkpt lat="47.08326" lon="-0.77218">
        <ele>159.24</ele>
        <time>2011-09-15T11:25:46Z</time>
      </trkpt>
      <trkpt lat="47.0833" lon="-0.77204">
        <ele>159.72</ele>
        <time>2011-09-15T11:25:53Z</time>
      </trkpt>
      <trkpt lat="47.08329" lon="-0.77191">
        <ele>159.72</ele>
        <time>2011-09-15T11:25:59Z</time>
      </trkpt>
      <trkpt lat="47.08327" lon="-0.77174">
        <ele>160.2</ele>
        <time>2011-09-15T11:26:06Z</time>
      </trkpt>
      <trkpt lat="47.08326" lon="-0.7716">
        <ele>160.68</ele>
        <time>2011-09-15T11:26:13Z</time>
      </trkpt>
      <trkpt lat="47.08321" lon="-0.77147">
        <ele>160.68</ele>
        <time>2011-09-15T11:26:20Z</time>
      </trkpt>
      <trkpt lat="47.08317" lon="-0.77132">
        <ele>161.16</ele>
        <time>2011-09-15T11:26:28Z</time>
      </trkpt>
      <trkpt lat="47.08314" lon="-0.77118">
        <ele>161.16</ele>
        <time>2011-09-15T11:26:35Z</time>
      </trkpt>
      <trkpt lat="47.08311" lon="-0.77103">
        <ele>161.64</ele>
        <time>2011-09-15T11:26:42Z</time>
      </trkpt>
      <trkpt lat="47.08307" lon="-0.7709">
        <ele>161.64</ele>
        <time>2011-09-15T11:26:49Z</time>
      </trkpt>
      <trkpt lat="47.08306" lon="-0.77074">
        <ele>161.64</ele>
        <time>2011-09-15T11:26:56Z</time>
      </trkpt>
      <trkpt lat="47.08302" lon="-0.77059">
        <ele>161.64</ele>
        <time>2011-09-15T11:27:03Z</time>
      </trkpt>
      <trkpt lat="47.08298" lon="-0.77044">
        <ele>161.64</ele>
        <time>2011-09-15T11:27:10Z</time>
      </trkpt>
      <trkpt lat="47.083" lon="-0.77026">
        <ele>161.64</ele>
        <time>2011-09-15T11:27:17Z</time>
      </trkpt>
      <trkpt lat="47.08304" lon="-0.77011">
        <ele>162.12</ele>
        <time>2011-09-15T11:27:24Z</time>
      </trkpt>
      <trkpt lat="47.08305" lon="-0.76996">
        <ele>162.12</ele>
        <time>2011-09-15T11:27:31Z</time>
      </trkpt>
      <trkpt lat="47.08304" lon="-0.76981">
        <ele>162.12</ele>
        <time>2011-09-15T11:27:37Z</time>
      </trkpt>
      <trkpt lat="47.08307" lon="-0.76967">
        <ele>162.12</ele>
        <time>2011-09-15T11:27:43Z</time>
      </trkpt>
      <trkpt lat="47.08309" lon="-0.76951">
        <ele>162.12</ele>
        <time>2011-09-15T11:27:50Z</time>
      </trkpt>
      <trkpt lat="47.08312" lon="-0.76936">
        <ele>162.12</ele>
        <time>2011-09-15T11:27:57Z</time>
      </trkpt>
      <trkpt lat="47.08312" lon="-0.76921">
        <ele>162.6</ele>
        <time>2011-09-15T11:28:03Z</time>
      </trkpt>
      <trkpt lat="47.08315" lon="-0.76908">
        <ele>162.12</ele>
        <time>2011-09-15T11:28:09Z</time>
      </trkpt>
      <trkpt lat="47.0832" lon="-0.76893">
        <ele>162.12</ele>
        <time>2011-09-15T11:28:16Z</time>
      </trkpt>
      <trkpt lat="47.08324" lon="-0.76878">
        <ele>161.64</ele>
        <time>2011-09-15T11:28:23Z</time>
      </trkpt>
      <trkpt lat="47.08331" lon="-0.76867">
        <ele>162.12</ele>
        <time>2011-09-15T11:28:30Z</time>
      </trkpt>
      <trkpt lat="47.0834" lon="-0.76854">
        <ele>162.12</ele>
        <time>2011-09-15T11:28:38Z</time>
      </trkpt>
      <trkpt lat="47.08345" lon="-0.7684">
        <ele>162.12</ele>
        <time>2011-09-15T11:28:44Z</time>
      </trkpt>
      <trkpt lat="47.08348" lon="-0.76825">
        <ele>162.6</ele>
        <time>2011-09-15T11:28:50Z</time>
      </trkpt>
      <trkpt lat="47.08348" lon="-0.76811">
        <ele>162.6</ele>
        <time>2011-09-15T11:28:56Z</time>
      </trkpt>
      <trkpt lat="47.08345" lon="-0.76797">
        <ele>162.6</ele>
        <time>2011-09-15T11:29:03Z</time>
      </trkpt>
      <trkpt lat="47.08342" lon="-0.76782">
        <ele>162.6</ele>
        <time>2011-09-15T11:29:09Z</time>
      </trkpt>
      <trkpt lat="47.08342" lon="-0.76769">
        <ele>162.6</ele>
        <time>2011-09-15T11:29:15Z</time>
      </trkpt>
      <trkpt lat="47.08338" lon="-0.76754">
        <ele>163.08</ele>
        <time>2011-09-15T11:29:22Z</time>
      </trkpt>
      <trkpt lat="47.08334" lon="-0.7674">
        <ele>162.6</ele>
        <time>2011-09-15T11:29:29Z</time>
      </trkpt>
      <trkpt lat="47.08329" lon="-0.76726">
        <ele>163.08</ele>
        <time>2011-09-15T11:29:36Z</time>
      </trkpt>
      <trkpt lat="47.08326" lon="-0.76712">
        <ele>163.56</ele>
        <time>2011-09-15T11:29:42Z</time>
      </trkpt>
      <trkpt lat="47.08323" lon="-0.767">
        <ele>163.08</ele>
        <time>2011-09-15T11:29:48Z</time>
      </trkpt>
      <trkpt lat="47.08323" lon="-0.76684">
        <ele>163.08</ele>
        <time>2011-09-15T11:29:55Z</time>
      </trkpt>
      <trkpt lat="47.0832" lon="-0.76668">
        <ele>163.56</ele>
        <time>2011-09-15T11:30:02Z</time>
      </trkpt>
      <trkpt lat="47.08322" lon="-0.76654">
        <ele>163.56</ele>
        <time>2011-09-15T11:30:08Z</time>
      </trkpt>
      <trkpt lat="47.08323" lon="-0.76639">
        <ele>164.04</ele>
        <time>2011-09-15T11:30:14Z</time>
      </trkpt>
      <trkpt lat="47.08323" lon="-0.76625">
        <ele>164.04</ele>
        <time>2011-09-15T11:30:21Z</time>
      </trkpt>
      <trkpt lat="47.08325" lon="-0.76608">
        <ele>164.04</ele>
        <time>2011-09-15T11:30:28Z</time>
      </trkpt>
      <trkpt lat="47.08325" lon="-0.76595">
        <ele>164.04</ele>
        <time>2011-09-15T11:30:34Z</time>
      </trkpt>
      <trkpt lat="47.08329" lon="-0.76581">
        <ele>164.04</ele>
        <time>2011-09-15T11:30:40Z</time>
      </trkpt>
      <trkpt lat="47.08331" lon="-0.76568">
        <ele>164.04</ele>
        <time>2011-09-15T11:30:46Z</time>
      </trkpt>
      <trkpt lat="47.08331" lon="-0.76553">
        <ele>164.52</ele>
        <time>2011-09-15T11:30:53Z</time>
      </trkpt>
      <trkpt lat="47.08328" lon="-0.76536">
        <ele>165.48</ele>
        <time>2011-09-15T11:31:00Z</time>
      </trkpt>
      <trkpt lat="47.08326" lon="-0.76524">
        <ele>165.48</ele>
        <time>2011-09-15T11:31:06Z</time>
      </trkpt>
      <trkpt lat="47.08323" lon="-0.76511">
        <ele>165.48</ele>
        <time>2011-09-15T11:31:13Z</time>
      </trkpt>
      <trkpt lat="47.08321" lon="-0.76496">
        <ele>165.48</ele>
        <time>2011-09-15T11:31:20Z</time>
      </trkpt>
      <trkpt lat="47.08319" lon="-0.76481">
        <ele>165.48</ele>
        <time>2011-09-15T11:31:26Z</time>
      </trkpt>
      <trkpt lat="47.08318" lon="-0.76468">
        <ele>165.96</ele>
        <time>2011-09-15T11:31:32Z</time>
      </trkpt>
      <trkpt lat="47.08319" lon="-0.76453">
        <ele>166.45</ele>
        <time>2011-09-15T11:31:39Z</time>
      </trkpt>
      <trkpt lat="47.08319" lon="-0.76438">
        <ele>166.45</ele>
        <time>2011-09-15T11:31:46Z</time>
      </trkpt>
      <trkpt lat="47.08322" lon="-0.76424">
        <ele>167.41</ele>
        <time>2011-09-15T11:31:53Z</time>
      </trkpt>
      <trkpt lat="47.08326" lon="-0.7641">
        <ele>166.93</ele>
        <time>2011-09-15T11:32:01Z</time>
      </trkpt>
      <trkpt lat="47.08332" lon="-0.76395">
        <ele>167.89</ele>
        <time>2011-09-15T11:32:08Z</time>
      </trkpt>
      <trkpt lat="47.08331" lon="-0.76381">
        <ele>167.89</ele>
        <time>2011-09-15T11:32:15Z</time>
      </trkpt>
      <trkpt lat="47.0833" lon="-0.76364">
        <ele>167.89</ele>
        <time>2011-09-15T11:32:22Z</time>
      </trkpt>
      <trkpt lat="47.08327" lon="-0.7635">
        <ele>168.37</ele>
        <time>2011-09-15T11:32:29Z</time>
      </trkpt>
      <trkpt lat="47.08331" lon="-0.76336">
        <ele>168.37</ele>
        <time>2011-09-15T11:32:36Z</time>
      </trkpt>
      <trkpt lat="47.08335" lon="-0.76321">
        <ele>168.37</ele>
        <time>2011-09-15T11:32:43Z</time>
      </trkpt>
      <trkpt lat="47.08337" lon="-0.76307">
        <ele>168.85</ele>
        <time>2011-09-15T11:32:50Z</time>
      </trkpt>
      <trkpt lat="47.0834" lon="-0.76292">
        <ele>169.33</ele>
        <time>2011-09-15T11:32:57Z</time>
      </trkpt>
      <trkpt lat="47.08343" lon="-0.76277">
        <ele>169.33</ele>
        <time>2011-09-15T11:33:04Z</time>
      </trkpt>
      <trkpt lat="47.08345" lon="-0.76264">
        <ele>169.81</ele>
        <time>2011-09-15T11:33:11Z</time>
      </trkpt>
      <trkpt lat="47.08348" lon="-0.76249">
        <ele>169.81</ele>
        <time>2011-09-15T11:33:18Z</time>
      </trkpt>
      <trkpt lat="47.08349" lon="-0.76236">
        <ele>169.81</ele>
        <time>2011-09-15T11:33:24Z</time>
      </trkpt>
      <trkpt lat="47.08353" lon="-0.76221">
        <ele>169.81</ele>
        <time>2011-09-15T11:33:31Z</time>
      </trkpt>
      <trkpt lat="47.08357" lon="-0.76207">
        <ele>169.81</ele>
        <time>2011-09-15T11:33:38Z</time>
      </trkpt>
      <trkpt lat="47.0836" lon="-0.76194">
        <ele>169.81</ele>
        <time>2011-09-15T11:33:45Z</time>
      </trkpt>
      <trkpt lat="47.08363" lon="-0.76179">
        <ele>169.81</ele>
        <time>2011-09-15T11:33:53Z</time>
      </trkpt>
      <trkpt lat="47.08366" lon="-0.76165">
        <ele>169.81</ele>
        <time>2011-09-15T11:34:00Z</time>
      </trkpt>
      <trkpt lat="47.08369" lon="-0.76151">
        <ele>169.33</ele>
        <time>2011-09-15T11:34:06Z</time>
      </trkpt>
      <trkpt lat="47.08373" lon="-0.76137">
        <ele>169.81</ele>
        <time>2011-09-15T11:34:13Z</time>
      </trkpt>
      <trkpt lat="47.08379" lon="-0.76124">
        <ele>169.33</ele>
        <time>2011-09-15T11:34:19Z</time>
      </trkpt>
      <trkpt lat="47.08384" lon="-0.76111">
        <ele>169.81</ele>
        <time>2011-09-15T11:34:26Z</time>
      </trkpt>
      <trkpt lat="47.08388" lon="-0.76099">
        <ele>169.81</ele>
        <time>2011-09-15T11:34:32Z</time>
      </trkpt>
      <trkpt lat="47.08395" lon="-0.76087">
        <ele>169.33</ele>
        <time>2011-09-15T11:34:38Z</time>
      </trkpt>
      <trkpt lat="47.08401" lon="-0.76077">
        <ele>169.33</ele>
        <time>2011-09-15T11:34:43Z</time>
      </trkpt>
      <trkpt lat="47.08404" lon="-0.76066">
        <ele>169.33</ele>
        <time>2011-09-15T11:34:49Z</time>
      </trkpt>
      <trkpt lat="47.08408" lon="-0.76054">
        <ele>169.33</ele>
        <time>2011-09-15T11:34:55Z</time>
      </trkpt>
      <trkpt lat="47.08413" lon="-0.76041">
        <ele>169.81</ele>
        <time>2011-09-15T11:35:02Z</time>
      </trkpt>
      <trkpt lat="47.08414" lon="-0.76025">
        <ele>169.33</ele>
        <time>2011-09-15T11:35:10Z</time>
      </trkpt>
      <trkpt lat="47.08417" lon="-0.76011">
        <ele>169.81</ele>
        <time>2011-09-15T11:35:17Z</time>
      </trkpt>
      <trkpt lat="47.08427" lon="-0.75997">
        <ele>169.81</ele>
        <time>2011-09-15T11:35:24Z</time>
      </trkpt>
      <trkpt lat="47.08437" lon="-0.75986">
        <ele>169.33</ele>
        <time>2011-09-15T11:35:31Z</time>
      </trkpt>
      <trkpt lat="47.08445" lon="-0.75974">
        <ele>169.33</ele>
        <time>2011-09-15T11:35:38Z</time>
      </trkpt>
      <trkpt lat="47.08455" lon="-0.75964">
        <ele>169.33</ele>
        <time>2011-09-15T11:35:44Z</time>
      </trkpt>
      <trkpt lat="47.08463" lon="-0.75954">
        <ele>169.33</ele>
        <time>2011-09-15T11:35:51Z</time>
      </trkpt>
      <trkpt lat="47.08469" lon="-0.75944">
        <ele>168.85</ele>
        <time>2011-09-15T11:35:58Z</time>
      </trkpt>
      <trkpt lat="47.08477" lon="-0.75936">
        <ele>168.85</ele>
        <time>2011-09-15T11:36:05Z</time>
      </trkpt>
      <trkpt lat="47.08486" lon="-0.75925">
        <ele>168.85</ele>
        <time>2011-09-15T11:36:13Z</time>
      </trkpt>
      <trkpt lat="47.08492" lon="-0.75913">
        <ele>168.37</ele>
        <time>2011-09-15T11:36:20Z</time>
      </trkpt>
      <trkpt lat="47.08498" lon="-0.75902">
        <ele>168.85</ele>
        <time>2011-09-15T11:36:28Z</time>
      </trkpt>
      <trkpt lat="47.08505" lon="-0.75892">
        <ele>168.37</ele>
        <time>2011-09-15T11:36:35Z</time>
      </trkpt>
      <trkpt lat="47.08509" lon="-0.75879">
        <ele>168.37</ele>
        <time>2011-09-15T11:36:41Z</time>
      </trkpt>
      <trkpt lat="47.08517" lon="-0.75867">
        <ele>168.37</ele>
        <time>2011-09-15T11:36:49Z</time>
      </trkpt>
      <trkpt lat="47.08524" lon="-0.75854">
        <ele>168.85</ele>
        <time>2011-09-15T11:36:59Z</time>
      </trkpt>
      <trkpt lat="47.08531" lon="-0.7584">
        <ele>169.33</ele>
        <time>2011-09-15T11:37:07Z</time>
      </trkpt>
      <trkpt lat="47.08541" lon="-0.75828">
        <ele>169.33</ele>
        <time>2011-09-15T11:37:13Z</time>
      </trkpt>
      <trkpt lat="47.0855" lon="-0.75819">
        <ele>169.81</ele>
        <time>2011-09-15T11:37:20Z</time>
      </trkpt>
      <trkpt lat="47.08557" lon="-0.75808">
        <ele>169.81</ele>
        <time>2011-09-15T11:37:27Z</time>
      </trkpt>
      <trkpt lat="47.08564" lon="-0.75794">
        <ele>169.81</ele>
        <time>2011-09-15T11:37:34Z</time>
      </trkpt>
      <trkpt lat="47.08571" lon="-0.75784">
        <ele>170.29</ele>
        <time>2011-09-15T11:37:40Z</time>
      </trkpt>
      <trkpt lat="47.08578" lon="-0.75776">
        <ele>170.29</ele>
        <time>2011-09-15T11:37:46Z</time>
      </trkpt>
      <trkpt lat="47.08585" lon="-0.75768">
        <ele>170.29</ele>
        <time>2011-09-15T11:37:53Z</time>
      </trkpt>
      <trkpt lat="47.08594" lon="-0.75762">
        <ele>170.29</ele>
        <time>2011-09-15T11:37:58Z</time>
      </trkpt>
      <trkpt lat="47.08599" lon="-0.75753">
        <ele>170.29</ele>
        <time>2011-09-15T11:38:04Z</time>
      </trkpt>
      <trkpt lat="47.08606" lon="-0.75745">
        <ele>170.77</ele>
        <time>2011-09-15T11:38:10Z</time>
      </trkpt>
      <trkpt lat="47.08613" lon="-0.75733">
        <ele>170.77</ele>
        <time>2011-09-15T11:38:18Z</time>
      </trkpt>
      <trkpt lat="47.08618" lon="-0.7572">
        <ele>171.25</ele>
        <time>2011-09-15T11:38:25Z</time>
      </trkpt>
      <trkpt lat="47.08618" lon="-0.75707">
        <ele>171.25</ele>
        <time>2011-09-15T11:38:32Z</time>
      </trkpt>
      <trkpt lat="47.08624" lon="-0.75692">
        <ele>170.77</ele>
        <time>2011-09-15T11:38:41Z</time>
      </trkpt>
      <trkpt lat="47.0863" lon="-0.75677">
        <ele>170.77</ele>
        <time>2011-09-15T11:38:48Z</time>
      </trkpt>
      <trkpt lat="47.08632" lon="-0.75662">
        <ele>171.73</ele>
        <time>2011-09-15T11:38:55Z</time>
      </trkpt>
      <trkpt lat="47.08636" lon="-0.75647">
        <ele>171.25</ele>
        <time>2011-09-15T11:39:02Z</time>
      </trkpt>
      <trkpt lat="47.08639" lon="-0.75632">
        <ele>172.21</ele>
        <time>2011-09-15T11:39:09Z</time>
      </trkpt>
      <trkpt lat="47.0864" lon="-0.75619">
        <ele>172.21</ele>
        <time>2011-09-15T11:39:16Z</time>
      </trkpt>
      <trkpt lat="47.08638" lon="-0.75605">
        <ele>171.73</ele>
        <time>2011-09-15T11:39:23Z</time>
      </trkpt>
      <trkpt lat="47.08638" lon="-0.75588">
        <ele>172.21</ele>
        <time>2011-09-15T11:39:31Z</time>
      </trkpt>
      <trkpt lat="47.08635" lon="-0.75574">
        <ele>172.21</ele>
        <time>2011-09-15T11:39:38Z</time>
      </trkpt>
      <trkpt lat="47.08632" lon="-0.7556">
        <ele>172.69</ele>
        <time>2011-09-15T11:39:45Z</time>
      </trkpt>
      <trkpt lat="47.08628" lon="-0.75545">
        <ele>172.69</ele>
        <time>2011-09-15T11:39:52Z</time>
      </trkpt>
      <trkpt lat="47.08625" lon="-0.75532">
        <ele>172.69</ele>
        <time>2011-09-15T11:39:59Z</time>
      </trkpt>
      <trkpt lat="47.08622" lon="-0.75519">
        <ele>173.17</ele>
        <time>2011-09-15T11:40:06Z</time>
      </trkpt>
      <trkpt lat="47.08619" lon="-0.75505">
        <ele>173.17</ele>
        <time>2011-09-15T11:40:12Z</time>
      </trkpt>
      <trkpt lat="47.08615" lon="-0.75492">
        <ele>172.69</ele>
        <time>2011-09-15T11:40:19Z</time>
      </trkpt>
      <trkpt lat="47.08612" lon="-0.75479">
        <ele>172.69</ele>
        <time>2011-09-15T11:40:25Z</time>
      </trkpt>
      <trkpt lat="47.0861" lon="-0.75465">
        <ele>173.17</ele>
        <time>2011-09-15T11:40:32Z</time>
      </trkpt>
      <trkpt lat="47.08604" lon="-0.7545">
        <ele>173.17</ele>
        <time>2011-09-15T11:40:40Z</time>
      </trkpt>
      <trkpt lat="47.08602" lon="-0.75434">
        <ele>173.17</ele>
        <time>2011-09-15T11:40:48Z</time>
      </trkpt>
      <trkpt lat="47.08599" lon="-0.75417">
        <ele>173.17</ele>
        <time>2011-09-15T11:40:56Z</time>
      </trkpt>
      <trkpt lat="47.08596" lon="-0.75401">
        <ele>173.17</ele>
        <time>2011-09-15T11:41:04Z</time>
      </trkpt>
      <trkpt lat="47.08593" lon="-0.75386">
        <ele>172.69</ele>
        <time>2011-09-15T11:41:12Z</time>
      </trkpt>
      <trkpt lat="47.08589" lon="-0.75367">
        <ele>173.17</ele>
        <time>2011-09-15T11:41:21Z</time>
      </trkpt>
      <trkpt lat="47.08587" lon="-0.75351">
        <ele>172.69</ele>
        <time>2011-09-15T11:41:28Z</time>
      </trkpt>
      <trkpt lat="47.08583" lon="-0.75337">
        <ele>172.69</ele>
        <time>2011-09-15T11:41:34Z</time>
      </trkpt>
      <trkpt lat="47.0858" lon="-0.75322">
        <ele>172.69</ele>
        <time>2011-09-15T11:41:40Z</time>
      </trkpt>
      <trkpt lat="47.08576" lon="-0.75307">
        <ele>172.21</ele>
        <time>2011-09-15T11:41:48Z</time>
      </trkpt>
      <trkpt lat="47.08572" lon="-0.75293">
        <ele>172.21</ele>
        <time>2011-09-15T11:41:55Z</time>
      </trkpt>
      <trkpt lat="47.08568" lon="-0.75279">
        <ele>171.73</ele>
        <time>2011-09-15T11:42:03Z</time>
      </trkpt>
      <trkpt lat="47.08563" lon="-0.75264">
        <ele>171.73</ele>
        <time>2011-09-15T11:42:10Z</time>
      </trkpt>
      <trkpt lat="47.08557" lon="-0.7525">
        <ele>171.25</ele>
        <time>2011-09-15T11:42:17Z</time>
      </trkpt>
      <trkpt lat="47.08551" lon="-0.75237">
        <ele>171.25</ele>
        <time>2011-09-15T11:42:24Z</time>
      </trkpt>
      <trkpt lat="47.08545" lon="-0.75224">
        <ele>170.77</ele>
        <time>2011-09-15T11:42:30Z</time>
      </trkpt>
      <trkpt lat="47.0854" lon="-0.75211">
        <ele>170.77</ele>
        <time>2011-09-15T11:42:37Z</time>
      </trkpt>
      <trkpt lat="47.08532" lon="-0.75198">
        <ele>170.77</ele>
        <time>2011-09-15T11:42:44Z</time>
      </trkpt>
      <trkpt lat="47.08526" lon="-0.75185">
        <ele>170.29</ele>
        <time>2011-09-15T11:43:16Z</time>
      </trkpt>
      <trkpt lat="47.08519" lon="-0.75173">
        <ele>170.29</ele>
        <time>2011-09-15T11:43:25Z</time>
      </trkpt>
      <trkpt lat="47.08511" lon="-0.75159">
        <ele>170.29</ele>
        <time>2011-09-15T11:43:33Z</time>
      </trkpt>
      <trkpt lat="47.08505" lon="-0.75146">
        <ele>169.81</ele>
        <time>2011-09-15T11:43:40Z</time>
      </trkpt>
      <trkpt lat="47.08498" lon="-0.75133">
        <ele>169.33</ele>
        <time>2011-09-15T11:43:48Z</time>
      </trkpt>
      <trkpt lat="47.08493" lon="-0.75119">
        <ele>169.81</ele>
        <time>2011-09-15T11:43:55Z</time>
      </trkpt>
      <trkpt lat="47.08487" lon="-0.75108">
        <ele>170.77</ele>
        <time>2011-09-15T11:44:11Z</time>
      </trkpt>
      <trkpt lat="47.08481" lon="-0.75094">
        <ele>169.33</ele>
        <time>2011-09-15T11:44:18Z</time>
      </trkpt>
      <trkpt lat="47.08475" lon="-0.75081">
        <ele>169.33</ele>
        <time>2011-09-15T11:44:25Z</time>
      </trkpt>
      <trkpt lat="47.08469" lon="-0.75068">
        <ele>169.33</ele>
        <time>2011-09-15T11:44:34Z</time>
      </trkpt>
      <trkpt lat="47.08461" lon="-0.75055">
        <ele>168.85</ele>
        <time>2011-09-15T11:44:43Z</time>
      </trkpt>
      <trkpt lat="47.08453" lon="-0.75041">
        <ele>168.85</ele>
        <time>2011-09-15T11:44:51Z</time>
      </trkpt>
      <trkpt lat="47.08449" lon="-0.75027">
        <ele>168.85</ele>
        <time>2011-09-15T11:44:57Z</time>
      </trkpt>
      <trkpt lat="47.08442" lon="-0.75015">
        <ele>168.37</ele>
        <time>2011-09-15T11:45:04Z</time>
      </trkpt>
      <trkpt lat="47.08437" lon="-0.75002">
        <ele>168.37</ele>
        <time>2011-09-15T11:45:10Z</time>
      </trkpt>
      <trkpt lat="47.08431" lon="-0.7499">
        <ele>168.85</ele>
        <time>2011-09-15T11:45:17Z</time>
      </trkpt>
      <trkpt lat="47.08425" lon="-0.74977">
        <ele>168.37</ele>
        <time>2011-09-15T11:45:25Z</time>
      </trkpt>
      <trkpt lat="47.08417" lon="-0.74964">
        <ele>168.37</ele>
        <time>2011-09-15T11:45:32Z</time>
      </trkpt>
      <trkpt lat="47.08411" lon="-0.74951">
        <ele>168.85</ele>
        <time>2011-09-15T11:45:39Z</time>
      </trkpt>
      <trkpt lat="47.08405" lon="-0.74938">
        <ele>168.37</ele>
        <time>2011-09-15T11:45:47Z</time>
      </trkpt>
      <trkpt lat="47.08397" lon="-0.74925">
        <ele>167.89</ele>
        <time>2011-09-15T11:45:54Z</time>
      </trkpt>
      <trkpt lat="47.08388" lon="-0.7491">
        <ele>167.89</ele>
        <time>2011-09-15T11:46:02Z</time>
      </trkpt>
      <trkpt lat="47.0838" lon="-0.74897">
        <ele>167.41</ele>
        <time>2011-09-15T11:46:09Z</time>
      </trkpt>
      <trkpt lat="47.08374" lon="-0.74882">
        <ele>167.41</ele>
        <time>2011-09-15T11:46:18Z</time>
      </trkpt>
      <trkpt lat="47.08367" lon="-0.74867">
        <ele>167.89</ele>
        <time>2011-09-15T11:46:25Z</time>
      </trkpt>
      <trkpt lat="47.08362" lon="-0.74853">
        <ele>167.89</ele>
        <time>2011-09-15T11:46:32Z</time>
      </trkpt>
      <trkpt lat="47.08355" lon="-0.74839">
        <ele>167.89</ele>
        <time>2011-09-15T11:46:39Z</time>
      </trkpt>
      <trkpt lat="47.08348" lon="-0.74827">
        <ele>167.89</ele>
        <time>2011-09-15T11:46:46Z</time>
      </trkpt>
      <trkpt lat="47.08342" lon="-0.74811">
        <ele>167.89</ele>
        <time>2011-09-15T11:46:54Z</time>
      </trkpt>
      <trkpt lat="47.08337" lon="-0.74797">
        <ele>167.89</ele>
        <time>2011-09-15T11:47:01Z</time>
      </trkpt>
      <trkpt lat="47.08333" lon="-0.74783">
        <ele>168.37</ele>
        <time>2011-09-15T11:47:08Z</time>
      </trkpt>
      <trkpt lat="47.08328" lon="-0.74767">
        <ele>167.89</ele>
        <time>2011-09-15T11:47:16Z</time>
      </trkpt>
      <trkpt lat="47.08324" lon="-0.74751">
        <ele>167.89</ele>
        <time>2011-09-15T11:47:23Z</time>
      </trkpt>
      <trkpt lat="47.08318" lon="-0.74736">
        <ele>168.37</ele>
        <time>2011-09-15T11:47:30Z</time>
      </trkpt>
      <trkpt lat="47.08312" lon="-0.74722">
        <ele>168.37</ele>
        <time>2011-09-15T11:47:37Z</time>
      </trkpt>
      <trkpt lat="47.08307" lon="-0.74705">
        <ele>168.37</ele>
        <time>2011-09-15T11:47:45Z</time>
      </trkpt>
      <trkpt lat="47.08303" lon="-0.74689">
        <ele>168.37</ele>
        <time>2011-09-15T11:47:54Z</time>
      </trkpt>
      <trkpt lat="47.08299" lon="-0.74673">
        <ele>168.37</ele>
        <time>2011-09-15T11:48:02Z</time>
      </trkpt>
      <trkpt lat="47.08294" lon="-0.74657">
        <ele>168.37</ele>
        <time>2011-09-15T11:48:13Z</time>
      </trkpt>
      <trkpt lat="47.08289" lon="-0.74638">
        <ele>168.85</ele>
        <time>2011-09-15T11:48:22Z</time>
      </trkpt>
      <trkpt lat="47.08285" lon="-0.74622">
        <ele>169.33</ele>
        <time>2011-09-15T11:48:30Z</time>
      </trkpt>
      <trkpt lat="47.0828" lon="-0.74607">
        <ele>169.33</ele>
        <time>2011-09-15T11:48:38Z</time>
      </trkpt>
      <trkpt lat="47.08277" lon="-0.74594">
        <ele>169.81</ele>
        <time>2011-09-15T11:48:44Z</time>
      </trkpt>
      <trkpt lat="47.0827" lon="-0.74581">
        <ele>169.33</ele>
        <time>2011-09-15T11:48:51Z</time>
      </trkpt>
      <trkpt lat="47.08264" lon="-0.74563">
        <ele>169.33</ele>
        <time>2011-09-15T11:49:01Z</time>
      </trkpt>
      <trkpt lat="47.08258" lon="-0.74551">
        <ele>169.81</ele>
        <time>2011-09-15T11:49:11Z</time>
      </trkpt>
      <trkpt lat="47.08255" lon="-0.74535">
        <ele>169.81</ele>
        <time>2011-09-15T11:49:21Z</time>
      </trkpt>
      <trkpt lat="47.0825" lon="-0.74518">
        <ele>169.81</ele>
        <time>2011-09-15T11:49:30Z</time>
      </trkpt>
      <trkpt lat="47.08246" lon="-0.74502">
        <ele>170.29</ele>
        <time>2011-09-15T11:49:37Z</time>
      </trkpt>
      <trkpt lat="47.08242" lon="-0.74488">
        <ele>170.29</ele>
        <time>2011-09-15T11:49:45Z</time>
      </trkpt>
      <trkpt lat="47.08236" lon="-0.74472">
        <ele>170.77</ele>
        <time>2011-09-15T11:49:54Z</time>
      </trkpt>
      <trkpt lat="47.08232" lon="-0.74457">
        <ele>170.77</ele>
        <time>2011-09-15T11:50:03Z</time>
      </trkpt>
      <trkpt lat="47.08228" lon="-0.74436">
        <ele>171.25</ele>
        <time>2011-09-15T11:50:11Z</time>
      </trkpt>
      <trkpt lat="47.08226" lon="-0.74421">
        <ele>171.25</ele>
        <time>2011-09-15T11:50:19Z</time>
      </trkpt>
      <trkpt lat="47.08221" lon="-0.74404">
        <ele>171.25</ele>
        <time>2011-09-15T11:50:28Z</time>
      </trkpt>
      <trkpt lat="47.08217" lon="-0.74389">
        <ele>171.73</ele>
        <time>2011-09-15T11:50:36Z</time>
      </trkpt>
      <trkpt lat="47.0821" lon="-0.7437">
        <ele>171.73</ele>
        <time>2011-09-15T11:50:45Z</time>
      </trkpt>
      <trkpt lat="47.08203" lon="-0.74356">
        <ele>172.21</ele>
        <time>2011-09-15T11:50:52Z</time>
      </trkpt>
      <trkpt lat="47.08195" lon="-0.74341">
        <ele>172.21</ele>
        <time>2011-09-15T11:51:01Z</time>
      </trkpt>
      <trkpt lat="47.08189" lon="-0.74328">
        <ele>172.69</ele>
        <time>2011-09-15T11:51:10Z</time>
      </trkpt>
      <trkpt lat="47.08182" lon="-0.74315">
        <ele>172.21</ele>
        <time>2011-09-15T11:51:20Z</time>
      </trkpt>
      <trkpt lat="47.08174" lon="-0.743">
        <ele>172.21</ele>
        <time>2011-09-15T11:51:30Z</time>
      </trkpt>
      <trkpt lat="47.08165" lon="-0.74285">
        <ele>171.73</ele>
        <time>2011-09-15T11:51:38Z</time>
      </trkpt>
      <trkpt lat="47.08156" lon="-0.74275">
        <ele>172.21</ele>
        <time>2011-09-15T11:51:45Z</time>
      </trkpt>
      <trkpt lat="47.08144" lon="-0.74262">
        <ele>172.21</ele>
        <time>2011-09-15T11:51:53Z</time>
      </trkpt>
      <trkpt lat="47.08135" lon="-0.74248">
        <ele>171.73</ele>
        <time>2011-09-15T11:52:02Z</time>
      </trkpt>
      <trkpt lat="47.08127" lon="-0.74232">
        <ele>171.73</ele>
        <time>2011-09-15T11:52:11Z</time>
      </trkpt>
      <trkpt lat="47.0812" lon="-0.74217">
        <ele>171.25</ele>
        <time>2011-09-15T11:52:18Z</time>
      </trkpt>
      <trkpt lat="47.08114" lon="-0.74203">
        <ele>171.25</ele>
        <time>2011-09-15T11:52:26Z</time>
      </trkpt>
      <trkpt lat="47.08109" lon="-0.74189">
        <ele>171.25</ele>
        <time>2011-09-15T11:52:33Z</time>
      </trkpt>
      <trkpt lat="47.08105" lon="-0.74173">
        <ele>171.25</ele>
        <time>2011-09-15T11:52:40Z</time>
      </trkpt>
      <trkpt lat="47.08099" lon="-0.74158">
        <ele>170.77</ele>
        <time>2011-09-15T11:52:47Z</time>
      </trkpt>
      <trkpt lat="47.08094" lon="-0.74146">
        <ele>171.25</ele>
        <time>2011-09-15T11:52:54Z</time>
      </trkpt>
      <trkpt lat="47.08088" lon="-0.74134">
        <ele>170.77</ele>
        <time>2011-09-15T11:53:02Z</time>
      </trkpt>
      <trkpt lat="47.08081" lon="-0.74118">
        <ele>170.29</ele>
        <time>2011-09-15T11:53:09Z</time>
      </trkpt>
      <trkpt lat="47.08075" lon="-0.74104">
        <ele>170.29</ele>
        <time>2011-09-15T11:53:16Z</time>
      </trkpt>
      <trkpt lat="47.08069" lon="-0.7409">
        <ele>169.81</ele>
        <time>2011-09-15T11:53:23Z</time>
      </trkpt>
      <trkpt lat="47.08063" lon="-0.74077">
        <ele>169.81</ele>
        <time>2011-09-15T11:53:29Z</time>
      </trkpt>
      <trkpt lat="47.08057" lon="-0.74065">
        <ele>170.29</ele>
        <time>2011-09-15T11:53:35Z</time>
      </trkpt>
      <trkpt lat="47.08051" lon="-0.74054">
        <ele>170.29</ele>
        <time>2011-09-15T11:53:42Z</time>
      </trkpt>
      <trkpt lat="47.08045" lon="-0.74043">
        <ele>170.29</ele>
        <time>2011-09-15T11:53:49Z</time>
      </trkpt>
      <trkpt lat="47.08037" lon="-0.74032">
        <ele>170.29</ele>
        <time>2011-09-15T11:53:57Z</time>
      </trkpt>
      <trkpt lat="47.08029" lon="-0.74022">
        <ele>169.81</ele>
        <time>2011-09-15T11:54:05Z</time>
      </trkpt>
      <trkpt lat="47.0802" lon="-0.74011">
        <ele>170.29</ele>
        <time>2011-09-15T11:54:12Z</time>
      </trkpt>
      <trkpt lat="47.08013" lon="-0.74001">
        <ele>170.29</ele>
        <time>2011-09-15T11:54:20Z</time>
      </trkpt>
      <trkpt lat="47.08005" lon="-0.73994">
        <ele>170.29</ele>
        <time>2011-09-15T11:54:27Z</time>
      </trkpt>
      <trkpt lat="47.07996" lon="-0.73987">
        <ele>170.29</ele>
        <time>2011-09-15T11:54:34Z</time>
      </trkpt>
      <trkpt lat="47.07988" lon="-0.73977">
        <ele>170.77</ele>
        <time>2011-09-15T11:54:43Z</time>
      </trkpt>
      <trkpt lat="47.0798" lon="-0.73968">
        <ele>170.77</ele>
        <time>2011-09-15T11:54:50Z</time>
      </trkpt>
      <trkpt lat="47.07971" lon="-0.7396">
        <ele>171.25</ele>
        <time>2011-09-15T11:54:56Z</time>
      </trkpt>
      <trkpt lat="47.07963" lon="-0.73952">
        <ele>171.25</ele>
        <time>2011-09-15T11:55:03Z</time>
      </trkpt>
      <trkpt lat="47.07954" lon="-0.73941">
        <ele>171.25</ele>
        <time>2011-09-15T11:55:11Z</time>
      </trkpt>
      <trkpt lat="47.07941" lon="-0.7393">
        <ele>171.25</ele>
        <time>2011-09-15T11:55:20Z</time>
      </trkpt>
      <trkpt lat="47.07931" lon="-0.73918">
        <ele>172.21</ele>
        <time>2011-09-15T11:55:29Z</time>
      </trkpt>
      <trkpt lat="47.0792" lon="-0.73907">
        <ele>171.73</ele>
        <time>2011-09-15T11:55:35Z</time>
      </trkpt>
      <trkpt lat="47.07911" lon="-0.73897">
        <ele>172.69</ele>
        <time>2011-09-15T11:55:42Z</time>
      </trkpt>
      <trkpt lat="47.07903" lon="-0.73889">
        <ele>172.69</ele>
        <time>2011-09-15T11:55:50Z</time>
      </trkpt>
      <trkpt lat="47.07894" lon="-0.73878">
        <ele>171.73</ele>
        <time>2011-09-15T11:55:59Z</time>
      </trkpt>
      <trkpt lat="47.07884" lon="-0.73872">
        <ele>172.69</ele>
        <time>2011-09-15T11:56:55Z</time>
      </trkpt>
      <trkpt lat="47.07874" lon="-0.7386">
        <ele>172.69</ele>
        <time>2011-09-15T11:57:02Z</time>
      </trkpt>
      <trkpt lat="47.07864" lon="-0.73848">
        <ele>172.21</ele>
        <time>2011-09-15T11:57:12Z</time>
      </trkpt>
      <trkpt lat="47.07853" lon="-0.73837">
        <ele>172.69</ele>
        <time>2011-09-15T11:57:20Z</time>
      </trkpt>
      <trkpt lat="47.07846" lon="-0.73825">
        <ele>172.69</ele>
        <time>2011-09-15T11:57:27Z</time>
      </trkpt>
      <trkpt lat="47.07839" lon="-0.73812">
        <ele>172.69</ele>
        <time>2011-09-15T11:57:34Z</time>
      </trkpt>
      <trkpt lat="47.0783" lon="-0.73801">
        <ele>173.17</ele>
        <time>2011-09-15T11:57:41Z</time>
      </trkpt>
      <trkpt lat="47.07823" lon="-0.7379">
        <ele>172.69</ele>
        <time>2011-09-15T11:57:48Z</time>
      </trkpt>
      <trkpt lat="47.07817" lon="-0.73778">
        <ele>172.21</ele>
        <time>2011-09-15T11:57:56Z</time>
      </trkpt>
      <trkpt lat="47.07811" lon="-0.73766">
        <ele>171.73</ele>
        <time>2011-09-15T11:58:04Z</time>
      </trkpt>
      <trkpt lat="47.07806" lon="-0.73754">
        <ele>171.73</ele>
        <time>2011-09-15T11:58:11Z</time>
      </trkpt>
      <trkpt lat="47.07801" lon="-0.7374">
        <ele>172.21</ele>
        <time>2011-09-15T11:58:19Z</time>
      </trkpt>
      <trkpt lat="47.07792" lon="-0.73727">
        <ele>172.21</ele>
        <time>2011-09-15T11:58:26Z</time>
      </trkpt>
      <trkpt lat="47.07787" lon="-0.73715">
        <ele>172.69</ele>
        <time>2011-09-15T11:58:34Z</time>
      </trkpt>
      <trkpt lat="47.07783" lon="-0.73702">
        <ele>172.69</ele>
        <time>2011-09-15T11:58:42Z</time>
      </trkpt>
      <trkpt lat="47.07778" lon="-0.73688">
        <ele>172.21</ele>
        <time>2011-09-15T11:58:49Z</time>
      </trkpt>
      <trkpt lat="47.07772" lon="-0.73675">
        <ele>172.21</ele>
        <time>2011-09-15T11:58:56Z</time>
      </trkpt>
      <trkpt lat="47.07766" lon="-0.73662">
        <ele>172.69</ele>
        <time>2011-09-15T11:59:03Z</time>
      </trkpt>
      <trkpt lat="47.0776" lon="-0.73652">
        <ele>172.69</ele>
        <time>2011-09-15T11:59:08Z</time>
      </trkpt>
      <trkpt lat="47.07754" lon="-0.73639">
        <ele>172.69</ele>
        <time>2011-09-15T11:59:17Z</time>
      </trkpt>
      <trkpt lat="47.07744" lon="-0.73627">
        <ele>172.21</ele>
        <time>2011-09-15T11:59:24Z</time>
      </trkpt>
      <trkpt lat="47.07736" lon="-0.73614">
        <ele>172.21</ele>
        <time>2011-09-15T11:59:32Z</time>
      </trkpt>
      <trkpt lat="47.07731" lon="-0.73599">
        <ele>172.69</ele>
        <time>2011-09-15T11:59:40Z</time>
      </trkpt>
      <trkpt lat="47.07726" lon="-0.73585">
        <ele>172.69</ele>
        <time>2011-09-15T11:59:47Z</time>
      </trkpt>
      <trkpt lat="47.07719" lon="-0.73572">
        <ele>172.21</ele>
        <time>2011-09-15T11:59:54Z</time>
      </trkpt>
      <trkpt lat="47.07709" lon="-0.73561">
        <ele>171.73</ele>
        <time>2011-09-15T12:00:02Z</time>
      </trkpt>
      <trkpt lat="47.07702" lon="-0.73549">
        <ele>172.21</ele>
        <time>2011-09-15T12:00:11Z</time>
      </trkpt>
      <trkpt lat="47.07694" lon="-0.73534">
        <ele>172.21</ele>
        <time>2011-09-15T12:00:19Z</time>
      </trkpt>
      <trkpt lat="47.07684" lon="-0.7352">
        <ele>171.73</ele>
        <time>2011-09-15T12:00:27Z</time>
      </trkpt>
      <trkpt lat="47.07677" lon="-0.73505">
        <ele>172.21</ele>
        <time>2011-09-15T12:00:36Z</time>
      </trkpt>
      <trkpt lat="47.07671" lon="-0.7349">
        <ele>172.21</ele>
        <time>2011-09-15T12:00:45Z</time>
      </trkpt>
      <trkpt lat="47.07662" lon="-0.73477">
        <ele>172.21</ele>
        <time>2011-09-15T12:00:53Z</time>
      </trkpt>
      <trkpt lat="47.07653" lon="-0.73463">
        <ele>172.21</ele>
        <time>2011-09-15T12:01:01Z</time>
      </trkpt>
      <trkpt lat="47.07645" lon="-0.73453">
        <ele>171.73</ele>
        <time>2011-09-15T12:01:07Z</time>
      </trkpt>
      <trkpt lat="47.0764" lon="-0.73441">
        <ele>172.21</ele>
        <time>2011-09-15T12:01:16Z</time>
      </trkpt>
      <trkpt lat="47.07622" lon="-0.73413">
        <ele>171.25</ele>
        <time>2011-09-15T12:01:34Z</time>
      </trkpt>
      <trkpt lat="47.07614" lon="-0.73394">
        <ele>171.25</ele>
        <time>2011-09-15T12:01:43Z</time>
      </trkpt>
      <trkpt lat="47.07605" lon="-0.73379">
        <ele>170.77</ele>
        <time>2011-09-15T12:01:52Z</time>
      </trkpt>
      <trkpt lat="47.07591" lon="-0.73369">
        <ele>170.77</ele>
        <time>2011-09-15T12:02:02Z</time>
      </trkpt>
      <trkpt lat="47.07582" lon="-0.73352">
        <ele>170.29</ele>
        <time>2011-09-15T12:02:14Z</time>
      </trkpt>
      <trkpt lat="47.07569" lon="-0.73335">
        <ele>169.81</ele>
        <time>2011-09-15T12:02:25Z</time>
      </trkpt>
      <trkpt lat="47.07558" lon="-0.73322">
        <ele>169.81</ele>
        <time>2011-09-15T12:02:34Z</time>
      </trkpt>
      <trkpt lat="47.0755" lon="-0.7331">
        <ele>168.85</ele>
        <time>2011-09-15T12:02:43Z</time>
      </trkpt>
      <trkpt lat="47.07536" lon="-0.73295">
        <ele>168.37</ele>
        <time>2011-09-15T12:02:54Z</time>
      </trkpt>
      <trkpt lat="47.07526" lon="-0.73283">
        <ele>168.37</ele>
        <time>2011-09-15T12:03:01Z</time>
      </trkpt>
      <trkpt lat="47.07516" lon="-0.73268">
        <ele>167.41</ele>
        <time>2011-09-15T12:03:09Z</time>
      </trkpt>
      <trkpt lat="47.07506" lon="-0.73255">
        <ele>167.41</ele>
        <time>2011-09-15T12:03:18Z</time>
      </trkpt>
      <trkpt lat="47.07497" lon="-0.73244">
        <ele>167.41</ele>
        <time>2011-09-15T12:03:26Z</time>
      </trkpt>
      <trkpt lat="47.07483" lon="-0.73233">
        <ele>166.45</ele>
        <time>2011-09-15T12:03:34Z</time>
      </trkpt>
      <trkpt lat="47.07474" lon="-0.73219">
        <ele>166.93</ele>
        <time>2011-09-15T12:03:43Z</time>
      </trkpt>
      <trkpt lat="47.07461" lon="-0.73204">
        <ele>166.45</ele>
        <time>2011-09-15T12:03:55Z</time>
      </trkpt>
      <trkpt lat="47.0745" lon="-0.73191">
        <ele>165.96</ele>
        <time>2011-09-15T12:04:03Z</time>
      </trkpt>
      <trkpt lat="47.07437" lon="-0.73176">
        <ele>165</ele>
        <time>2011-09-15T12:04:13Z</time>
      </trkpt>
      <trkpt lat="47.07427" lon="-0.73161">
        <ele>165</ele>
        <time>2011-09-15T12:04:23Z</time>
      </trkpt>
      <trkpt lat="47.07416" lon="-0.73147">
        <ele>165</ele>
        <time>2011-09-15T12:04:32Z</time>
      </trkpt>
      <trkpt lat="47.07406" lon="-0.73135">
        <ele>164.52</ele>
        <time>2011-09-15T12:04:40Z</time>
      </trkpt>
      <trkpt lat="47.07392" lon="-0.73121">
        <ele>163.56</ele>
        <time>2011-09-15T12:04:50Z</time>
      </trkpt>
      <trkpt lat="47.07381" lon="-0.73104">
        <ele>163.56</ele>
        <time>2011-09-15T12:05:01Z</time>
      </trkpt>
      <trkpt lat="47.07369" lon="-0.73088">
        <ele>163.08</ele>
        <time>2011-09-15T12:05:09Z</time>
      </trkpt>
      <trkpt lat="47.07357" lon="-0.73073">
        <ele>162.6</ele>
        <time>2011-09-15T12:05:20Z</time>
      </trkpt>
      <trkpt lat="47.07345" lon="-0.73058">
        <ele>162.12</ele>
        <time>2011-09-15T12:05:30Z</time>
      </trkpt>
      <trkpt lat="47.07336" lon="-0.73045">
        <ele>162.12</ele>
        <time>2011-09-15T12:05:37Z</time>
      </trkpt>
      <trkpt lat="47.07326" lon="-0.73034">
        <ele>162.12</ele>
        <time>2011-09-15T12:05:44Z</time>
      </trkpt>
      <trkpt lat="47.07314" lon="-0.73023">
        <ele>161.64</ele>
        <time>2011-09-15T12:05:51Z</time>
      </trkpt>
      <trkpt lat="47.07303" lon="-0.73011">
        <ele>161.64</ele>
        <time>2011-09-15T12:05:59Z</time>
      </trkpt>
      <trkpt lat="47.07293" lon="-0.73">
        <ele>161.16</ele>
        <time>2011-09-15T12:06:06Z</time>
      </trkpt>
      <trkpt lat="47.07283" lon="-0.72989">
        <ele>161.16</ele>
        <time>2011-09-15T12:06:14Z</time>
      </trkpt>
      <trkpt lat="47.07273" lon="-0.72976">
        <ele>160.68</ele>
        <time>2011-09-15T12:06:21Z</time>
      </trkpt>
      <trkpt lat="47.07263" lon="-0.72965">
        <ele>160.2</ele>
        <time>2011-09-15T12:06:29Z</time>
      </trkpt>
      <trkpt lat="47.07253" lon="-0.72953">
        <ele>160.2</ele>
        <time>2011-09-15T12:06:36Z</time>
      </trkpt>
      <trkpt lat="47.07245" lon="-0.72942">
        <ele>160.2</ele>
        <time>2011-09-15T12:06:42Z</time>
      </trkpt>
      <trkpt lat="47.07233" lon="-0.72932">
        <ele>159.72</ele>
        <time>2011-09-15T12:06:50Z</time>
      </trkpt>
      <trkpt lat="47.07225" lon="-0.7292">
        <ele>159.72</ele>
        <time>2011-09-15T12:06:57Z</time>
      </trkpt>
      <trkpt lat="47.07215" lon="-0.72909">
        <ele>159.72</ele>
        <time>2011-09-15T12:07:06Z</time>
      </trkpt>
      <trkpt lat="47.07206" lon="-0.72897">
        <ele>159.24</ele>
        <time>2011-09-15T12:07:14Z</time>
      </trkpt>
      <trkpt lat="47.07198" lon="-0.72885">
        <ele>159.24</ele>
        <time>2011-09-15T12:07:22Z</time>
      </trkpt>
      <trkpt lat="47.07188" lon="-0.72875">
        <ele>159.24</ele>
        <time>2011-09-15T12:07:30Z</time>
      </trkpt>
      <trkpt lat="47.07181" lon="-0.72863">
        <ele>159.24</ele>
        <time>2011-09-15T12:07:37Z</time>
      </trkpt>
      <trkpt lat="47.07174" lon="-0.7285">
        <ele>158.75</ele>
        <time>2011-09-15T12:07:45Z</time>
      </trkpt>
      <trkpt lat="47.07168" lon="-0.72837">
        <ele>159.24</ele>
        <time>2011-09-15T12:07:52Z</time>
      </trkpt>
      <trkpt lat="47.07167" lon="-0.72822">
        <ele>158.75</ele>
        <time>2011-09-15T12:07:59Z</time>
      </trkpt>
      <trkpt lat="47.07164" lon="-0.72808">
        <ele>159.24</ele>
        <time>2011-09-15T12:08:05Z</time>
      </trkpt>
      <trkpt lat="47.07162" lon="-0.72792">
        <ele>159.24</ele>
        <time>2011-09-15T12:08:12Z</time>
      </trkpt>
      <trkpt lat="47.07163" lon="-0.72778">
        <ele>159.24</ele>
        <time>2011-09-15T12:08:19Z</time>
      </trkpt>
      <trkpt lat="47.07161" lon="-0.72762">
        <ele>159.24</ele>
        <time>2011-09-15T12:08:26Z</time>
      </trkpt>
      <trkpt lat="47.0716" lon="-0.72747">
        <ele>159.24</ele>
        <time>2011-09-15T12:08:32Z</time>
      </trkpt>
      <trkpt lat="47.0716" lon="-0.72734">
        <ele>159.24</ele>
        <time>2011-09-15T12:08:38Z</time>
      </trkpt>
      <trkpt lat="47.07161" lon="-0.7272">
        <ele>159.24</ele>
        <time>2011-09-15T12:08:45Z</time>
      </trkpt>
      <trkpt lat="47.07159" lon="-0.72707">
        <ele>159.72</ele>
        <time>2011-09-15T12:08:52Z</time>
      </trkpt>
      <trkpt lat="47.07158" lon="-0.72692">
        <ele>159.24</ele>
        <time>2011-09-15T12:08:58Z</time>
      </trkpt>
      <trkpt lat="47.07158" lon="-0.72677">
        <ele>159.24</ele>
        <time>2011-09-15T12:09:05Z</time>
      </trkpt>
      <trkpt lat="47.07158" lon="-0.72661">
        <ele>159.24</ele>
        <time>2011-09-15T12:09:12Z</time>
      </trkpt>
      <trkpt lat="47.0716" lon="-0.72645">
        <ele>159.24</ele>
        <time>2011-09-15T12:09:20Z</time>
      </trkpt>
      <trkpt lat="47.0716" lon="-0.7263">
        <ele>159.24</ele>
        <time>2011-09-15T12:09:26Z</time>
      </trkpt>
      <trkpt lat="47.0716" lon="-0.72614">
        <ele>158.75</ele>
        <time>2011-09-15T12:09:33Z</time>
      </trkpt>
      <trkpt lat="47.07161" lon="-0.72599">
        <ele>159.24</ele>
        <time>2011-09-15T12:09:40Z</time>
      </trkpt>
      <trkpt lat="47.07162" lon="-0.72582">
        <ele>159.24</ele>
        <time>2011-09-15T12:09:47Z</time>
      </trkpt>
      <trkpt lat="47.07163" lon="-0.72568">
        <ele>159.24</ele>
        <time>2011-09-15T12:09:54Z</time>
      </trkpt>
      <trkpt lat="47.07163" lon="-0.72552">
        <ele>158.75</ele>
        <time>2011-09-15T12:10:02Z</time>
      </trkpt>
      <trkpt lat="47.07163" lon="-0.72537">
        <ele>158.75</ele>
        <time>2011-09-15T12:10:09Z</time>
      </trkpt>
      <trkpt lat="47.07164" lon="-0.72521">
        <ele>159.24</ele>
        <time>2011-09-15T12:10:17Z</time>
      </trkpt>
      <trkpt lat="47.07165" lon="-0.72505">
        <ele>158.75</ele>
        <time>2011-09-15T12:10:23Z</time>
      </trkpt>
      <trkpt lat="47.07166" lon="-0.72491">
        <ele>158.75</ele>
        <time>2011-09-15T12:10:29Z</time>
      </trkpt>
      <trkpt lat="47.07168" lon="-0.72476">
        <ele>158.75</ele>
        <time>2011-09-15T12:10:35Z</time>
      </trkpt>
      <trkpt lat="47.07168" lon="-0.72463">
        <ele>159.24</ele>
        <time>2011-09-15T12:10:41Z</time>
      </trkpt>
      <trkpt lat="47.07169" lon="-0.72449">
        <ele>159.24</ele>
        <time>2011-09-15T12:10:48Z</time>
      </trkpt>
      <trkpt lat="47.07169" lon="-0.72435">
        <ele>158.75</ele>
        <time>2011-09-15T12:10:55Z</time>
      </trkpt>
      <trkpt lat="47.07168" lon="-0.72419">
        <ele>159.24</ele>
        <time>2011-09-15T12:11:03Z</time>
      </trkpt>
      <trkpt lat="47.07168" lon="-0.72404">
        <ele>158.75</ele>
        <time>2011-09-15T12:11:11Z</time>
      </trkpt>
      <trkpt lat="47.07171" lon="-0.72388">
        <ele>158.27</ele>
        <time>2011-09-15T12:11:19Z</time>
      </trkpt>
      <trkpt lat="47.0717" lon="-0.72371">
        <ele>158.75</ele>
        <time>2011-09-15T12:11:27Z</time>
      </trkpt>
      <trkpt lat="47.07168" lon="-0.72354">
        <ele>158.27</ele>
        <time>2011-09-15T12:11:34Z</time>
      </trkpt>
      <trkpt lat="47.07167" lon="-0.72339">
        <ele>157.79</ele>
        <time>2011-09-15T12:11:41Z</time>
      </trkpt>
      <trkpt lat="47.07166" lon="-0.72325">
        <ele>157.79</ele>
        <time>2011-09-15T12:11:47Z</time>
      </trkpt>
      <trkpt lat="47.0717" lon="-0.72313">
        <ele>157.79</ele>
        <time>2011-09-15T12:11:55Z</time>
      </trkpt>
      <trkpt lat="47.0718" lon="-0.72312">
        <ele>157.79</ele>
        <time>2011-09-15T12:12:02Z</time>
      </trkpt>
      <trkpt lat="47.0719" lon="-0.72313">
        <ele>157.79</ele>
        <time>2011-09-15T12:12:09Z</time>
      </trkpt>
      <trkpt lat="47.07201" lon="-0.72312">
        <ele>158.27</ele>
        <time>2011-09-15T12:12:16Z</time>
      </trkpt>
      <trkpt lat="47.07219" lon="-0.72301">
        <ele>158.75</ele>
        <time>2011-09-15T12:12:28Z</time>
      </trkpt>
      <trkpt lat="47.07226" lon="-0.72281">
        <ele>157.31</ele>
        <time>2011-09-15T12:12:44Z</time>
      </trkpt>
      <trkpt lat="47.07226" lon="-0.72264">
        <ele>157.31</ele>
        <time>2011-09-15T12:12:52Z</time>
      </trkpt>
      <trkpt lat="47.07224" lon="-0.72242">
        <ele>156.83</ele>
        <time>2011-09-15T12:13:03Z</time>
      </trkpt>
      <trkpt lat="47.07222" lon="-0.72222">
        <ele>156.35</ele>
        <time>2011-09-15T12:13:14Z</time>
      </trkpt>
      <trkpt lat="47.07218" lon="-0.72201">
        <ele>156.35</ele>
        <time>2011-09-15T12:13:23Z</time>
      </trkpt>
      <trkpt lat="47.07215" lon="-0.72182">
        <ele>155.87</ele>
        <time>2011-09-15T12:13:30Z</time>
      </trkpt>
      <trkpt lat="47.0721" lon="-0.72162">
        <ele>155.87</ele>
        <time>2011-09-15T12:13:40Z</time>
      </trkpt>
      <trkpt lat="47.07206" lon="-0.72145">
        <ele>155.87</ele>
        <time>2011-09-15T12:13:47Z</time>
      </trkpt>
      <trkpt lat="47.07206" lon="-0.72131">
        <ele>155.39</ele>
        <time>2011-09-15T12:13:53Z</time>
      </trkpt>
      <trkpt lat="47.07204" lon="-0.72119">
        <ele>155.39</ele>
        <time>2011-09-15T12:13:58Z</time>
      </trkpt>
      <trkpt lat="47.07201" lon="-0.72105">
        <ele>155.87</ele>
        <time>2011-09-15T12:14:04Z</time>
      </trkpt>
      <trkpt lat="47.07199" lon="-0.72093">
        <ele>155.39</ele>
        <time>2011-09-15T12:14:09Z</time>
      </trkpt>
      <trkpt lat="47.07198" lon="-0.72079">
        <ele>155.87</ele>
        <time>2011-09-15T12:14:14Z</time>
      </trkpt>
      <trkpt lat="47.07198" lon="-0.72064">
        <ele>156.35</ele>
        <time>2011-09-15T12:14:19Z</time>
      </trkpt>
      <trkpt lat="47.07198" lon="-0.7205">
        <ele>155.87</ele>
        <time>2011-09-15T12:14:23Z</time>
      </trkpt>
      <trkpt lat="47.07198" lon="-0.72037">
        <ele>155.87</ele>
        <time>2011-09-15T12:14:27Z</time>
      </trkpt>
      <trkpt lat="47.07198" lon="-0.72027">
        <ele>155.87</ele>
        <time>2011-09-15T12:14:31Z</time>
      </trkpt>
      <trkpt lat="47.07198" lon="-0.72015">
        <ele>155.87</ele>
        <time>2011-09-15T12:14:35Z</time>
      </trkpt>
      <trkpt lat="47.07198" lon="-0.72004">
        <ele>155.87</ele>
        <time>2011-09-15T12:14:39Z</time>
      </trkpt>
      <trkpt lat="47.07198" lon="-0.71994">
        <ele>155.39</ele>
        <time>2011-09-15T12:14:43Z</time>
      </trkpt>
      <trkpt lat="47.07197" lon="-0.71984">
        <ele>155.39</ele>
        <time>2011-09-15T12:14:47Z</time>
      </trkpt>
      <trkpt lat="47.07195" lon="-0.71973">
        <ele>155.39</ele>
        <time>2011-09-15T12:14:51Z</time>
      </trkpt>
      <trkpt lat="47.07194" lon="-0.71968">
        <ele>155.87</ele>
        <time>2011-09-15T12:14:54Z</time>
      </trkpt>
      <trkpt lat="47.07193" lon="-0.71964">
        <ele>155.39</ele>
        <time>2011-09-15T12:14:59Z</time>
      </trkpt>
      <trkpt lat="47.07194" lon="-0.71954">
        <ele>154.91</ele>
        <time>2011-09-15T12:15:03Z</time>
      </trkpt>
      <trkpt lat="47.07194" lon="-0.71944">
        <ele>155.39</ele>
        <time>2011-09-15T12:15:07Z</time>
      </trkpt>
      <trkpt lat="47.07193" lon="-0.71938">
        <ele>154.91</ele>
        <time>2011-09-15T12:15:12Z</time>
      </trkpt>
      <trkpt lat="47.0719" lon="-0.7194">
        <ele>154.91</ele>
        <time>2011-09-15T12:15:19Z</time>
      </trkpt>
      <trkpt lat="47.07187" lon="-0.71933">
        <ele>154.91</ele>
        <time>2011-09-15T12:15:25Z</time>
      </trkpt>
      <trkpt lat="47.07185" lon="-0.71924">
        <ele>154.43</ele>
        <time>2011-09-15T12:15:32Z</time>
      </trkpt>
      <trkpt lat="47.07182" lon="-0.71913">
        <ele>154.91</ele>
        <time>2011-09-15T12:15:38Z</time>
      </trkpt>
      <trkpt lat="47.07179" lon="-0.71901">
        <ele>154.43</ele>
        <time>2011-09-15T12:15:45Z</time>
      </trkpt>
      <trkpt lat="47.07175" lon="-0.71888">
        <ele>153.95</ele>
        <time>2011-09-15T12:15:51Z</time>
      </trkpt>
      <trkpt lat="47.07173" lon="-0.71875">
        <ele>153.95</ele>
        <time>2011-09-15T12:15:58Z</time>
      </trkpt>
      <trkpt lat="47.0717" lon="-0.71859">
        <ele>153.95</ele>
        <time>2011-09-15T12:16:06Z</time>
      </trkpt>
      <trkpt lat="47.07167" lon="-0.71843">
        <ele>153.95</ele>
        <time>2011-09-15T12:16:13Z</time>
      </trkpt>
      <trkpt lat="47.07165" lon="-0.71827">
        <ele>153.95</ele>
        <time>2011-09-15T12:16:20Z</time>
      </trkpt>
      <trkpt lat="47.07166" lon="-0.71811">
        <ele>153.47</ele>
        <time>2011-09-15T12:16:27Z</time>
      </trkpt>
      <trkpt lat="47.07166" lon="-0.71795">
        <ele>153.95</ele>
        <time>2011-09-15T12:16:34Z</time>
      </trkpt>
      <trkpt lat="47.07166" lon="-0.71781">
        <ele>153.95</ele>
        <time>2011-09-15T12:16:40Z</time>
      </trkpt>
      <trkpt lat="47.07167" lon="-0.71768">
        <ele>153.47</ele>
        <time>2011-09-15T12:16:46Z</time>
      </trkpt>
      <trkpt lat="47.0717" lon="-0.71756">
        <ele>152.99</ele>
        <time>2011-09-15T12:16:52Z</time>
      </trkpt>
      <trkpt lat="47.0717" lon="-0.71743">
        <ele>152.99</ele>
        <time>2011-09-15T12:16:58Z</time>
      </trkpt>
      <trkpt lat="47.07171" lon="-0.71728">
        <ele>153.47</ele>
        <time>2011-09-15T12:17:05Z</time>
      </trkpt>
      <trkpt lat="47.07171" lon="-0.71714">
        <ele>153.47</ele>
        <time>2011-09-15T12:17:11Z</time>
      </trkpt>
      <trkpt lat="47.07172" lon="-0.71701">
        <ele>152.99</ele>
        <time>2011-09-15T12:17:17Z</time>
      </trkpt>
      <trkpt lat="47.07172" lon="-0.71686">
        <ele>153.47</ele>
        <time>2011-09-15T12:17:23Z</time>
      </trkpt>
      <trkpt lat="47.07172" lon="-0.71673">
        <ele>153.47</ele>
        <time>2011-09-15T12:17:29Z</time>
      </trkpt>
      <trkpt lat="47.07174" lon="-0.7166">
        <ele>152.99</ele>
        <time>2011-09-15T12:17:35Z</time>
      </trkpt>
      <trkpt lat="47.07175" lon="-0.71646">
        <ele>153.47</ele>
        <time>2011-09-15T12:17:42Z</time>
      </trkpt>
      <trkpt lat="47.07176" lon="-0.71633">
        <ele>153.47</ele>
        <time>2011-09-15T12:17:48Z</time>
      </trkpt>
      <trkpt lat="47.07177" lon="-0.71619">
        <ele>154.43</ele>
        <time>2011-09-15T12:17:55Z</time>
      </trkpt>
      <trkpt lat="47.07177" lon="-0.71605">
        <ele>153.95</ele>
        <time>2011-09-15T12:18:01Z</time>
      </trkpt>
      <trkpt lat="47.0718" lon="-0.7159">
        <ele>153.95</ele>
        <time>2011-09-15T12:18:08Z</time>
      </trkpt>
      <trkpt lat="47.07182" lon="-0.71576">
        <ele>154.43</ele>
        <time>2011-09-15T12:18:15Z</time>
      </trkpt>
      <trkpt lat="47.07182" lon="-0.71562">
        <ele>153.95</ele>
        <time>2011-09-15T12:18:22Z</time>
      </trkpt>
      <trkpt lat="47.07182" lon="-0.71546">
        <ele>154.43</ele>
        <time>2011-09-15T12:18:29Z</time>
      </trkpt>
      <trkpt lat="47.07183" lon="-0.71532">
        <ele>153.95</ele>
        <time>2011-09-15T12:18:36Z</time>
      </trkpt>
      <trkpt lat="47.07184" lon="-0.71517">
        <ele>153.95</ele>
        <time>2011-09-15T12:18:43Z</time>
      </trkpt>
      <trkpt lat="47.07186" lon="-0.71503">
        <ele>154.43</ele>
        <time>2011-09-15T12:18:49Z</time>
      </trkpt>
      <trkpt lat="47.07187" lon="-0.7149">
        <ele>154.43</ele>
        <time>2011-09-15T12:18:55Z</time>
      </trkpt>
      <trkpt lat="47.07188" lon="-0.71476">
        <ele>154.43</ele>
        <time>2011-09-15T12:19:02Z</time>
      </trkpt>
      <trkpt lat="47.0719" lon="-0.71461">
        <ele>154.43</ele>
        <time>2011-09-15T12:19:09Z</time>
      </trkpt>
      <trkpt lat="47.07192" lon="-0.71448">
        <ele>154.43</ele>
        <time>2011-09-15T12:19:16Z</time>
      </trkpt>
      <trkpt lat="47.07194" lon="-0.71433">
        <ele>154.91</ele>
        <time>2011-09-15T12:19:23Z</time>
      </trkpt>
      <trkpt lat="47.07196" lon="-0.71419">
        <ele>154.43</ele>
        <time>2011-09-15T12:19:30Z</time>
      </trkpt>
      <trkpt lat="47.07198" lon="-0.71406">
        <ele>154.43</ele>
        <time>2011-09-15T12:19:37Z</time>
      </trkpt>
      <trkpt lat="47.072" lon="-0.71392">
        <ele>154.91</ele>
        <time>2011-09-15T12:19:44Z</time>
      </trkpt>
      <trkpt lat="47.07204" lon="-0.71377">
        <ele>154.91</ele>
        <time>2011-09-15T12:19:52Z</time>
      </trkpt>
      <trkpt lat="47.07207" lon="-0.71361">
        <ele>154.91</ele>
        <time>2011-09-15T12:20:00Z</time>
      </trkpt>
      <trkpt lat="47.07211" lon="-0.71347">
        <ele>154.91</ele>
        <time>2011-09-15T12:20:07Z</time>
      </trkpt>
      <trkpt lat="47.07214" lon="-0.71332">
        <ele>154.91</ele>
        <time>2011-09-15T12:20:14Z</time>
      </trkpt>
      <trkpt lat="47.07217" lon="-0.71319">
        <ele>155.39</ele>
        <time>2011-09-15T12:20:21Z</time>
      </trkpt>
      <trkpt lat="47.07217" lon="-0.71305">
        <ele>154.43</ele>
        <time>2011-09-15T12:20:27Z</time>
      </trkpt>
      <trkpt lat="47.07219" lon="-0.71291">
        <ele>155.87</ele>
        <time>2011-09-15T12:20:33Z</time>
      </trkpt>
      <trkpt lat="47.07221" lon="-0.71277">
        <ele>155.87</ele>
        <time>2011-09-15T12:20:39Z</time>
      </trkpt>
      <trkpt lat="47.07222" lon="-0.71262">
        <ele>155.87</ele>
        <time>2011-09-15T12:20:47Z</time>
      </trkpt>
      <trkpt lat="47.0722" lon="-0.71248">
        <ele>154.91</ele>
        <time>2011-09-15T12:20:55Z</time>
      </trkpt>
      <trkpt lat="47.07214" lon="-0.71238">
        <ele>155.39</ele>
        <time>2011-09-15T12:21:03Z</time>
      </trkpt>
      <trkpt lat="47.07208" lon="-0.71225">
        <ele>156.83</ele>
        <time>2011-09-15T12:21:13Z</time>
      </trkpt>
      <trkpt lat="47.072" lon="-0.71218">
        <ele>157.31</ele>
        <time>2011-09-15T12:21:21Z</time>
      </trkpt>
      <trkpt lat="47.07192" lon="-0.7121">
        <ele>157.79</ele>
        <time>2011-09-15T12:21:26Z</time>
      </trkpt>
      <trkpt lat="47.07185" lon="-0.71201">
        <ele>157.31</ele>
        <time>2011-09-15T12:21:33Z</time>
      </trkpt>
      <trkpt lat="47.07177" lon="-0.71192">
        <ele>156.83</ele>
        <time>2011-09-15T12:21:41Z</time>
      </trkpt>
      <trkpt lat="47.07169" lon="-0.71183">
        <ele>156.83</ele>
        <time>2011-09-15T12:21:46Z</time>
      </trkpt>
      <trkpt lat="47.07164" lon="-0.71177">
        <ele>157.31</ele>
        <time>2011-09-15T12:21:52Z</time>
      </trkpt>
      <trkpt lat="47.07156" lon="-0.71169">
        <ele>156.35</ele>
        <time>2011-09-15T12:22:02Z</time>
      </trkpt>
      <trkpt lat="47.07148" lon="-0.7116">
        <ele>157.31</ele>
        <time>2011-09-15T12:22:11Z</time>
      </trkpt>
      <trkpt lat="47.07139" lon="-0.71147">
        <ele>156.83</ele>
        <time>2011-09-15T12:22:21Z</time>
      </trkpt>
      <trkpt lat="47.07131" lon="-0.71137">
        <ele>157.31</ele>
        <time>2011-09-15T12:22:25Z</time>
      </trkpt>
      <trkpt lat="47.07121" lon="-0.71126">
        <ele>156.35</ele>
        <time>2011-09-15T12:22:32Z</time>
      </trkpt>
      <trkpt lat="47.07114" lon="-0.71117">
        <ele>156.35</ele>
        <time>2011-09-15T12:22:38Z</time>
      </trkpt>
      <trkpt lat="47.07107" lon="-0.71107">
        <ele>156.35</ele>
        <time>2011-09-15T12:22:44Z</time>
      </trkpt>
      <trkpt lat="47.07101" lon="-0.71098">
        <ele>155.87</ele>
        <time>2011-09-15T12:22:51Z</time>
      </trkpt>
      <trkpt lat="47.07092" lon="-0.7109">
        <ele>155.87</ele>
        <time>2011-09-15T12:22:59Z</time>
      </trkpt>
      <trkpt lat="47.07084" lon="-0.71078">
        <ele>155.39</ele>
        <time>2011-09-15T12:23:07Z</time>
      </trkpt>
      <trkpt lat="47.07076" lon="-0.71067">
        <ele>155.39</ele>
        <time>2011-09-15T12:23:13Z</time>
      </trkpt>
      <trkpt lat="47.0707" lon="-0.7106">
        <ele>155.39</ele>
        <time>2011-09-15T12:23:18Z</time>
      </trkpt>
      <trkpt lat="47.07064" lon="-0.7105">
        <ele>155.39</ele>
        <time>2011-09-15T12:23:31Z</time>
      </trkpt>
      <trkpt lat="47.07058" lon="-0.71042">
        <ele>155.39</ele>
        <time>2011-09-15T12:23:39Z</time>
      </trkpt>
      <trkpt lat="47.07064" lon="-0.7103">
        <ele>154.91</ele>
        <time>2011-09-15T12:23:47Z</time>
      </trkpt>
      <trkpt lat="47.07072" lon="-0.71022">
        <ele>154.43</ele>
        <time>2011-09-15T12:23:58Z</time>
      </trkpt>
      <trkpt lat="47.07079" lon="-0.71009">
        <ele>154.91</ele>
        <time>2011-09-15T12:24:06Z</time>
      </trkpt>
      <trkpt lat="47.07086" lon="-0.70997">
        <ele>154.43</ele>
        <time>2011-09-15T12:24:14Z</time>
      </trkpt>
      <trkpt lat="47.0709" lon="-0.70984">
        <ele>154.91</ele>
        <time>2011-09-15T12:24:21Z</time>
      </trkpt>
      <trkpt lat="47.07091" lon="-0.70969">
        <ele>154.91</ele>
        <time>2011-09-15T12:24:30Z</time>
      </trkpt>
      <trkpt lat="47.07093" lon="-0.70954">
        <ele>154.91</ele>
        <time>2011-09-15T12:24:36Z</time>
      </trkpt>
      <trkpt lat="47.07097" lon="-0.70938">
        <ele>155.39</ele>
        <time>2011-09-15T12:24:47Z</time>
      </trkpt>
      <trkpt lat="47.07099" lon="-0.70921">
        <ele>155.87</ele>
        <time>2011-09-15T12:24:56Z</time>
      </trkpt>
      <trkpt lat="47.07102" lon="-0.70901">
        <ele>156.35</ele>
        <time>2011-09-15T12:25:04Z</time>
      </trkpt>
      <trkpt lat="47.07103" lon="-0.70882">
        <ele>156.83</ele>
        <time>2011-09-15T12:25:15Z</time>
      </trkpt>
      <trkpt lat="47.07108" lon="-0.7087">
        <ele>156.83</ele>
        <time>2011-09-15T12:25:21Z</time>
      </trkpt>
      <trkpt lat="47.07116" lon="-0.70861">
        <ele>155.87</ele>
        <time>2011-09-15T12:25:29Z</time>
      </trkpt>
      <trkpt lat="47.07124" lon="-0.70858">
        <ele>154.43</ele>
        <time>2011-09-15T12:25:43Z</time>
      </trkpt>
      <trkpt lat="47.07135" lon="-0.70853">
        <ele>153.95</ele>
        <time>2011-09-15T12:25:48Z</time>
      </trkpt>
      <trkpt lat="47.07144" lon="-0.70845">
        <ele>154.43</ele>
        <time>2011-09-15T12:25:53Z</time>
      </trkpt>
      <trkpt lat="47.07153" lon="-0.70834">
        <ele>154.43</ele>
        <time>2011-09-15T12:26:04Z</time>
      </trkpt>
      <trkpt lat="47.07162" lon="-0.70819">
        <ele>154.43</ele>
        <time>2011-09-15T12:26:13Z</time>
      </trkpt>
      <trkpt lat="47.07166" lon="-0.70805">
        <ele>154.91</ele>
        <time>2011-09-15T12:26:19Z</time>
      </trkpt>
      <trkpt lat="47.07169" lon="-0.7079">
        <ele>154.43</ele>
        <time>2011-09-15T12:26:31Z</time>
      </trkpt>
      <trkpt lat="47.07172" lon="-0.70775">
        <ele>153.95</ele>
        <time>2011-09-15T12:26:37Z</time>
      </trkpt>
      <trkpt lat="47.0718" lon="-0.70758">
        <ele>154.91</ele>
        <time>2011-09-15T12:26:49Z</time>
      </trkpt>
      <trkpt lat="47.07188" lon="-0.7074">
        <ele>155.39</ele>
        <time>2011-09-15T12:26:58Z</time>
      </trkpt>
      <trkpt lat="47.07195" lon="-0.70726">
        <ele>154.91</ele>
        <time>2011-09-15T12:27:07Z</time>
      </trkpt>
      <trkpt lat="47.07203" lon="-0.70712">
        <ele>154.91</ele>
        <time>2011-09-15T12:27:17Z</time>
      </trkpt>
      <trkpt lat="47.0721" lon="-0.70698">
        <ele>154.91</ele>
        <time>2011-09-15T12:27:26Z</time>
      </trkpt>
      <trkpt lat="47.07219" lon="-0.70683">
        <ele>154.43</ele>
        <time>2011-09-15T12:27:37Z</time>
      </trkpt>
      <trkpt lat="47.07228" lon="-0.70666">
        <ele>154.91</ele>
        <time>2011-09-15T12:27:50Z</time>
      </trkpt>
      <trkpt lat="47.07238" lon="-0.70645">
        <ele>155.39</ele>
        <time>2011-09-15T12:28:02Z</time>
      </trkpt>
      <trkpt lat="47.07247" lon="-0.70628">
        <ele>155.39</ele>
        <time>2011-09-15T12:28:10Z</time>
      </trkpt>
      <trkpt lat="47.07255" lon="-0.7061">
        <ele>155.39</ele>
        <time>2011-09-15T12:28:20Z</time>
      </trkpt>
      <trkpt lat="47.07264" lon="-0.70595">
        <ele>155.39</ele>
        <time>2011-09-15T12:28:30Z</time>
      </trkpt>
      <trkpt lat="47.07274" lon="-0.70588">
        <ele>154.91</ele>
        <time>2011-09-15T12:28:40Z</time>
      </trkpt>
      <trkpt lat="47.07285" lon="-0.70582">
        <ele>154.91</ele>
        <time>2011-09-15T12:28:49Z</time>
      </trkpt>
      <trkpt lat="47.07298" lon="-0.70579">
        <ele>154.91</ele>
        <time>2011-09-15T12:29:00Z</time>
      </trkpt>
      <trkpt lat="47.07309" lon="-0.70572">
        <ele>154.91</ele>
        <time>2011-09-15T12:29:10Z</time>
      </trkpt>
      <trkpt lat="47.07321" lon="-0.70566">
        <ele>155.39</ele>
        <time>2011-09-15T12:29:19Z</time>
      </trkpt>
      <trkpt lat="47.07334" lon="-0.70561">
        <ele>154.91</ele>
        <time>2011-09-15T12:29:28Z</time>
      </trkpt>
      <trkpt lat="47.07345" lon="-0.70557">
        <ele>154.91</ele>
        <time>2011-09-15T12:29:36Z</time>
      </trkpt>
      <trkpt lat="47.07357" lon="-0.70551">
        <ele>154.91</ele>
        <time>2011-09-15T12:29:46Z</time>
      </trkpt>
      <trkpt lat="47.07368" lon="-0.70542">
        <ele>155.39</ele>
        <time>2011-09-15T12:29:56Z</time>
      </trkpt>
      <trkpt lat="47.07376" lon="-0.70533">
        <ele>155.39</ele>
        <time>2011-09-15T12:30:05Z</time>
      </trkpt>
      <trkpt lat="47.07385" lon="-0.70525">
        <ele>154.91</ele>
        <time>2011-09-15T12:30:14Z</time>
      </trkpt>
      <trkpt lat="47.07395" lon="-0.70515">
        <ele>155.39</ele>
        <time>2011-09-15T12:30:27Z</time>
      </trkpt>
      <trkpt lat="47.07408" lon="-0.70502">
        <ele>154.91</ele>
        <time>2011-09-15T12:30:41Z</time>
      </trkpt>
      <trkpt lat="47.07421" lon="-0.70489">
        <ele>154.91</ele>
        <time>2011-09-15T12:30:51Z</time>
      </trkpt>
      <trkpt lat="47.07433" lon="-0.70474">
        <ele>155.39</ele>
        <time>2011-09-15T12:31:03Z</time>
      </trkpt>
      <trkpt lat="47.07442" lon="-0.70459">
        <ele>154.43</ele>
        <time>2011-09-15T12:31:10Z</time>
      </trkpt>
      <trkpt lat="47.07452" lon="-0.70448">
        <ele>154.91</ele>
        <time>2011-09-15T12:31:16Z</time>
      </trkpt>
      <trkpt lat="47.07459" lon="-0.70435">
        <ele>154.91</ele>
        <time>2011-09-15T12:31:25Z</time>
      </trkpt>
      <trkpt lat="47.07465" lon="-0.70415">
        <ele>154.43</ele>
        <time>2011-09-15T12:31:41Z</time>
      </trkpt>
      <trkpt lat="47.07474" lon="-0.70399">
        <ele>154.43</ele>
        <time>2011-09-15T12:31:47Z</time>
      </trkpt>
      <trkpt lat="47.07486" lon="-0.70385">
        <ele>153.95</ele>
        <time>2011-09-15T12:31:54Z</time>
      </trkpt>
      <trkpt lat="47.07497" lon="-0.70374">
        <ele>154.43</ele>
        <time>2011-09-15T12:32:01Z</time>
      </trkpt>
      <trkpt lat="47.07507" lon="-0.7036">
        <ele>154.91</ele>
        <time>2011-09-15T12:32:09Z</time>
      </trkpt>
      <trkpt lat="47.07516" lon="-0.70349">
        <ele>155.39</ele>
        <time>2011-09-15T12:32:17Z</time>
      </trkpt>
      <trkpt lat="47.07526" lon="-0.70343">
        <ele>154.91</ele>
        <time>2011-09-15T12:32:28Z</time>
      </trkpt>
      <trkpt lat="47.07533" lon="-0.70337">
        <ele>154.91</ele>
        <time>2011-09-15T12:33:08Z</time>
      </trkpt>
      <trkpt lat="47.07541" lon="-0.70327">
        <ele>155.39</ele>
        <time>2011-09-15T12:33:15Z</time>
      </trkpt>
      <trkpt lat="47.07547" lon="-0.70314">
        <ele>154.91</ele>
        <time>2011-09-15T12:33:23Z</time>
      </trkpt>
      <trkpt lat="47.07553" lon="-0.703">
        <ele>154.91</ele>
        <time>2011-09-15T12:33:37Z</time>
      </trkpt>
      <trkpt lat="47.07561" lon="-0.70279">
        <ele>154.91</ele>
        <time>2011-09-15T12:33:52Z</time>
      </trkpt>
      <trkpt lat="47.07576" lon="-0.70262">
        <ele>155.39</ele>
        <time>2011-09-15T12:34:07Z</time>
      </trkpt>
      <trkpt lat="47.07589" lon="-0.70264">
        <ele>155.39</ele>
        <time>2011-09-15T12:34:15Z</time>
      </trkpt>
      <trkpt lat="47.07602" lon="-0.70271">
        <ele>155.39</ele>
        <time>2011-09-15T12:34:24Z</time>
      </trkpt>
      <trkpt lat="47.07619" lon="-0.70274">
        <ele>155.39</ele>
        <time>2011-09-15T12:34:33Z</time>
      </trkpt>
      <trkpt lat="47.07628" lon="-0.70284">
        <ele>155.87</ele>
        <time>2011-09-15T12:34:41Z</time>
      </trkpt>
      <trkpt lat="47.07639" lon="-0.70293">
        <ele>155.87</ele>
        <time>2011-09-15T12:34:47Z</time>
      </trkpt>
      <trkpt lat="47.0765" lon="-0.70301">
        <ele>155.39</ele>
        <time>2011-09-15T12:34:53Z</time>
      </trkpt>
      <trkpt lat="47.07657" lon="-0.70311">
        <ele>155.39</ele>
        <time>2011-09-15T12:35:01Z</time>
      </trkpt>
      <trkpt lat="47.07666" lon="-0.70323">
        <ele>155.39</ele>
        <time>2011-09-15T12:35:11Z</time>
      </trkpt>
      <trkpt lat="47.07674" lon="-0.70337">
        <ele>155.39</ele>
        <time>2011-09-15T12:35:17Z</time>
      </trkpt>
      <trkpt lat="47.0768" lon="-0.7035">
        <ele>154.91</ele>
        <time>2011-09-15T12:35:23Z</time>
      </trkpt>
      <trkpt lat="47.07686" lon="-0.70368">
        <ele>155.87</ele>
        <time>2011-09-15T12:35:34Z</time>
      </trkpt>
      <trkpt lat="47.07687" lon="-0.70387">
        <ele>155.87</ele>
        <time>2011-09-15T12:35:40Z</time>
      </trkpt>
      <trkpt lat="47.0769" lon="-0.70401">
        <ele>155.39</ele>
        <time>2011-09-15T12:35:45Z</time>
      </trkpt>
      <trkpt lat="47.07693" lon="-0.70415">
        <ele>155.87</ele>
        <time>2011-09-15T12:35:54Z</time>
      </trkpt>
      <trkpt lat="47.07698" lon="-0.70432">
        <ele>155.87</ele>
        <time>2011-09-15T12:36:02Z</time>
      </trkpt>
      <trkpt lat="47.07699" lon="-0.70448">
        <ele>155.87</ele>
        <time>2011-09-15T12:36:08Z</time>
      </trkpt>
      <trkpt lat="47.07701" lon="-0.70462">
        <ele>155.87</ele>
        <time>2011-09-15T12:36:13Z</time>
      </trkpt>
      <trkpt lat="47.07706" lon="-0.70474">
        <ele>155.87</ele>
        <time>2011-09-15T12:36:20Z</time>
      </trkpt>
      <trkpt lat="47.0771" lon="-0.70493">
        <ele>155.87</ele>
        <time>2011-09-15T12:36:34Z</time>
      </trkpt>
      <trkpt lat="47.07713" lon="-0.70509">
        <ele>155.39</ele>
        <time>2011-09-15T12:36:40Z</time>
      </trkpt>
      <trkpt lat="47.07715" lon="-0.70525">
        <ele>155.39</ele>
        <time>2011-09-15T12:36:45Z</time>
      </trkpt>
      <trkpt lat="47.07716" lon="-0.70538">
        <ele>155.39</ele>
        <time>2011-09-15T12:36:49Z</time>
      </trkpt>
      <trkpt lat="47.07719" lon="-0.7055">
        <ele>155.39</ele>
        <time>2011-09-15T12:36:54Z</time>
      </trkpt>
      <trkpt lat="47.07726" lon="-0.70562">
        <ele>154.91</ele>
        <time>2011-09-15T12:37:00Z</time>
      </trkpt>
      <trkpt lat="47.07728" lon="-0.70576">
        <ele>155.39</ele>
        <time>2011-09-15T12:37:06Z</time>
      </trkpt>
      <trkpt lat="47.07728" lon="-0.70586">
        <ele>155.39</ele>
        <time>2011-09-15T12:37:15Z</time>
      </trkpt>
      <trkpt lat="47.07731" lon="-0.70602">
        <ele>155.39</ele>
        <time>2011-09-15T12:37:25Z</time>
      </trkpt>
      <trkpt lat="47.07735" lon="-0.70624">
        <ele>155.39</ele>
        <time>2011-09-15T12:37:41Z</time>
      </trkpt>
      <trkpt lat="47.07742" lon="-0.70638">
        <ele>155.39</ele>
        <time>2011-09-15T12:37:51Z</time>
      </trkpt>
      <trkpt lat="47.07744" lon="-0.70658">
        <ele>155.87</ele>
        <time>2011-09-15T12:37:57Z</time>
      </trkpt>
      <trkpt lat="47.07743" lon="-0.70678">
        <ele>155.87</ele>
        <time>2011-09-15T12:38:05Z</time>
      </trkpt>
      <trkpt lat="47.07749" lon="-0.70707">
        <ele>156.35</ele>
        <time>2011-09-15T12:38:15Z</time>
      </trkpt>
      <trkpt lat="47.07754" lon="-0.70726">
        <ele>157.31</ele>
        <time>2011-09-15T12:38:25Z</time>
      </trkpt>
      <trkpt lat="47.07758" lon="-0.70747">
        <ele>157.31</ele>
        <time>2011-09-15T12:38:36Z</time>
      </trkpt>
      <trkpt lat="47.07762" lon="-0.70767">
        <ele>157.79</ele>
        <time>2011-09-15T12:38:46Z</time>
      </trkpt>
      <trkpt lat="47.07765" lon="-0.70784">
        <ele>157.31</ele>
        <time>2011-09-15T12:38:54Z</time>
      </trkpt>
      <trkpt lat="47.07766" lon="-0.70802">
        <ele>157.31</ele>
        <time>2011-09-15T12:39:04Z</time>
      </trkpt>
      <trkpt lat="47.07771" lon="-0.70824">
        <ele>157.79</ele>
        <time>2011-09-15T12:39:15Z</time>
      </trkpt>
      <trkpt lat="47.07776" lon="-0.70842">
        <ele>158.27</ele>
        <time>2011-09-15T12:39:24Z</time>
      </trkpt>
      <trkpt lat="47.07779" lon="-0.70859">
        <ele>158.27</ele>
        <time>2011-09-15T12:39:33Z</time>
      </trkpt>
      <trkpt lat="47.07782" lon="-0.70876">
        <ele>158.27</ele>
        <time>2011-09-15T12:39:42Z</time>
      </trkpt>
      <trkpt lat="47.07786" lon="-0.70895">
        <ele>158.27</ele>
        <time>2011-09-15T12:39:52Z</time>
      </trkpt>
      <trkpt lat="47.07791" lon="-0.70916">
        <ele>158.27</ele>
        <time>2011-09-15T12:40:02Z</time>
      </trkpt>
      <trkpt lat="47.07793" lon="-0.70934">
        <ele>158.75</ele>
        <time>2011-09-15T12:40:12Z</time>
      </trkpt>
      <trkpt lat="47.07795" lon="-0.70954">
        <ele>159.72</ele>
        <time>2011-09-15T12:40:21Z</time>
      </trkpt>
      <trkpt lat="47.078" lon="-0.7097">
        <ele>159.24</ele>
        <time>2011-09-15T12:40:30Z</time>
      </trkpt>
      <trkpt lat="47.07801" lon="-0.70987">
        <ele>159.72</ele>
        <time>2011-09-15T12:40:38Z</time>
      </trkpt>
      <trkpt lat="47.07804" lon="-0.71002">
        <ele>159.72</ele>
        <time>2011-09-15T12:40:46Z</time>
      </trkpt>
      <trkpt lat="47.07808" lon="-0.71017">
        <ele>160.2</ele>
        <time>2011-09-15T12:40:53Z</time>
      </trkpt>
      <trkpt lat="47.07813" lon="-0.71036">
        <ele>159.72</ele>
        <time>2011-09-15T12:41:03Z</time>
      </trkpt>
      <trkpt lat="47.07816" lon="-0.71056">
        <ele>159.72</ele>
        <time>2011-09-15T12:41:12Z</time>
      </trkpt>
      <trkpt lat="47.0782" lon="-0.71071">
        <ele>160.2</ele>
        <time>2011-09-15T12:41:19Z</time>
      </trkpt>
      <trkpt lat="47.07823" lon="-0.71087">
        <ele>160.2</ele>
        <time>2011-09-15T12:41:27Z</time>
      </trkpt>
      <trkpt lat="47.07825" lon="-0.71104">
        <ele>160.2</ele>
        <time>2011-09-15T12:41:34Z</time>
      </trkpt>
      <trkpt lat="47.07828" lon="-0.7112">
        <ele>160.68</ele>
        <time>2011-09-15T12:41:42Z</time>
      </trkpt>
      <trkpt lat="47.07831" lon="-0.71135">
        <ele>160.68</ele>
        <time>2011-09-15T12:41:49Z</time>
      </trkpt>
      <trkpt lat="47.07834" lon="-0.71149">
        <ele>161.16</ele>
        <time>2011-09-15T12:41:55Z</time>
      </trkpt>
      <trkpt lat="47.07836" lon="-0.71163">
        <ele>161.64</ele>
        <time>2011-09-15T12:42:02Z</time>
      </trkpt>
      <trkpt lat="47.07838" lon="-0.71177">
        <ele>161.64</ele>
        <time>2011-09-15T12:42:09Z</time>
      </trkpt>
      <trkpt lat="47.07843" lon="-0.71193">
        <ele>162.12</ele>
        <time>2011-09-15T12:42:17Z</time>
      </trkpt>
      <trkpt lat="47.07846" lon="-0.7121">
        <ele>162.6</ele>
        <time>2011-09-15T12:42:25Z</time>
      </trkpt>
      <trkpt lat="47.07848" lon="-0.71226">
        <ele>162.6</ele>
        <time>2011-09-15T12:42:33Z</time>
      </trkpt>
      <trkpt lat="47.07851" lon="-0.71241">
        <ele>162.6</ele>
        <time>2011-09-15T12:42:40Z</time>
      </trkpt>
      <trkpt lat="47.07854" lon="-0.71255">
        <ele>163.08</ele>
        <time>2011-09-15T12:42:47Z</time>
      </trkpt>
      <trkpt lat="47.07857" lon="-0.7127">
        <ele>163.08</ele>
        <time>2011-09-15T12:42:55Z</time>
      </trkpt>
      <trkpt lat="47.07861" lon="-0.71284">
        <ele>163.08</ele>
        <time>2011-09-15T12:43:04Z</time>
      </trkpt>
      <trkpt lat="47.07863" lon="-0.71301">
        <ele>163.56</ele>
        <time>2011-09-15T12:43:12Z</time>
      </trkpt>
      <trkpt lat="47.07865" lon="-0.71315">
        <ele>164.04</ele>
        <time>2011-09-15T12:43:19Z</time>
      </trkpt>
      <trkpt lat="47.07867" lon="-0.71331">
        <ele>164.52</ele>
        <time>2011-09-15T12:43:26Z</time>
      </trkpt>
      <trkpt lat="47.07869" lon="-0.71346">
        <ele>164.52</ele>
        <time>2011-09-15T12:43:33Z</time>
      </trkpt>
      <trkpt lat="47.07871" lon="-0.71362">
        <ele>165</ele>
        <time>2011-09-15T12:43:40Z</time>
      </trkpt>
      <trkpt lat="47.07873" lon="-0.71378">
        <ele>165.48</ele>
        <time>2011-09-15T12:43:47Z</time>
      </trkpt>
      <trkpt lat="47.07876" lon="-0.71394">
        <ele>165.48</ele>
        <time>2011-09-15T12:43:55Z</time>
      </trkpt>
      <trkpt lat="47.07878" lon="-0.71412">
        <ele>165.48</ele>
        <time>2011-09-15T12:44:02Z</time>
      </trkpt>
      <trkpt lat="47.07881" lon="-0.71427">
        <ele>165.96</ele>
        <time>2011-09-15T12:44:09Z</time>
      </trkpt>
      <trkpt lat="47.07882" lon="-0.71444">
        <ele>165.96</ele>
        <time>2011-09-15T12:44:18Z</time>
      </trkpt>
      <trkpt lat="47.07883" lon="-0.71461">
        <ele>166.45</ele>
        <time>2011-09-15T12:44:26Z</time>
      </trkpt>
      <trkpt lat="47.07883" lon="-0.71476">
        <ele>166.93</ele>
        <time>2011-09-15T12:44:33Z</time>
      </trkpt>
      <trkpt lat="47.07885" lon="-0.71494">
        <ele>166.45</ele>
        <time>2011-09-15T12:44:41Z</time>
      </trkpt>
      <trkpt lat="47.07888" lon="-0.71509">
        <ele>166.93</ele>
        <time>2011-09-15T12:44:48Z</time>
      </trkpt>
      <trkpt lat="47.07886" lon="-0.71525">
        <ele>166.93</ele>
        <time>2011-09-15T12:44:56Z</time>
      </trkpt>
      <trkpt lat="47.07888" lon="-0.71542">
        <ele>167.41</ele>
        <time>2011-09-15T12:45:04Z</time>
      </trkpt>
      <trkpt lat="47.07891" lon="-0.71557">
        <ele>167.89</ele>
        <time>2011-09-15T12:45:10Z</time>
      </trkpt>
      <trkpt lat="47.07893" lon="-0.71571">
        <ele>167.89</ele>
        <time>2011-09-15T12:45:17Z</time>
      </trkpt>
      <trkpt lat="47.07895" lon="-0.71585">
        <ele>167.89</ele>
        <time>2011-09-15T12:45:27Z</time>
      </trkpt>
      <trkpt lat="47.07897" lon="-0.71604">
        <ele>167.89</ele>
        <time>2011-09-15T12:45:36Z</time>
      </trkpt>
      <trkpt lat="47.07897" lon="-0.71623">
        <ele>167.89</ele>
        <time>2011-09-15T12:45:44Z</time>
      </trkpt>
      <trkpt lat="47.079" lon="-0.71645">
        <ele>168.37</ele>
        <time>2011-09-15T12:45:52Z</time>
      </trkpt>
      <trkpt lat="47.079" lon="-0.71664">
        <ele>168.85</ele>
        <time>2011-09-15T12:46:00Z</time>
      </trkpt>
      <trkpt lat="47.07902" lon="-0.71682">
        <ele>168.85</ele>
        <time>2011-09-15T12:46:10Z</time>
      </trkpt>
      <trkpt lat="47.07901" lon="-0.71698">
        <ele>168.85</ele>
        <time>2011-09-15T12:46:19Z</time>
      </trkpt>
      <trkpt lat="47.07899" lon="-0.71713">
        <ele>169.33</ele>
        <time>2011-09-15T12:46:28Z</time>
      </trkpt>
      <trkpt lat="47.07905" lon="-0.71733">
        <ele>169.33</ele>
        <time>2011-09-15T12:46:38Z</time>
      </trkpt>
      <trkpt lat="47.07907" lon="-0.71759">
        <ele>169.81</ele>
        <time>2011-09-15T12:46:50Z</time>
      </trkpt>
      <trkpt lat="47.07908" lon="-0.71783">
        <ele>170.29</ele>
        <time>2011-09-15T12:47:01Z</time>
      </trkpt>
      <trkpt lat="47.07911" lon="-0.71807">
        <ele>170.77</ele>
        <time>2011-09-15T12:47:12Z</time>
      </trkpt>
      <trkpt lat="47.07915" lon="-0.71827">
        <ele>170.77</ele>
        <time>2011-09-15T12:47:22Z</time>
      </trkpt>
      <trkpt lat="47.07915" lon="-0.71847">
        <ele>171.73</ele>
        <time>2011-09-15T12:47:30Z</time>
      </trkpt>
      <trkpt lat="47.07917" lon="-0.71873">
        <ele>171.73</ele>
        <time>2011-09-15T12:47:44Z</time>
      </trkpt>
      <trkpt lat="47.07916" lon="-0.71892">
        <ele>172.21</ele>
        <time>2011-09-15T12:47:54Z</time>
      </trkpt>
      <trkpt lat="47.07918" lon="-0.71915">
        <ele>172.21</ele>
        <time>2011-09-15T12:48:03Z</time>
      </trkpt>
      <trkpt lat="47.0792" lon="-0.71938">
        <ele>172.21</ele>
        <time>2011-09-15T12:48:13Z</time>
      </trkpt>
      <trkpt lat="47.07924" lon="-0.7196">
        <ele>172.21</ele>
        <time>2011-09-15T12:48:23Z</time>
      </trkpt>
      <trkpt lat="47.07926" lon="-0.71985">
        <ele>173.17</ele>
        <time>2011-09-15T12:48:33Z</time>
      </trkpt>
      <trkpt lat="47.07928" lon="-0.72006">
        <ele>173.17</ele>
        <time>2011-09-15T12:48:44Z</time>
      </trkpt>
      <trkpt lat="47.07931" lon="-0.72025">
        <ele>173.17</ele>
        <time>2011-09-15T12:48:54Z</time>
      </trkpt>
      <trkpt lat="47.07931" lon="-0.72044">
        <ele>173.17</ele>
        <time>2011-09-15T12:49:03Z</time>
      </trkpt>
      <trkpt lat="47.07934" lon="-0.72061">
        <ele>173.66</ele>
        <time>2011-09-15T12:49:10Z</time>
      </trkpt>
      <trkpt lat="47.07936" lon="-0.72085">
        <ele>174.14</ele>
        <time>2011-09-15T12:49:21Z</time>
      </trkpt>
      <trkpt lat="47.07938" lon="-0.72106">
        <ele>174.62</ele>
        <time>2011-09-15T12:49:29Z</time>
      </trkpt>
      <trkpt lat="47.07938" lon="-0.72127">
        <ele>175.1</ele>
        <time>2011-09-15T12:49:39Z</time>
      </trkpt>
      <trkpt lat="47.07941" lon="-0.72149">
        <ele>175.1</ele>
        <time>2011-09-15T12:49:52Z</time>
      </trkpt>
      <trkpt lat="47.07943" lon="-0.72169">
        <ele>175.58</ele>
        <time>2011-09-15T12:50:01Z</time>
      </trkpt>
      <trkpt lat="47.07948" lon="-0.72182">
        <ele>175.58</ele>
        <time>2011-09-15T12:50:10Z</time>
      </trkpt>
      <trkpt lat="47.07954" lon="-0.72195">
        <ele>176.06</ele>
        <time>2011-09-15T12:50:19Z</time>
      </trkpt>
      <trkpt lat="47.07962" lon="-0.72212">
        <ele>175.58</ele>
        <time>2011-09-15T12:50:28Z</time>
      </trkpt>
      <trkpt lat="47.07971" lon="-0.72223">
        <ele>175.58</ele>
        <time>2011-09-15T12:50:36Z</time>
      </trkpt>
      <trkpt lat="47.07977" lon="-0.72236">
        <ele>175.58</ele>
        <time>2011-09-15T12:50:42Z</time>
      </trkpt>
      <trkpt lat="47.07985" lon="-0.72246">
        <ele>175.58</ele>
        <time>2011-09-15T12:50:50Z</time>
      </trkpt>
      <trkpt lat="47.07992" lon="-0.72257">
        <ele>175.58</ele>
        <time>2011-09-15T12:50:57Z</time>
      </trkpt>
      <trkpt lat="47.08" lon="-0.72274">
        <ele>175.58</ele>
        <time>2011-09-15T12:51:08Z</time>
      </trkpt>
      <trkpt lat="47.0801" lon="-0.72286">
        <ele>176.06</ele>
        <time>2011-09-15T12:51:20Z</time>
      </trkpt>
      <trkpt lat="47.0802" lon="-0.72305">
        <ele>176.06</ele>
        <time>2011-09-15T12:51:31Z</time>
      </trkpt>
      <trkpt lat="47.08026" lon="-0.72324">
        <ele>177.02</ele>
        <time>2011-09-15T12:53:56Z</time>
      </trkpt>
      <trkpt lat="47.08043" lon="-0.72338">
        <ele>177.02</ele>
        <time>2011-09-15T12:54:10Z</time>
      </trkpt>
      <trkpt lat="47.0805" lon="-0.72359">
        <ele>176.54</ele>
        <time>2011-09-15T12:54:21Z</time>
      </trkpt>
      <trkpt lat="47.08059" lon="-0.72371">
        <ele>177.02</ele>
        <time>2011-09-15T12:54:30Z</time>
      </trkpt>
      <trkpt lat="47.08074" lon="-0.72391">
        <ele>177.5</ele>
        <time>2011-09-15T12:54:45Z</time>
      </trkpt>
      <trkpt lat="47.08085" lon="-0.72406">
        <ele>177.02</ele>
        <time>2011-09-15T12:54:59Z</time>
      </trkpt>
      <trkpt lat="47.08091" lon="-0.72421">
        <ele>177.5</ele>
        <time>2011-09-15T12:55:07Z</time>
      </trkpt>
      <trkpt lat="47.08097" lon="-0.72434">
        <ele>177.02</ele>
        <time>2011-09-15T12:55:14Z</time>
      </trkpt>
      <trkpt lat="47.08105" lon="-0.72446">
        <ele>177.02</ele>
        <time>2011-09-15T12:55:22Z</time>
      </trkpt>
      <trkpt lat="47.08115" lon="-0.7246">
        <ele>177.5</ele>
        <time>2011-09-15T12:55:35Z</time>
      </trkpt>
      <trkpt lat="47.08124" lon="-0.72479">
        <ele>177.98</ele>
        <time>2011-09-15T12:55:53Z</time>
      </trkpt>
      <trkpt lat="47.08137" lon="-0.72503">
        <ele>178.46</ele>
        <time>2011-09-15T12:56:05Z</time>
      </trkpt>
      <trkpt lat="47.08159" lon="-0.72523">
        <ele>178.46</ele>
        <time>2011-09-15T12:56:19Z</time>
      </trkpt>
      <trkpt lat="47.08169" lon="-0.72543">
        <ele>178.94</ele>
        <time>2011-09-15T12:56:31Z</time>
      </trkpt>
      <trkpt lat="47.08177" lon="-0.72558">
        <ele>178.94</ele>
        <time>2011-09-15T12:56:40Z</time>
      </trkpt>
      <trkpt lat="47.08193" lon="-0.72584">
        <ele>179.42</ele>
        <time>2011-09-15T12:56:54Z</time>
      </trkpt>
      <trkpt lat="47.08204" lon="-0.72601">
        <ele>179.42</ele>
        <time>2011-09-15T12:57:05Z</time>
      </trkpt>
      <trkpt lat="47.08212" lon="-0.72618">
        <ele>178.94</ele>
        <time>2011-09-15T12:57:17Z</time>
      </trkpt>
      <trkpt lat="47.0822" lon="-0.7263">
        <ele>179.9</ele>
        <time>2011-09-15T12:57:25Z</time>
      </trkpt>
      <trkpt lat="47.0823" lon="-0.72647">
        <ele>179.42</ele>
        <time>2011-09-15T12:57:36Z</time>
      </trkpt>
      <trkpt lat="47.08241" lon="-0.72665">
        <ele>180.87</ele>
        <time>2011-09-15T12:57:50Z</time>
      </trkpt>
      <trkpt lat="47.08257" lon="-0.72682">
        <ele>180.87</ele>
        <time>2011-09-15T12:58:02Z</time>
      </trkpt>
      <trkpt lat="47.08277" lon="-0.72704">
        <ele>180.87</ele>
        <time>2011-09-15T12:58:19Z</time>
      </trkpt>
      <trkpt lat="47.08291" lon="-0.72725">
        <ele>181.35</ele>
        <time>2011-09-15T12:58:41Z</time>
      </trkpt>
      <trkpt lat="47.08306" lon="-0.72755">
        <ele>182.79</ele>
        <time>2011-09-15T12:59:00Z</time>
      </trkpt>
      <trkpt lat="47.08324" lon="-0.72781">
        <ele>183.27</ele>
        <time>2011-09-15T12:59:18Z</time>
      </trkpt>
      <trkpt lat="47.08334" lon="-0.72799">
        <ele>183.27</ele>
        <time>2011-09-15T12:59:35Z</time>
      </trkpt>
      <trkpt lat="47.08341" lon="-0.72814">
        <ele>183.27</ele>
        <time>2011-09-15T12:59:54Z</time>
      </trkpt>
      <trkpt lat="47.08348" lon="-0.72829">
        <ele>183.75</ele>
        <time>2011-09-15T13:00:07Z</time>
      </trkpt>
      <trkpt lat="47.08373" lon="-0.72869">
        <ele>184.23</ele>
        <time>2011-09-15T13:00:22Z</time>
      </trkpt>
      <trkpt lat="47.08388" lon="-0.72891">
        <ele>183.75</ele>
        <time>2011-09-15T13:00:33Z</time>
      </trkpt>
      <trkpt lat="47.08394" lon="-0.72904">
        <ele>184.23</ele>
        <time>2011-09-15T13:00:45Z</time>
      </trkpt>
      <trkpt lat="47.08402" lon="-0.72923">
        <ele>184.23</ele>
        <time>2011-09-15T13:00:57Z</time>
      </trkpt>
      <trkpt lat="47.08411" lon="-0.72938">
        <ele>184.23</ele>
        <time>2011-09-15T13:01:04Z</time>
      </trkpt>
      <trkpt lat="47.08427" lon="-0.72963">
        <ele>184.23</ele>
        <time>2011-09-15T13:01:20Z</time>
      </trkpt>
      <trkpt lat="47.0843" lon="-0.72988">
        <ele>184.23</ele>
        <time>2011-09-15T13:01:30Z</time>
      </trkpt>
      <trkpt lat="47.08428" lon="-0.73004">
        <ele>183.27</ele>
        <time>2011-09-15T13:01:35Z</time>
      </trkpt>
      <trkpt lat="47.08424" lon="-0.73018">
        <ele>183.27</ele>
        <time>2011-09-15T13:01:39Z</time>
      </trkpt>
      <trkpt lat="47.08427" lon="-0.7303">
        <ele>182.79</ele>
        <time>2011-09-15T13:01:48Z</time>
      </trkpt>
      <trkpt lat="47.08428" lon="-0.73046">
        <ele>182.31</ele>
        <time>2011-09-15T13:02:04Z</time>
      </trkpt>
      <trkpt lat="47.08431" lon="-0.73066">
        <ele>181.35</ele>
        <time>2011-09-15T13:02:16Z</time>
      </trkpt>
      <trkpt lat="47.08431" lon="-0.73075">
        <ele>180.87</ele>
        <time>2011-09-15T13:02:47Z</time>
      </trkpt>
      <trkpt lat="47.08441" lon="-0.73102">
        <ele>181.35</ele>
        <time>2011-09-15T13:03:06Z</time>
      </trkpt>
      <trkpt lat="47.0846" lon="-0.73117">
        <ele>181.35</ele>
        <time>2011-09-15T13:03:13Z</time>
      </trkpt>
      <trkpt lat="47.08478" lon="-0.73135">
        <ele>181.35</ele>
        <time>2011-09-15T13:03:19Z</time>
      </trkpt>
      <trkpt lat="47.08491" lon="-0.73147">
        <ele>181.35</ele>
        <time>2011-09-15T13:03:27Z</time>
      </trkpt>
      <trkpt lat="47.08512" lon="-0.73156">
        <ele>181.83</ele>
        <time>2011-09-15T13:03:46Z</time>
      </trkpt>
      <trkpt lat="47.08527" lon="-0.73161">
        <ele>183.27</ele>
        <time>2011-09-15T13:03:53Z</time>
      </trkpt>
      <trkpt lat="47.08537" lon="-0.73164">
        <ele>182.79</ele>
        <time>2011-09-15T13:03:59Z</time>
      </trkpt>
      <trkpt lat="47.0855" lon="-0.73167">
        <ele>183.75</ele>
        <time>2011-09-15T13:04:18Z</time>
      </trkpt>
      <trkpt lat="47.08567" lon="-0.73172">
        <ele>184.23</ele>
        <time>2011-09-15T13:04:26Z</time>
      </trkpt>
      <trkpt lat="47.08579" lon="-0.73176">
        <ele>184.71</ele>
        <time>2011-09-15T13:04:34Z</time>
      </trkpt>
      <trkpt lat="47.08591" lon="-0.7318">
        <ele>184.71</ele>
        <time>2011-09-15T13:04:41Z</time>
      </trkpt>
      <trkpt lat="47.086" lon="-0.73181">
        <ele>184.23</ele>
        <time>2011-09-15T13:04:47Z</time>
      </trkpt>
      <trkpt lat="47.08618" lon="-0.73188">
        <ele>185.19</ele>
        <time>2011-09-15T13:05:02Z</time>
      </trkpt>
      <trkpt lat="47.08641" lon="-0.73194">
        <ele>185.67</ele>
        <time>2011-09-15T13:05:19Z</time>
      </trkpt>
      <trkpt lat="47.08656" lon="-0.73194">
        <ele>185.19</ele>
        <time>2011-09-15T13:05:28Z</time>
      </trkpt>
      <trkpt lat="47.08668" lon="-0.73195">
        <ele>185.19</ele>
        <time>2011-09-15T13:05:37Z</time>
      </trkpt>
      <trkpt lat="47.08679" lon="-0.73198">
        <ele>185.19</ele>
        <time>2011-09-15T13:05:45Z</time>
      </trkpt>
      <trkpt lat="47.08692" lon="-0.73201">
        <ele>185.19</ele>
        <time>2011-09-15T13:05:53Z</time>
      </trkpt>
      <trkpt lat="47.08713" lon="-0.73203">
        <ele>185.19</ele>
        <time>2011-09-15T13:06:12Z</time>
      </trkpt>
      <trkpt lat="47.08732" lon="-0.73206">
        <ele>185.19</ele>
        <time>2011-09-15T13:06:20Z</time>
      </trkpt>
      <trkpt lat="47.08745" lon="-0.73207">
        <ele>184.23</ele>
        <time>2011-09-15T13:06:29Z</time>
      </trkpt>
      <trkpt lat="47.08756" lon="-0.73211">
        <ele>184.71</ele>
        <time>2011-09-15T13:06:37Z</time>
      </trkpt>
      <trkpt lat="47.08768" lon="-0.73217">
        <ele>184.71</ele>
        <time>2011-09-15T13:06:45Z</time>
      </trkpt>
      <trkpt lat="47.0878" lon="-0.73221">
        <ele>185.19</ele>
        <time>2011-09-15T13:06:55Z</time>
      </trkpt>
      <trkpt lat="47.08792" lon="-0.73223">
        <ele>184.71</ele>
        <time>2011-09-15T13:07:00Z</time>
      </trkpt>
      <trkpt lat="47.08801" lon="-0.73222">
        <ele>184.71</ele>
        <time>2011-09-15T13:07:04Z</time>
      </trkpt>
      <trkpt lat="47.08809" lon="-0.73216">
        <ele>184.71</ele>
        <time>2011-09-15T13:07:09Z</time>
      </trkpt>
      <trkpt lat="47.08815" lon="-0.73209">
        <ele>184.71</ele>
        <time>2011-09-15T13:07:14Z</time>
      </trkpt>
      <trkpt lat="47.08821" lon="-0.73202">
        <ele>185.19</ele>
        <time>2011-09-15T13:07:19Z</time>
      </trkpt>
      <trkpt lat="47.08826" lon="-0.73198">
        <ele>185.19</ele>
        <time>2011-09-15T13:07:24Z</time>
      </trkpt>
      <trkpt lat="47.08833" lon="-0.7319">
        <ele>185.19</ele>
        <time>2011-09-15T13:07:28Z</time>
      </trkpt>
      <trkpt lat="47.08839" lon="-0.73186">
        <ele>185.19</ele>
        <time>2011-09-15T13:07:33Z</time>
      </trkpt>
      <trkpt lat="47.08844" lon="-0.73181">
        <ele>184.71</ele>
        <time>2011-09-15T13:07:38Z</time>
      </trkpt>
      <trkpt lat="47.08849" lon="-0.73171">
        <ele>184.71</ele>
        <time>2011-09-15T13:07:42Z</time>
      </trkpt>
      <trkpt lat="47.08855" lon="-0.73164">
        <ele>184.23</ele>
        <time>2011-09-15T13:07:46Z</time>
      </trkpt>
      <trkpt lat="47.08863" lon="-0.73156">
        <ele>184.71</ele>
        <time>2011-09-15T13:07:50Z</time>
      </trkpt>
      <trkpt lat="47.08866" lon="-0.73156">
        <ele>184.23</ele>
        <time>2011-09-15T13:08:02Z</time>
      </trkpt>
      <trkpt lat="47.08885" lon="-0.73151">
        <ele>182.79</ele>
        <time>2011-09-15T13:08:28Z</time>
      </trkpt>
      <trkpt lat="47.08911" lon="-0.73153">
        <ele>181.83</ele>
        <time>2011-09-15T13:08:49Z</time>
      </trkpt>
      <trkpt lat="47.08931" lon="-0.73148">
        <ele>181.35</ele>
        <time>2011-09-15T13:09:00Z</time>
      </trkpt>
      <trkpt lat="47.08943" lon="-0.73141">
        <ele>180.87</ele>
        <time>2011-09-15T13:09:36Z</time>
      </trkpt>
      <trkpt lat="47.08954" lon="-0.73137">
        <ele>180.38</ele>
        <time>2011-09-15T13:09:45Z</time>
      </trkpt>
      <trkpt lat="47.08966" lon="-0.7313">
        <ele>179.9</ele>
        <time>2011-09-15T13:09:53Z</time>
      </trkpt>
      <trkpt lat="47.08985" lon="-0.73128">
        <ele>179.42</ele>
        <time>2011-09-15T13:10:02Z</time>
      </trkpt>
      <trkpt lat="47.08996" lon="-0.73127">
        <ele>178.46</ele>
        <time>2011-09-15T13:10:27Z</time>
      </trkpt>
      <trkpt lat="47.09018" lon="-0.73125">
        <ele>177.98</ele>
        <time>2011-09-15T13:10:35Z</time>
      </trkpt>
      <trkpt lat="47.0904" lon="-0.73119">
        <ele>177.98</ele>
        <time>2011-09-15T13:10:44Z</time>
      </trkpt>
      <trkpt lat="47.09055" lon="-0.73119">
        <ele>177.5</ele>
        <time>2011-09-15T13:10:55Z</time>
      </trkpt>
      <trkpt lat="47.09069" lon="-0.73119">
        <ele>177.02</ele>
        <time>2011-09-15T13:11:06Z</time>
      </trkpt>
      <trkpt lat="47.09089" lon="-0.73119">
        <ele>176.06</ele>
        <time>2011-09-15T13:11:24Z</time>
      </trkpt>
      <trkpt lat="47.09127" lon="-0.73117">
        <ele>174.62</ele>
        <time>2011-09-15T13:11:45Z</time>
      </trkpt>
      <trkpt lat="47.0915" lon="-0.73115">
        <ele>173.66</ele>
        <time>2011-09-15T13:11:59Z</time>
      </trkpt>
      <trkpt lat="47.09164" lon="-0.73117">
        <ele>173.66</ele>
        <time>2011-09-15T13:12:10Z</time>
      </trkpt>
      <trkpt lat="47.09171" lon="-0.73134">
        <ele>173.66</ele>
        <time>2011-09-15T13:12:20Z</time>
      </trkpt>
      <trkpt lat="47.0917" lon="-0.7315">
        <ele>173.66</ele>
        <time>2011-09-15T13:12:28Z</time>
      </trkpt>
      <trkpt lat="47.09169" lon="-0.73167">
        <ele>173.66</ele>
        <time>2011-09-15T13:12:37Z</time>
      </trkpt>
      <trkpt lat="47.09166" lon="-0.7319">
        <ele>173.66</ele>
        <time>2011-09-15T13:12:47Z</time>
      </trkpt>
      <trkpt lat="47.09165" lon="-0.73208">
        <ele>173.66</ele>
        <time>2011-09-15T13:12:55Z</time>
      </trkpt>
      <trkpt lat="47.09163" lon="-0.73225">
        <ele>174.62</ele>
        <time>2011-09-15T13:13:04Z</time>
      </trkpt>
      <trkpt lat="47.0916" lon="-0.73243">
        <ele>174.14</ele>
        <time>2011-09-15T13:13:12Z</time>
      </trkpt>
      <trkpt lat="47.09158" lon="-0.73259">
        <ele>174.14</ele>
        <time>2011-09-15T13:13:20Z</time>
      </trkpt>
      <trkpt lat="47.09158" lon="-0.73274">
        <ele>174.14</ele>
        <time>2011-09-15T13:13:27Z</time>
      </trkpt>
      <trkpt lat="47.09161" lon="-0.73292">
        <ele>174.62</ele>
        <time>2011-09-15T13:13:36Z</time>
      </trkpt>
      <trkpt lat="47.09166" lon="-0.73314">
        <ele>174.14</ele>
        <time>2011-09-15T13:13:45Z</time>
      </trkpt>
      <trkpt lat="47.0917" lon="-0.73329">
        <ele>174.14</ele>
        <time>2011-09-15T13:13:51Z</time>
      </trkpt>
      <trkpt lat="47.09174" lon="-0.73344">
        <ele>174.14</ele>
        <time>2011-09-15T13:13:59Z</time>
      </trkpt>
      <trkpt lat="47.09176" lon="-0.7336">
        <ele>175.1</ele>
        <time>2011-09-15T13:14:08Z</time>
      </trkpt>
      <trkpt lat="47.09178" lon="-0.7338">
        <ele>175.1</ele>
        <time>2011-09-15T13:14:17Z</time>
      </trkpt>
      <trkpt lat="47.09179" lon="-0.73397">
        <ele>175.1</ele>
        <time>2011-09-15T13:14:27Z</time>
      </trkpt>
      <trkpt lat="47.09182" lon="-0.73412">
        <ele>175.58</ele>
        <time>2011-09-15T13:14:35Z</time>
      </trkpt>
      <trkpt lat="47.09186" lon="-0.73429">
        <ele>176.06</ele>
        <time>2011-09-15T13:14:42Z</time>
      </trkpt>
      <trkpt lat="47.09189" lon="-0.73447">
        <ele>176.06</ele>
        <time>2011-09-15T13:14:49Z</time>
      </trkpt>
      <trkpt lat="47.09194" lon="-0.73465">
        <ele>176.06</ele>
        <time>2011-09-15T13:14:57Z</time>
      </trkpt>
      <trkpt lat="47.09198" lon="-0.73479">
        <ele>176.06</ele>
        <time>2011-09-15T13:15:04Z</time>
      </trkpt>
      <trkpt lat="47.09206" lon="-0.73492">
        <ele>176.54</ele>
        <time>2011-09-15T13:15:12Z</time>
      </trkpt>
      <trkpt lat="47.09213" lon="-0.73504">
        <ele>176.54</ele>
        <time>2011-09-15T13:15:20Z</time>
      </trkpt>
      <trkpt lat="47.09224" lon="-0.73513">
        <ele>177.02</ele>
        <time>2011-09-15T13:15:28Z</time>
      </trkpt>
      <trkpt lat="47.09233" lon="-0.73519">
        <ele>177.02</ele>
        <time>2011-09-15T13:15:35Z</time>
      </trkpt>
      <trkpt lat="47.09244" lon="-0.73521">
        <ele>176.54</ele>
        <time>2011-09-15T13:15:42Z</time>
      </trkpt>
      <trkpt lat="47.09254" lon="-0.7352">
        <ele>176.54</ele>
        <time>2011-09-15T13:15:50Z</time>
      </trkpt>
      <trkpt lat="47.09265" lon="-0.73511">
        <ele>177.02</ele>
        <time>2011-09-15T13:15:59Z</time>
      </trkpt>
      <trkpt lat="47.09274" lon="-0.73501">
        <ele>176.54</ele>
        <time>2011-09-15T13:16:06Z</time>
      </trkpt>
      <trkpt lat="47.09282" lon="-0.73492">
        <ele>176.54</ele>
        <time>2011-09-15T13:16:12Z</time>
      </trkpt>
      <trkpt lat="47.09289" lon="-0.73485">
        <ele>177.02</ele>
        <time>2011-09-15T13:16:18Z</time>
      </trkpt>
      <trkpt lat="47.09297" lon="-0.73477">
        <ele>176.06</ele>
        <time>2011-09-15T13:16:25Z</time>
      </trkpt>
      <trkpt lat="47.09308" lon="-0.7347">
        <ele>177.5</ele>
        <time>2011-09-15T13:16:36Z</time>
      </trkpt>
      <trkpt lat="47.0932" lon="-0.73467">
        <ele>177.02</ele>
        <time>2011-09-15T13:16:43Z</time>
      </trkpt>
      <trkpt lat="47.09329" lon="-0.73466">
        <ele>176.06</ele>
        <time>2011-09-15T13:16:49Z</time>
      </trkpt>
      <trkpt lat="47.09339" lon="-0.73471">
        <ele>175.58</ele>
        <time>2011-09-15T13:16:55Z</time>
      </trkpt>
      <trkpt lat="47.09344" lon="-0.73487">
        <ele>175.58</ele>
        <time>2011-09-15T13:17:00Z</time>
      </trkpt>
      <trkpt lat="47.09343" lon="-0.73501">
        <ele>176.06</ele>
        <time>2011-09-15T13:17:06Z</time>
      </trkpt>
      <trkpt lat="47.0934" lon="-0.73514">
        <ele>176.06</ele>
        <time>2011-09-15T13:17:12Z</time>
      </trkpt>
      <trkpt lat="47.09338" lon="-0.73527">
        <ele>176.06</ele>
        <time>2011-09-15T13:17:18Z</time>
      </trkpt>
      <trkpt lat="47.09335" lon="-0.73538">
        <ele>176.54</ele>
        <time>2011-09-15T13:17:24Z</time>
      </trkpt>
      <trkpt lat="47.09333" lon="-0.7355">
        <ele>177.02</ele>
        <time>2011-09-15T13:17:30Z</time>
      </trkpt>
      <trkpt lat="47.0933" lon="-0.73564">
        <ele>177.02</ele>
        <time>2011-09-15T13:17:37Z</time>
      </trkpt>
      <trkpt lat="47.09328" lon="-0.73579">
        <ele>176.54</ele>
        <time>2011-09-15T13:17:45Z</time>
      </trkpt>
      <trkpt lat="47.09326" lon="-0.73595">
        <ele>176.54</ele>
        <time>2011-09-15T13:17:52Z</time>
      </trkpt>
      <trkpt lat="47.09325" lon="-0.73611">
        <ele>177.02</ele>
        <time>2011-09-15T13:17:59Z</time>
      </trkpt>
      <trkpt lat="47.09323" lon="-0.73623">
        <ele>177.02</ele>
        <time>2011-09-15T13:18:04Z</time>
      </trkpt>
      <trkpt lat="47.09321" lon="-0.73637">
        <ele>176.54</ele>
        <time>2011-09-15T13:18:11Z</time>
      </trkpt>
      <trkpt lat="47.09321" lon="-0.73652">
        <ele>176.54</ele>
        <time>2011-09-15T13:18:17Z</time>
      </trkpt>
      <trkpt lat="47.09319" lon="-0.73666">
        <ele>176.06</ele>
        <time>2011-09-15T13:18:24Z</time>
      </trkpt>
      <trkpt lat="47.09318" lon="-0.73681">
        <ele>176.06</ele>
        <time>2011-09-15T13:18:31Z</time>
      </trkpt>
      <trkpt lat="47.09316" lon="-0.73697">
        <ele>176.54</ele>
        <time>2011-09-15T13:18:37Z</time>
      </trkpt>
      <trkpt lat="47.09314" lon="-0.73712">
        <ele>176.54</ele>
        <time>2011-09-15T13:18:45Z</time>
      </trkpt>
      <trkpt lat="47.09313" lon="-0.73728">
        <ele>176.06</ele>
        <time>2011-09-15T13:18:52Z</time>
      </trkpt>
      <trkpt lat="47.09312" lon="-0.73741">
        <ele>176.06</ele>
        <time>2011-09-15T13:18:57Z</time>
      </trkpt>
      <trkpt lat="47.09312" lon="-0.73753">
        <ele>176.06</ele>
        <time>2011-09-15T13:19:01Z</time>
      </trkpt>
      <trkpt lat="47.0931" lon="-0.73765">
        <ele>175.58</ele>
        <time>2011-09-15T13:19:08Z</time>
      </trkpt>
      <trkpt lat="47.0931" lon="-0.73781">
        <ele>175.58</ele>
        <time>2011-09-15T13:19:16Z</time>
      </trkpt>
      <trkpt lat="47.09311" lon="-0.73795">
        <ele>175.1</ele>
        <time>2011-09-15T13:19:20Z</time>
      </trkpt>
      <trkpt lat="47.0931" lon="-0.73807">
        <ele>175.1</ele>
        <time>2011-09-15T13:19:27Z</time>
      </trkpt>
      <trkpt lat="47.09311" lon="-0.73823">
        <ele>175.1</ele>
        <time>2011-09-15T13:19:34Z</time>
      </trkpt>
      <trkpt lat="47.09311" lon="-0.73837">
        <ele>175.1</ele>
        <time>2011-09-15T13:19:39Z</time>
      </trkpt>
      <trkpt lat="47.09312" lon="-0.73852">
        <ele>174.14</ele>
        <time>2011-09-15T13:19:48Z</time>
      </trkpt>
      <trkpt lat="47.09311" lon="-0.73868">
        <ele>173.66</ele>
        <time>2011-09-15T13:19:54Z</time>
      </trkpt>
      <trkpt lat="47.0931" lon="-0.73884">
        <ele>174.14</ele>
        <time>2011-09-15T13:20:02Z</time>
      </trkpt>
      <trkpt lat="47.09306" lon="-0.73898">
        <ele>174.14</ele>
        <time>2011-09-15T13:20:07Z</time>
      </trkpt>
      <trkpt lat="47.09303" lon="-0.7391">
        <ele>173.66</ele>
        <time>2011-09-15T13:20:11Z</time>
      </trkpt>
      <trkpt lat="47.093" lon="-0.73922">
        <ele>173.66</ele>
        <time>2011-09-15T13:20:18Z</time>
      </trkpt>
      <trkpt lat="47.09296" lon="-0.73935">
        <ele>173.66</ele>
        <time>2011-09-15T13:20:24Z</time>
      </trkpt>
      <trkpt lat="47.09291" lon="-0.73947">
        <ele>173.17</ele>
        <time>2011-09-15T13:20:31Z</time>
      </trkpt>
      <trkpt lat="47.09287" lon="-0.73958">
        <ele>172.69</ele>
        <time>2011-09-15T13:20:37Z</time>
      </trkpt>
      <trkpt lat="47.09282" lon="-0.73972">
        <ele>172.69</ele>
        <time>2011-09-15T13:20:45Z</time>
      </trkpt>
      <trkpt lat="47.09278" lon="-0.73984">
        <ele>172.69</ele>
        <time>2011-09-15T13:20:53Z</time>
      </trkpt>
      <trkpt lat="47.09271" lon="-0.74004">
        <ele>172.69</ele>
        <time>2011-09-15T13:21:01Z</time>
      </trkpt>
      <trkpt lat="47.09267" lon="-0.7402">
        <ele>173.17</ele>
        <time>2011-09-15T13:21:08Z</time>
      </trkpt>
      <trkpt lat="47.09265" lon="-0.74033">
        <ele>172.69</ele>
        <time>2011-09-15T13:21:17Z</time>
      </trkpt>
      <trkpt lat="47.09272" lon="-0.74046">
        <ele>171.25</ele>
        <time>2011-09-15T13:21:27Z</time>
      </trkpt>
      <trkpt lat="47.09277" lon="-0.74059">
        <ele>170.77</ele>
        <time>2011-09-15T13:21:32Z</time>
      </trkpt>
      <trkpt lat="47.09284" lon="-0.74068">
        <ele>170.29</ele>
        <time>2011-09-15T13:21:38Z</time>
      </trkpt>
      <trkpt lat="47.0929" lon="-0.7408">
        <ele>170.29</ele>
        <time>2011-09-15T13:21:45Z</time>
      </trkpt>
      <trkpt lat="47.09292" lon="-0.74104">
        <ele>169.33</ele>
        <time>2011-09-15T13:22:01Z</time>
      </trkpt>
      <trkpt lat="47.09291" lon="-0.74124">
        <ele>168.85</ele>
        <time>2011-09-15T13:22:08Z</time>
      </trkpt>
      <trkpt lat="47.09292" lon="-0.74143">
        <ele>168.85</ele>
        <time>2011-09-15T13:22:15Z</time>
      </trkpt>
      <trkpt lat="47.09294" lon="-0.74159">
        <ele>168.37</ele>
        <time>2011-09-15T13:22:21Z</time>
      </trkpt>
      <trkpt lat="47.09296" lon="-0.74172">
        <ele>167.89</ele>
        <time>2011-09-15T13:22:29Z</time>
      </trkpt>
      <trkpt lat="47.09297" lon="-0.74188">
        <ele>167.41</ele>
        <time>2011-09-15T13:22:35Z</time>
      </trkpt>
      <trkpt lat="47.09302" lon="-0.74208">
        <ele>166.45</ele>
        <time>2011-09-15T13:22:47Z</time>
      </trkpt>
      <trkpt lat="47.09308" lon="-0.74228">
        <ele>165.96</ele>
        <time>2011-09-15T13:22:56Z</time>
      </trkpt>
      <trkpt lat="47.09314" lon="-0.74239">
        <ele>165.48</ele>
        <time>2011-09-15T13:23:02Z</time>
      </trkpt>
      <trkpt lat="47.0932" lon="-0.74252">
        <ele>164.52</ele>
        <time>2011-09-15T13:23:08Z</time>
      </trkpt>
      <trkpt lat="47.09323" lon="-0.74267">
        <ele>164.04</ele>
        <time>2011-09-15T13:23:16Z</time>
      </trkpt>
      <trkpt lat="47.09325" lon="-0.74293">
        <ele>163.56</ele>
        <time>2011-09-15T13:23:29Z</time>
      </trkpt>
      <trkpt lat="47.09322" lon="-0.7431">
        <ele>163.08</ele>
        <time>2011-09-15T13:23:35Z</time>
      </trkpt>
      <trkpt lat="47.09322" lon="-0.74326">
        <ele>162.6</ele>
        <time>2011-09-15T13:23:42Z</time>
      </trkpt>
      <trkpt lat="47.09323" lon="-0.74351">
        <ele>161.64</ele>
        <time>2011-09-15T13:23:58Z</time>
      </trkpt>
      <trkpt lat="47.09327" lon="-0.74372">
        <ele>161.64</ele>
        <time>2011-09-15T13:24:06Z</time>
      </trkpt>
      <trkpt lat="47.09327" lon="-0.74389">
        <ele>162.12</ele>
        <time>2011-09-15T13:24:13Z</time>
      </trkpt>
      <trkpt lat="47.09326" lon="-0.74405">
        <ele>162.12</ele>
        <time>2011-09-15T13:24:20Z</time>
      </trkpt>
      <trkpt lat="47.09329" lon="-0.74422">
        <ele>161.64</ele>
        <time>2011-09-15T13:24:27Z</time>
      </trkpt>
      <trkpt lat="47.0933" lon="-0.74436">
        <ele>161.64</ele>
        <time>2011-09-15T13:24:33Z</time>
      </trkpt>
      <trkpt lat="47.0933" lon="-0.74449">
        <ele>161.16</ele>
        <time>2011-09-15T13:24:39Z</time>
      </trkpt>
      <trkpt lat="47.09333" lon="-0.74464">
        <ele>161.16</ele>
        <time>2011-09-15T13:24:47Z</time>
      </trkpt>
      <trkpt lat="47.0933" lon="-0.74479">
        <ele>161.16</ele>
        <time>2011-09-15T13:25:02Z</time>
      </trkpt>
      <trkpt lat="47.09329" lon="-0.74495">
        <ele>160.68</ele>
        <time>2011-09-15T13:25:08Z</time>
      </trkpt>
      <trkpt lat="47.09331" lon="-0.74512">
        <ele>160.68</ele>
        <time>2011-09-15T13:25:17Z</time>
      </trkpt>
      <trkpt lat="47.09334" lon="-0.74533">
        <ele>160.68</ele>
        <time>2011-09-15T13:25:26Z</time>
      </trkpt>
      <trkpt lat="47.09334" lon="-0.74551">
        <ele>160.2</ele>
        <time>2011-09-15T13:25:34Z</time>
      </trkpt>
      <trkpt lat="47.09336" lon="-0.74569">
        <ele>160.2</ele>
        <time>2011-09-15T13:25:41Z</time>
      </trkpt>
      <trkpt lat="47.09338" lon="-0.7459">
        <ele>160.2</ele>
        <time>2011-09-15T13:25:53Z</time>
      </trkpt>
      <trkpt lat="47.09341" lon="-0.74627">
        <ele>159.72</ele>
        <time>2011-09-15T13:26:12Z</time>
      </trkpt>
      <trkpt lat="47.09346" lon="-0.74666">
        <ele>159.72</ele>
        <time>2011-09-15T13:26:32Z</time>
      </trkpt>
      <trkpt lat="47.09351" lon="-0.7469">
        <ele>159.24</ele>
        <time>2011-09-15T13:26:40Z</time>
      </trkpt>
      <trkpt lat="47.09353" lon="-0.74708">
        <ele>159.24</ele>
        <time>2011-09-15T13:26:48Z</time>
      </trkpt>
      <trkpt lat="47.09354" lon="-0.7473">
        <ele>158.75</ele>
        <time>2011-09-15T13:26:58Z</time>
      </trkpt>
      <trkpt lat="47.09355" lon="-0.74751">
        <ele>158.75</ele>
        <time>2011-09-15T13:27:07Z</time>
      </trkpt>
      <trkpt lat="47.09357" lon="-0.74769">
        <ele>159.24</ele>
        <time>2011-09-15T13:27:15Z</time>
      </trkpt>
      <trkpt lat="47.09359" lon="-0.74787">
        <ele>159.24</ele>
        <time>2011-09-15T13:27:23Z</time>
      </trkpt>
      <trkpt lat="47.0936" lon="-0.74802">
        <ele>158.75</ele>
        <time>2011-09-15T13:27:30Z</time>
      </trkpt>
      <trkpt lat="47.09361" lon="-0.74818">
        <ele>158.27</ele>
        <time>2011-09-15T13:27:37Z</time>
      </trkpt>
      <trkpt lat="47.09363" lon="-0.74834">
        <ele>158.27</ele>
        <time>2011-09-15T13:27:45Z</time>
      </trkpt>
      <trkpt lat="47.09364" lon="-0.74848">
        <ele>158.27</ele>
        <time>2011-09-15T13:27:51Z</time>
      </trkpt>
      <trkpt lat="47.09365" lon="-0.74863">
        <ele>158.27</ele>
        <time>2011-09-15T13:27:58Z</time>
      </trkpt>
      <trkpt lat="47.09365" lon="-0.74877">
        <ele>158.27</ele>
        <time>2011-09-15T13:28:05Z</time>
      </trkpt>
      <trkpt lat="47.09362" lon="-0.74892">
        <ele>158.27</ele>
        <time>2011-09-15T13:28:15Z</time>
      </trkpt>
      <trkpt lat="47.09361" lon="-0.74908">
        <ele>158.27</ele>
        <time>2011-09-15T13:28:22Z</time>
      </trkpt>
      <trkpt lat="47.09361" lon="-0.74923">
        <ele>158.27</ele>
        <time>2011-09-15T13:28:26Z</time>
      </trkpt>
      <trkpt lat="47.09361" lon="-0.74937">
        <ele>158.27</ele>
        <time>2011-09-15T13:28:30Z</time>
      </trkpt>
      <trkpt lat="47.09362" lon="-0.7495">
        <ele>157.79</ele>
        <time>2011-09-15T13:28:35Z</time>
      </trkpt>
      <trkpt lat="47.09365" lon="-0.74959">
        <ele>157.79</ele>
        <time>2011-09-15T13:28:41Z</time>
      </trkpt>
      <trkpt lat="47.09364" lon="-0.74969">
        <ele>158.27</ele>
        <time>2011-09-15T13:28:50Z</time>
      </trkpt>
      <trkpt lat="47.09362" lon="-0.7499">
        <ele>158.27</ele>
        <time>2011-09-15T13:29:00Z</time>
      </trkpt>
      <trkpt lat="47.09361" lon="-0.75006">
        <ele>157.79</ele>
        <time>2011-09-15T13:29:08Z</time>
      </trkpt>
      <trkpt lat="47.0936" lon="-0.75021">
        <ele>158.27</ele>
        <time>2011-09-15T13:29:19Z</time>
      </trkpt>
      <trkpt lat="47.0936" lon="-0.75041">
        <ele>158.27</ele>
        <time>2011-09-15T13:29:31Z</time>
      </trkpt>
      <trkpt lat="47.09359" lon="-0.75074">
        <ele>158.75</ele>
        <time>2011-09-15T13:29:44Z</time>
      </trkpt>
      <trkpt lat="47.09358" lon="-0.75098">
        <ele>159.24</ele>
        <time>2011-09-15T13:29:56Z</time>
      </trkpt>
      <trkpt lat="47.0936" lon="-0.75125">
        <ele>159.72</ele>
        <time>2011-09-15T13:30:09Z</time>
      </trkpt>
      <trkpt lat="47.09361" lon="-0.75144">
        <ele>158.75</ele>
        <time>2011-09-15T13:30:17Z</time>
      </trkpt>
      <trkpt lat="47.09362" lon="-0.75162">
        <ele>159.72</ele>
        <time>2011-09-15T13:30:24Z</time>
      </trkpt>
      <trkpt lat="47.09364" lon="-0.7519">
        <ele>159.72</ele>
        <time>2011-09-15T13:30:39Z</time>
      </trkpt>
      <trkpt lat="47.09371" lon="-0.75212">
        <ele>159.72</ele>
        <time>2011-09-15T13:30:51Z</time>
      </trkpt>
      <trkpt lat="47.09378" lon="-0.75228">
        <ele>160.2</ele>
        <time>2011-09-15T13:31:01Z</time>
      </trkpt>
      <trkpt lat="47.09384" lon="-0.75253">
        <ele>160.68</ele>
        <time>2011-09-15T13:31:14Z</time>
      </trkpt>
      <trkpt lat="47.09387" lon="-0.75273">
        <ele>161.16</ele>
        <time>2011-09-15T13:31:22Z</time>
      </trkpt>
      <trkpt lat="47.09391" lon="-0.7529">
        <ele>161.64</ele>
        <time>2011-09-15T13:31:30Z</time>
      </trkpt>
      <trkpt lat="47.09394" lon="-0.75305">
        <ele>161.16</ele>
        <time>2011-09-15T13:31:36Z</time>
      </trkpt>
      <trkpt lat="47.09396" lon="-0.75318">
        <ele>161.16</ele>
        <time>2011-09-15T13:31:44Z</time>
      </trkpt>
      <trkpt lat="47.094" lon="-0.75338">
        <ele>161.16</ele>
        <time>2011-09-15T13:31:58Z</time>
      </trkpt>
      <trkpt lat="47.09401" lon="-0.75355">
        <ele>161.16</ele>
        <time>2011-09-15T13:32:03Z</time>
      </trkpt>
      <trkpt lat="47.09401" lon="-0.75369">
        <ele>161.16</ele>
        <time>2011-09-15T13:32:10Z</time>
      </trkpt>
      <trkpt lat="47.094" lon="-0.75383">
        <ele>161.64</ele>
        <time>2011-09-15T13:32:23Z</time>
      </trkpt>
      <trkpt lat="47.09396" lon="-0.754">
        <ele>161.64</ele>
        <time>2011-09-15T13:32:28Z</time>
      </trkpt>
      <trkpt lat="47.09389" lon="-0.75411">
        <ele>161.16</ele>
        <time>2011-09-15T13:32:33Z</time>
      </trkpt>
      <trkpt lat="47.09382" lon="-0.75424">
        <ele>161.16</ele>
        <time>2011-09-15T13:32:37Z</time>
      </trkpt>
      <trkpt lat="47.09379" lon="-0.75432">
        <ele>161.16</ele>
        <time>2011-09-15T13:32:40Z</time>
      </trkpt>
      <trkpt lat="47.09376" lon="-0.75441">
        <ele>160.68</ele>
        <time>2011-09-15T13:32:44Z</time>
      </trkpt>
      <trkpt lat="47.0938" lon="-0.75454">
        <ele>161.16</ele>
        <time>2011-09-15T13:32:53Z</time>
      </trkpt>
      <trkpt lat="47.09387" lon="-0.75473">
        <ele>161.16</ele>
        <time>2011-09-15T13:33:09Z</time>
      </trkpt>
      <trkpt lat="47.09397" lon="-0.75483">
        <ele>161.16</ele>
        <time>2011-09-15T13:33:14Z</time>
      </trkpt>
      <trkpt lat="47.09404" lon="-0.75496">
        <ele>161.16</ele>
        <time>2011-09-15T13:33:19Z</time>
      </trkpt>
      <trkpt lat="47.0941" lon="-0.75505">
        <ele>161.16</ele>
        <time>2011-09-15T13:33:23Z</time>
      </trkpt>
      <trkpt lat="47.09416" lon="-0.75514">
        <ele>161.16</ele>
        <time>2011-09-15T13:33:27Z</time>
      </trkpt>
      <trkpt lat="47.09418" lon="-0.75526">
        <ele>162.12</ele>
        <time>2011-09-15T13:33:33Z</time>
      </trkpt>
      <trkpt lat="47.09421" lon="-0.75538">
        <ele>162.12</ele>
        <time>2011-09-15T13:33:38Z</time>
      </trkpt>
      <trkpt lat="47.0942" lon="-0.75551">
        <ele>162.12</ele>
        <time>2011-09-15T13:33:49Z</time>
      </trkpt>
      <trkpt lat="47.09421" lon="-0.75575">
        <ele>161.16</ele>
        <time>2011-09-15T13:34:08Z</time>
      </trkpt>
      <trkpt lat="47.09424" lon="-0.75595">
        <ele>161.16</ele>
        <time>2011-09-15T13:34:20Z</time>
      </trkpt>
      <trkpt lat="47.09424" lon="-0.75624">
        <ele>161.64</ele>
        <time>2011-09-15T13:34:29Z</time>
      </trkpt>
      <trkpt lat="47.09422" lon="-0.75647">
        <ele>161.64</ele>
        <time>2011-09-15T13:34:34Z</time>
      </trkpt>
      <trkpt lat="47.09426" lon="-0.75663">
        <ele>161.64</ele>
        <time>2011-09-15T13:34:42Z</time>
      </trkpt>
      <trkpt lat="47.09426" lon="-0.75687">
        <ele>161.16</ele>
        <time>2011-09-15T13:34:55Z</time>
      </trkpt>
      <trkpt lat="47.09427" lon="-0.75711">
        <ele>161.64</ele>
        <time>2011-09-15T13:35:11Z</time>
      </trkpt>
      <trkpt lat="47.09432" lon="-0.75734">
        <ele>161.16</ele>
        <time>2011-09-15T13:35:20Z</time>
      </trkpt>
      <trkpt lat="47.09434" lon="-0.7575">
        <ele>161.16</ele>
        <time>2011-09-15T13:35:27Z</time>
      </trkpt>
      <trkpt lat="47.09435" lon="-0.75766">
        <ele>161.16</ele>
        <time>2011-09-15T13:35:33Z</time>
      </trkpt>
      <trkpt lat="47.09437" lon="-0.75781">
        <ele>160.68</ele>
        <time>2011-09-15T13:35:38Z</time>
      </trkpt>
      <trkpt lat="47.09444" lon="-0.75793">
        <ele>160.2</ele>
        <time>2011-09-15T13:35:45Z</time>
      </trkpt>
      <trkpt lat="47.09449" lon="-0.75811">
        <ele>160.2</ele>
        <time>2011-09-15T13:35:57Z</time>
      </trkpt>
      <trkpt lat="47.09454" lon="-0.75831">
        <ele>159.24</ele>
        <time>2011-09-15T13:36:05Z</time>
      </trkpt>
      <trkpt lat="47.09458" lon="-0.75846">
        <ele>159.72</ele>
        <time>2011-09-15T13:36:11Z</time>
      </trkpt>
      <trkpt lat="47.09459" lon="-0.75861">
        <ele>159.24</ele>
        <time>2011-09-15T13:36:18Z</time>
      </trkpt>
      <trkpt lat="47.09461" lon="-0.75876">
        <ele>158.75</ele>
        <time>2011-09-15T13:36:27Z</time>
      </trkpt>
      <trkpt lat="47.09455" lon="-0.75892">
        <ele>158.75</ele>
        <time>2011-09-15T13:36:38Z</time>
      </trkpt>
      <trkpt lat="47.0945" lon="-0.75903">
        <ele>159.24</ele>
        <time>2011-09-15T13:36:44Z</time>
      </trkpt>
      <trkpt lat="47.09442" lon="-0.75913">
        <ele>158.75</ele>
        <time>2011-09-15T13:36:52Z</time>
      </trkpt>
      <trkpt lat="47.09434" lon="-0.75926">
        <ele>158.75</ele>
        <time>2011-09-15T13:37:01Z</time>
      </trkpt>
      <trkpt lat="47.09425" lon="-0.75939">
        <ele>158.75</ele>
        <time>2011-09-15T13:37:08Z</time>
      </trkpt>
      <trkpt lat="47.09417" lon="-0.75952">
        <ele>158.27</ele>
        <time>2011-09-15T13:37:16Z</time>
      </trkpt>
      <trkpt lat="47.0941" lon="-0.75964">
        <ele>158.75</ele>
        <time>2011-09-15T13:37:23Z</time>
      </trkpt>
      <trkpt lat="47.09404" lon="-0.75976">
        <ele>158.27</ele>
        <time>2011-09-15T13:37:31Z</time>
      </trkpt>
      <trkpt lat="47.09398" lon="-0.75987">
        <ele>158.27</ele>
        <time>2011-09-15T13:37:37Z</time>
      </trkpt>
      <trkpt lat="47.09392" lon="-0.75997">
        <ele>158.27</ele>
        <time>2011-09-15T13:37:43Z</time>
      </trkpt>
      <trkpt lat="47.09387" lon="-0.7601">
        <ele>158.75</ele>
        <time>2011-09-15T13:37:49Z</time>
      </trkpt>
      <trkpt lat="47.09383" lon="-0.76022">
        <ele>158.27</ele>
        <time>2011-09-15T13:37:55Z</time>
      </trkpt>
      <trkpt lat="47.09378" lon="-0.76033">
        <ele>157.79</ele>
        <time>2011-09-15T13:38:01Z</time>
      </trkpt>
      <trkpt lat="47.09373" lon="-0.76048">
        <ele>157.31</ele>
        <time>2011-09-15T13:38:16Z</time>
      </trkpt>
      <trkpt lat="47.09367" lon="-0.7606">
        <ele>156.83</ele>
        <time>2011-09-15T13:38:22Z</time>
      </trkpt>
      <trkpt lat="47.09363" lon="-0.76074">
        <ele>156.83</ele>
        <time>2011-09-15T13:38:27Z</time>
      </trkpt>
      <trkpt lat="47.09357" lon="-0.76087">
        <ele>156.83</ele>
        <time>2011-09-15T13:38:32Z</time>
      </trkpt>
      <trkpt lat="47.09353" lon="-0.76099">
        <ele>156.83</ele>
        <time>2011-09-15T13:38:37Z</time>
      </trkpt>
      <trkpt lat="47.09349" lon="-0.7611">
        <ele>156.83</ele>
        <time>2011-09-15T13:38:42Z</time>
      </trkpt>
      <trkpt lat="47.09345" lon="-0.76119">
        <ele>156.35</ele>
        <time>2011-09-15T13:38:49Z</time>
      </trkpt>
      <trkpt lat="47.09342" lon="-0.76131">
        <ele>156.35</ele>
        <time>2011-09-15T13:38:56Z</time>
      </trkpt>
      <trkpt lat="47.09338" lon="-0.76144">
        <ele>156.35</ele>
        <time>2011-09-15T13:39:04Z</time>
      </trkpt>
      <trkpt lat="47.09333" lon="-0.76157">
        <ele>155.87</ele>
        <time>2011-09-15T13:39:11Z</time>
      </trkpt>
      <trkpt lat="47.09328" lon="-0.7617">
        <ele>155.87</ele>
        <time>2011-09-15T13:39:17Z</time>
      </trkpt>
      <trkpt lat="47.09323" lon="-0.76183">
        <ele>155.39</ele>
        <time>2011-09-15T13:39:22Z</time>
      </trkpt>
      <trkpt lat="47.09319" lon="-0.76194">
        <ele>155.39</ele>
        <time>2011-09-15T13:39:27Z</time>
      </trkpt>
      <trkpt lat="47.09317" lon="-0.76205">
        <ele>155.39</ele>
        <time>2011-09-15T13:39:32Z</time>
      </trkpt>
      <trkpt lat="47.09312" lon="-0.76213">
        <ele>155.39</ele>
        <time>2011-09-15T13:39:42Z</time>
      </trkpt>
      <trkpt lat="47.09309" lon="-0.76227">
        <ele>153.95</ele>
        <time>2011-09-15T13:39:54Z</time>
      </trkpt>
      <trkpt lat="47.09304" lon="-0.76242">
        <ele>154.91</ele>
        <time>2011-09-15T13:39:59Z</time>
      </trkpt>
      <trkpt lat="47.09301" lon="-0.76255">
        <ele>154.43</ele>
        <time>2011-09-15T13:40:04Z</time>
      </trkpt>
      <trkpt lat="47.09297" lon="-0.76269">
        <ele>153.95</ele>
        <time>2011-09-15T13:40:11Z</time>
      </trkpt>
      <trkpt lat="47.09294" lon="-0.76283">
        <ele>153.95</ele>
        <time>2011-09-15T13:40:17Z</time>
      </trkpt>
      <trkpt lat="47.09291" lon="-0.76296">
        <ele>153.95</ele>
        <time>2011-09-15T13:40:22Z</time>
      </trkpt>
      <trkpt lat="47.09287" lon="-0.7631">
        <ele>153.95</ele>
        <time>2011-09-15T13:40:29Z</time>
      </trkpt>
      <trkpt lat="47.09283" lon="-0.76323">
        <ele>153.95</ele>
        <time>2011-09-15T13:40:37Z</time>
      </trkpt>
      <trkpt lat="47.09277" lon="-0.76338">
        <ele>153.47</ele>
        <time>2011-09-15T13:40:47Z</time>
      </trkpt>
      <trkpt lat="47.09281" lon="-0.7636">
        <ele>152.99</ele>
        <time>2011-09-15T13:41:11Z</time>
      </trkpt>
      <trkpt lat="47.09282" lon="-0.76387">
        <ele>152.99</ele>
        <time>2011-09-15T13:41:22Z</time>
      </trkpt>
      <trkpt lat="47.09276" lon="-0.76409">
        <ele>152.99</ele>
        <time>2011-09-15T13:41:31Z</time>
      </trkpt>
      <trkpt lat="47.09272" lon="-0.76426">
        <ele>152.99</ele>
        <time>2011-09-15T13:41:40Z</time>
      </trkpt>
      <trkpt lat="47.09266" lon="-0.76443">
        <ele>152.99</ele>
        <time>2011-09-15T13:41:50Z</time>
      </trkpt>
      <trkpt lat="47.09259" lon="-0.76464">
        <ele>152.51</ele>
        <time>2011-09-15T13:42:04Z</time>
      </trkpt>
      <trkpt lat="47.0925" lon="-0.76481">
        <ele>152.03</ele>
        <time>2011-09-15T13:42:11Z</time>
      </trkpt>
      <trkpt lat="47.09242" lon="-0.76495">
        <ele>151.54</ele>
        <time>2011-09-15T13:42:16Z</time>
      </trkpt>
      <trkpt lat="47.09236" lon="-0.76508">
        <ele>151.54</ele>
        <time>2011-09-15T13:42:22Z</time>
      </trkpt>
      <trkpt lat="47.09231" lon="-0.76522">
        <ele>151.06</ele>
        <time>2011-09-15T13:42:32Z</time>
      </trkpt>
      <trkpt lat="47.09225" lon="-0.76536">
        <ele>151.54</ele>
        <time>2011-09-15T13:42:39Z</time>
      </trkpt>
      <trkpt lat="47.09218" lon="-0.76549">
        <ele>151.54</ele>
        <time>2011-09-15T13:42:45Z</time>
      </trkpt>
      <trkpt lat="47.09213" lon="-0.76563">
        <ele>151.54</ele>
        <time>2011-09-15T13:42:52Z</time>
      </trkpt>
      <trkpt lat="47.09209" lon="-0.7658">
        <ele>151.06</ele>
        <time>2011-09-15T13:43:04Z</time>
      </trkpt>
      <trkpt lat="47.09202" lon="-0.76594">
        <ele>150.58</ele>
        <time>2011-09-15T13:43:11Z</time>
      </trkpt>
      <trkpt lat="47.09196" lon="-0.76605">
        <ele>150.58</ele>
        <time>2011-09-15T13:43:16Z</time>
      </trkpt>
      <trkpt lat="47.0919" lon="-0.76618">
        <ele>150.58</ele>
        <time>2011-09-15T13:43:21Z</time>
      </trkpt>
      <trkpt lat="47.09187" lon="-0.76631">
        <ele>150.1</ele>
        <time>2011-09-15T13:43:26Z</time>
      </trkpt>
      <trkpt lat="47.09184" lon="-0.76644">
        <ele>149.62</ele>
        <time>2011-09-15T13:43:32Z</time>
      </trkpt>
      <trkpt lat="47.09181" lon="-0.76657">
        <ele>149.62</ele>
        <time>2011-09-15T13:43:38Z</time>
      </trkpt>
      <trkpt lat="47.09176" lon="-0.76669">
        <ele>149.62</ele>
        <time>2011-09-15T13:43:46Z</time>
      </trkpt>
      <trkpt lat="47.09173" lon="-0.76686">
        <ele>149.14</ele>
        <time>2011-09-15T13:43:58Z</time>
      </trkpt>
      <trkpt lat="47.09168" lon="-0.76703">
        <ele>149.14</ele>
        <time>2011-09-15T13:44:06Z</time>
      </trkpt>
      <trkpt lat="47.09163" lon="-0.76717">
        <ele>148.66</ele>
        <time>2011-09-15T13:44:13Z</time>
      </trkpt>
      <trkpt lat="47.09156" lon="-0.76731">
        <ele>148.18</ele>
        <time>2011-09-15T13:44:19Z</time>
      </trkpt>
      <trkpt lat="47.0915" lon="-0.76743">
        <ele>148.18</ele>
        <time>2011-09-15T13:44:24Z</time>
      </trkpt>
      <trkpt lat="47.09144" lon="-0.76752">
        <ele>147.7</ele>
        <time>2011-09-15T13:44:30Z</time>
      </trkpt>
      <trkpt lat="47.09136" lon="-0.7676">
        <ele>148.18</ele>
        <time>2011-09-15T13:44:39Z</time>
      </trkpt>
      <trkpt lat="47.09127" lon="-0.7677">
        <ele>147.7</ele>
        <time>2011-09-15T13:44:50Z</time>
      </trkpt>
      <trkpt lat="47.09116" lon="-0.76783">
        <ele>147.22</ele>
        <time>2011-09-15T13:45:02Z</time>
      </trkpt>
      <trkpt lat="47.09105" lon="-0.76794">
        <ele>147.22</ele>
        <time>2011-09-15T13:45:09Z</time>
      </trkpt>
      <trkpt lat="47.09097" lon="-0.76805">
        <ele>146.74</ele>
        <time>2011-09-15T13:45:15Z</time>
      </trkpt>
      <trkpt lat="47.09089" lon="-0.76818">
        <ele>146.26</ele>
        <time>2011-09-15T13:45:21Z</time>
      </trkpt>
      <trkpt lat="47.09083" lon="-0.76828">
        <ele>145.78</ele>
        <time>2011-09-15T13:45:26Z</time>
      </trkpt>
      <trkpt lat="47.09077" lon="-0.76838">
        <ele>145.78</ele>
        <time>2011-09-15T13:45:33Z</time>
      </trkpt>
      <trkpt lat="47.09069" lon="-0.76852">
        <ele>145.3</ele>
        <time>2011-09-15T13:45:47Z</time>
      </trkpt>
      <trkpt lat="47.09058" lon="-0.76867">
        <ele>144.82</ele>
        <time>2011-09-15T13:45:59Z</time>
      </trkpt>
      <trkpt lat="47.09046" lon="-0.76882">
        <ele>144.82</ele>
        <time>2011-09-15T13:46:06Z</time>
      </trkpt>
      <trkpt lat="47.09035" lon="-0.76884">
        <ele>145.3</ele>
        <time>2011-09-15T13:46:12Z</time>
      </trkpt>
      <trkpt lat="47.09029" lon="-0.76874">
        <ele>145.3</ele>
        <time>2011-09-15T13:46:20Z</time>
      </trkpt>
      <trkpt lat="47.09021" lon="-0.76863">
        <ele>144.82</ele>
        <time>2011-09-15T13:46:28Z</time>
      </trkpt>
      <trkpt lat="47.09015" lon="-0.76859">
        <ele>143.85</ele>
        <time>2011-09-15T13:46:44Z</time>
      </trkpt>
      <trkpt lat="47.09002" lon="-0.76861">
        <ele>143.37</ele>
        <time>2011-09-15T13:46:58Z</time>
      </trkpt>
      <trkpt lat="47.08987" lon="-0.76863">
        <ele>142.89</ele>
        <time>2011-09-15T13:47:07Z</time>
      </trkpt>
      <trkpt lat="47.08975" lon="-0.76869">
        <ele>142.89</ele>
        <time>2011-09-15T13:47:18Z</time>
      </trkpt>
      <trkpt lat="47.08962" lon="-0.76877">
        <ele>143.37</ele>
        <time>2011-09-15T13:47:27Z</time>
      </trkpt>
      <trkpt lat="47.0895" lon="-0.76876">
        <ele>143.85</ele>
        <time>2011-09-15T13:47:34Z</time>
      </trkpt>
      <trkpt lat="47.08939" lon="-0.7688">
        <ele>142.89</ele>
        <time>2011-09-15T13:47:42Z</time>
      </trkpt>
      <trkpt lat="47.08929" lon="-0.76886">
        <ele>142.41</ele>
        <time>2011-09-15T13:47:52Z</time>
      </trkpt>
      <trkpt lat="47.08919" lon="-0.76895">
        <ele>143.37</ele>
        <time>2011-09-15T13:48:02Z</time>
      </trkpt>
      <trkpt lat="47.08909" lon="-0.76908">
        <ele>142.89</ele>
        <time>2011-09-15T13:48:12Z</time>
      </trkpt>
      <trkpt lat="47.08902" lon="-0.76917">
        <ele>142.89</ele>
        <time>2011-09-15T13:48:22Z</time>
      </trkpt>
      <trkpt lat="47.08892" lon="-0.7692">
        <ele>142.41</ele>
        <time>2011-09-15T13:48:38Z</time>
      </trkpt>
      <trkpt lat="47.08883" lon="-0.76931">
        <ele>142.41</ele>
        <time>2011-09-15T13:48:46Z</time>
      </trkpt>
      <trkpt lat="47.08874" lon="-0.76944">
        <ele>141.93</ele>
        <time>2011-09-15T13:48:58Z</time>
      </trkpt>
      <trkpt lat="47.08864" lon="-0.76952">
        <ele>142.41</ele>
        <time>2011-09-15T13:49:11Z</time>
      </trkpt>
      <trkpt lat="47.08866" lon="-0.76957">
        <ele>142.41</ele>
        <time>2011-09-15T13:50:02Z</time>
      </trkpt>
      <trkpt lat="47.08878" lon="-0.76962">
        <ele>142.89</ele>
        <time>2011-09-15T13:50:17Z</time>
      </trkpt>
      <trkpt lat="47.08889" lon="-0.76956">
        <ele>142.41</ele>
        <time>2011-09-15T13:50:33Z</time>
      </trkpt>
      <trkpt lat="47.08898" lon="-0.76965">
        <ele>143.85</ele>
        <time>2011-09-15T13:50:50Z</time>
      </trkpt>
      <trkpt lat="47.08901" lon="-0.7698">
        <ele>144.34</ele>
        <time>2011-09-15T13:51:03Z</time>
      </trkpt>
      <trkpt lat="47.08899" lon="-0.76994">
        <ele>144.34</ele>
        <time>2011-09-15T13:51:13Z</time>
      </trkpt>
      <trkpt lat="47.08892" lon="-0.77006">
        <ele>144.82</ele>
        <time>2011-09-15T13:51:22Z</time>
      </trkpt>
      <trkpt lat="47.08888" lon="-0.77021">
        <ele>144.82</ele>
        <time>2011-09-15T13:51:33Z</time>
      </trkpt>
      <trkpt lat="47.08883" lon="-0.77036">
        <ele>144.82</ele>
        <time>2011-09-15T13:51:43Z</time>
      </trkpt>
      <trkpt lat="47.08877" lon="-0.77052">
        <ele>145.3</ele>
        <time>2011-09-15T13:51:53Z</time>
      </trkpt>
      <trkpt lat="47.08875" lon="-0.77071">
        <ele>145.3</ele>
        <time>2011-09-15T13:52:04Z</time>
      </trkpt>
      <trkpt lat="47.08882" lon="-0.77084">
        <ele>145.78</ele>
        <time>2011-09-15T13:52:25Z</time>
      </trkpt>
      <trkpt lat="47.08885" lon="-0.77106">
        <ele>145.3</ele>
        <time>2011-09-15T13:52:37Z</time>
      </trkpt>
      <trkpt lat="47.08879" lon="-0.77117">
        <ele>145.3</ele>
        <time>2011-09-15T13:52:52Z</time>
      </trkpt>
      <trkpt lat="47.08871" lon="-0.7713">
        <ele>145.78</ele>
        <time>2011-09-15T13:53:05Z</time>
      </trkpt>
      <trkpt lat="47.08862" lon="-0.77143">
        <ele>145.78</ele>
        <time>2011-09-15T13:53:13Z</time>
      </trkpt>
      <trkpt lat="47.08852" lon="-0.77157">
        <ele>145.3</ele>
        <time>2011-09-15T13:53:22Z</time>
      </trkpt>
      <trkpt lat="47.08843" lon="-0.77172">
        <ele>145.3</ele>
        <time>2011-09-15T13:53:30Z</time>
      </trkpt>
      <trkpt lat="47.08836" lon="-0.77185">
        <ele>145.3</ele>
        <time>2011-09-15T13:53:38Z</time>
      </trkpt>
      <trkpt lat="47.0883" lon="-0.77197">
        <ele>144.82</ele>
        <time>2011-09-15T13:53:44Z</time>
      </trkpt>
      <trkpt lat="47.08823" lon="-0.77208">
        <ele>144.82</ele>
        <time>2011-09-15T13:53:49Z</time>
      </trkpt>
      <trkpt lat="47.08818" lon="-0.77218">
        <ele>144.82</ele>
        <time>2011-09-15T13:53:54Z</time>
      </trkpt>
      <trkpt lat="47.0881" lon="-0.77231">
        <ele>144.34</ele>
        <time>2011-09-15T13:53:59Z</time>
      </trkpt>
      <trkpt lat="47.08805" lon="-0.7724">
        <ele>144.34</ele>
        <time>2011-09-15T13:54:05Z</time>
      </trkpt>
      <trkpt lat="47.08802" lon="-0.77254">
        <ele>143.85</ele>
        <time>2011-09-15T13:54:14Z</time>
      </trkpt>
      <trkpt lat="47.08798" lon="-0.77271">
        <ele>143.85</ele>
        <time>2011-09-15T13:54:23Z</time>
      </trkpt>
      <trkpt lat="47.08792" lon="-0.77287">
        <ele>143.37</ele>
        <time>2011-09-15T13:54:33Z</time>
      </trkpt>
      <trkpt lat="47.08787" lon="-0.77304">
        <ele>143.37</ele>
        <time>2011-09-15T13:54:42Z</time>
      </trkpt>
      <trkpt lat="47.08783" lon="-0.77323">
        <ele>142.89</ele>
        <time>2011-09-15T13:54:55Z</time>
      </trkpt>
      <trkpt lat="47.08779" lon="-0.77343">
        <ele>142.41</ele>
        <time>2011-09-15T13:55:07Z</time>
      </trkpt>
      <trkpt lat="47.08775" lon="-0.77369">
        <ele>141.93</ele>
        <time>2011-09-15T13:55:18Z</time>
      </trkpt>
      <trkpt lat="47.08773" lon="-0.77387">
        <ele>141.45</ele>
        <time>2011-09-15T13:55:26Z</time>
      </trkpt>
      <trkpt lat="47.08771" lon="-0.77407">
        <ele>141.45</ele>
        <time>2011-09-15T13:55:35Z</time>
      </trkpt>
      <trkpt lat="47.08769" lon="-0.77426">
        <ele>140.97</ele>
        <time>2011-09-15T13:55:42Z</time>
      </trkpt>
      <trkpt lat="47.08769" lon="-0.77449">
        <ele>140.97</ele>
        <time>2011-09-15T13:55:53Z</time>
      </trkpt>
      <trkpt lat="47.08768" lon="-0.77468">
        <ele>140.49</ele>
        <time>2011-09-15T13:56:05Z</time>
      </trkpt>
      <trkpt lat="47.08759" lon="-0.77477">
        <ele>140.97</ele>
        <time>2011-09-15T13:56:15Z</time>
      </trkpt>
      <trkpt lat="47.08747" lon="-0.77482">
        <ele>140.01</ele>
        <time>2011-09-15T13:56:24Z</time>
      </trkpt>
      <trkpt lat="47.08737" lon="-0.77484">
        <ele>140.01</ele>
        <time>2011-09-15T13:56:32Z</time>
      </trkpt>
      <trkpt lat="47.08726" lon="-0.77486">
        <ele>139.53</ele>
        <time>2011-09-15T13:56:40Z</time>
      </trkpt>
      <trkpt lat="47.08716" lon="-0.77488">
        <ele>139.05</ele>
        <time>2011-09-15T13:56:48Z</time>
      </trkpt>
      <trkpt lat="47.08705" lon="-0.7749">
        <ele>139.05</ele>
        <time>2011-09-15T13:56:56Z</time>
      </trkpt>
      <trkpt lat="47.08694" lon="-0.77491">
        <ele>138.57</ele>
        <time>2011-09-15T13:57:05Z</time>
      </trkpt>
      <trkpt lat="47.08681" lon="-0.77493">
        <ele>137.61</ele>
        <time>2011-09-15T13:57:17Z</time>
      </trkpt>
      <trkpt lat="47.08664" lon="-0.77497">
        <ele>137.61</ele>
        <time>2011-09-15T13:57:31Z</time>
      </trkpt>
      <trkpt lat="47.08648" lon="-0.77501">
        <ele>136.64</ele>
        <time>2011-09-15T13:57:47Z</time>
      </trkpt>
      <trkpt lat="47.0863" lon="-0.77503">
        <ele>136.64</ele>
        <time>2011-09-15T13:57:58Z</time>
      </trkpt>
      <trkpt lat="47.08618" lon="-0.77509">
        <ele>136.64</ele>
        <time>2011-09-15T13:58:06Z</time>
      </trkpt>
      <trkpt lat="47.08607" lon="-0.77509">
        <ele>137.13</ele>
        <time>2011-09-15T13:58:14Z</time>
      </trkpt>
      <trkpt lat="47.08595" lon="-0.77511">
        <ele>137.13</ele>
        <time>2011-09-15T13:58:23Z</time>
      </trkpt>
      <trkpt lat="47.08584" lon="-0.77513">
        <ele>137.13</ele>
        <time>2011-09-15T13:58:31Z</time>
      </trkpt>
      <trkpt lat="47.08566" lon="-0.77511">
        <ele>137.61</ele>
        <time>2011-09-15T13:58:41Z</time>
      </trkpt>
      <trkpt lat="47.08555" lon="-0.77514">
        <ele>137.61</ele>
        <time>2011-09-15T13:58:46Z</time>
      </trkpt>
      <trkpt lat="47.08545" lon="-0.77515">
        <ele>137.61</ele>
        <time>2011-09-15T13:58:59Z</time>
      </trkpt>
      <trkpt lat="47.08536" lon="-0.77517">
        <ele>138.09</ele>
        <time>2011-09-15T13:59:08Z</time>
      </trkpt>
      <trkpt lat="47.08525" lon="-0.77519">
        <ele>138.09</ele>
        <time>2011-09-15T13:59:14Z</time>
      </trkpt>
      <trkpt lat="47.08513" lon="-0.7752">
        <ele>138.09</ele>
        <time>2011-09-15T13:59:20Z</time>
      </trkpt>
      <trkpt lat="47.08503" lon="-0.77523">
        <ele>138.57</ele>
        <time>2011-09-15T13:59:25Z</time>
      </trkpt>
      <trkpt lat="47.08494" lon="-0.77526">
        <ele>138.09</ele>
        <time>2011-09-15T13:59:30Z</time>
      </trkpt>
      <trkpt lat="47.08489" lon="-0.77533">
        <ele>138.09</ele>
        <time>2011-09-15T13:59:45Z</time>
      </trkpt>
      <trkpt lat="47.08482" lon="-0.77548">
        <ele>138.09</ele>
        <time>2011-09-15T13:59:55Z</time>
      </trkpt>
      <trkpt lat="47.08478" lon="-0.77563">
        <ele>137.61</ele>
        <time>2011-09-15T14:00:01Z</time>
      </trkpt>
      <trkpt lat="47.08473" lon="-0.77576">
        <ele>138.09</ele>
        <time>2011-09-15T14:00:13Z</time>
      </trkpt>
      <trkpt lat="47.08466" lon="-0.7759">
        <ele>137.61</ele>
        <time>2011-09-15T14:00:20Z</time>
      </trkpt>
      <trkpt lat="47.08459" lon="-0.77604">
        <ele>137.61</ele>
        <time>2011-09-15T14:00:30Z</time>
      </trkpt>
      <trkpt lat="47.08453" lon="-0.7762">
        <ele>138.09</ele>
        <time>2011-09-15T14:00:36Z</time>
      </trkpt>
      <trkpt lat="47.08447" lon="-0.77633">
        <ele>138.09</ele>
        <time>2011-09-15T14:00:47Z</time>
      </trkpt>
      <trkpt lat="47.08442" lon="-0.77649">
        <ele>138.09</ele>
        <time>2011-09-15T14:00:56Z</time>
      </trkpt>
      <trkpt lat="47.08437" lon="-0.77669">
        <ele>139.05</ele>
        <time>2011-09-15T14:01:09Z</time>
      </trkpt>
      <trkpt lat="47.08431" lon="-0.77689">
        <ele>139.05</ele>
        <time>2011-09-15T14:01:20Z</time>
      </trkpt>
      <trkpt lat="47.08423" lon="-0.77704">
        <ele>139.05</ele>
        <time>2011-09-15T14:01:28Z</time>
      </trkpt>
      <trkpt lat="47.08415" lon="-0.7772">
        <ele>139.05</ele>
        <time>2011-09-15T14:01:37Z</time>
      </trkpt>
      <trkpt lat="47.08411" lon="-0.77732">
        <ele>140.01</ele>
        <time>2011-09-15T14:01:50Z</time>
      </trkpt>
      <trkpt lat="47.08409" lon="-0.77749">
        <ele>140.01</ele>
        <time>2011-09-15T14:01:56Z</time>
      </trkpt>
      <trkpt lat="47.08401" lon="-0.77764">
        <ele>140.01</ele>
        <time>2011-09-15T14:02:09Z</time>
      </trkpt>
      <trkpt lat="47.08394" lon="-0.77779">
        <ele>140.01</ele>
        <time>2011-09-15T14:02:16Z</time>
      </trkpt>
      <trkpt lat="47.0839" lon="-0.77794">
        <ele>140.01</ele>
        <time>2011-09-15T14:02:21Z</time>
      </trkpt>
      <trkpt lat="47.08387" lon="-0.77809">
        <ele>140.01</ele>
        <time>2011-09-15T14:02:32Z</time>
      </trkpt>
      <trkpt lat="47.0838" lon="-0.77825">
        <ele>140.01</ele>
        <time>2011-09-15T14:02:40Z</time>
      </trkpt>
      <trkpt lat="47.08373" lon="-0.77838">
        <ele>140.49</ele>
        <time>2011-09-15T14:02:46Z</time>
      </trkpt>
      <trkpt lat="47.08364" lon="-0.77846">
        <ele>140.49</ele>
        <time>2011-09-15T14:02:51Z</time>
      </trkpt>
      <trkpt lat="47.0836" lon="-0.77861">
        <ele>140.49</ele>
        <time>2011-09-15T14:03:06Z</time>
      </trkpt>
      <trkpt lat="47.08356" lon="-0.77884">
        <ele>140.49</ele>
        <time>2011-09-15T14:03:12Z</time>
      </trkpt>
      <trkpt lat="47.08353" lon="-0.77901">
        <ele>140.49</ele>
        <time>2011-09-15T14:03:21Z</time>
      </trkpt>
      <trkpt lat="47.08347" lon="-0.77919">
        <ele>139.53</ele>
        <time>2011-09-15T14:03:36Z</time>
      </trkpt>
      <trkpt lat="47.08341" lon="-0.77934">
        <ele>139.53</ele>
        <time>2011-09-15T14:03:42Z</time>
      </trkpt>
      <trkpt lat="47.08336" lon="-0.77949">
        <ele>139.05</ele>
        <time>2011-09-15T14:03:48Z</time>
      </trkpt>
      <trkpt lat="47.08331" lon="-0.77963">
        <ele>138.57</ele>
        <time>2011-09-15T14:03:56Z</time>
      </trkpt>
      <trkpt lat="47.08323" lon="-0.7798">
        <ele>138.57</ele>
        <time>2011-09-15T14:04:10Z</time>
      </trkpt>
      <trkpt lat="47.08314" lon="-0.77999">
        <ele>138.57</ele>
        <time>2011-09-15T14:04:21Z</time>
      </trkpt>
      <trkpt lat="47.08307" lon="-0.78019">
        <ele>139.05</ele>
        <time>2011-09-15T14:04:31Z</time>
      </trkpt>
      <trkpt lat="47.08301" lon="-0.78031">
        <ele>139.05</ele>
        <time>2011-09-15T14:04:40Z</time>
      </trkpt>
      <trkpt lat="47.08293" lon="-0.78047">
        <ele>139.53</ele>
        <time>2011-09-15T14:04:50Z</time>
      </trkpt>
      <trkpt lat="47.0829" lon="-0.7806">
        <ele>139.53</ele>
        <time>2011-09-15T14:04:55Z</time>
      </trkpt>
      <trkpt lat="47.08285" lon="-0.78075">
        <ele>140.01</ele>
        <time>2011-09-15T14:05:06Z</time>
      </trkpt>
      <trkpt lat="47.08281" lon="-0.7809">
        <ele>139.53</ele>
        <time>2011-09-15T14:05:16Z</time>
      </trkpt>
      <trkpt lat="47.08275" lon="-0.78102">
        <ele>139.53</ele>
        <time>2011-09-15T14:05:27Z</time>
      </trkpt>
      <trkpt lat="47.0827" lon="-0.78118">
        <ele>140.01</ele>
        <time>2011-09-15T14:05:38Z</time>
      </trkpt>
      <trkpt lat="47.08265" lon="-0.78133">
        <ele>140.49</ele>
        <time>2011-09-15T14:05:50Z</time>
      </trkpt>
      <trkpt lat="47.08256" lon="-0.78147">
        <ele>140.49</ele>
        <time>2011-09-15T14:05:58Z</time>
      </trkpt>
      <trkpt lat="47.08248" lon="-0.78163">
        <ele>140.49</ele>
        <time>2011-09-15T14:06:09Z</time>
      </trkpt>
      <trkpt lat="47.0824" lon="-0.78177">
        <ele>140.97</ele>
        <time>2011-09-15T14:06:22Z</time>
      </trkpt>
      <trkpt lat="47.0823" lon="-0.78191">
        <ele>140.01</ele>
        <time>2011-09-15T14:06:34Z</time>
      </trkpt>
      <trkpt lat="47.08222" lon="-0.78206">
        <ele>140.49</ele>
        <time>2011-09-15T14:06:45Z</time>
      </trkpt>
      <trkpt lat="47.08214" lon="-0.78223">
        <ele>140.49</ele>
        <time>2011-09-15T14:06:56Z</time>
      </trkpt>
      <trkpt lat="47.08208" lon="-0.78236">
        <ele>140.97</ele>
        <time>2011-09-15T14:07:06Z</time>
      </trkpt>
      <trkpt lat="47.08201" lon="-0.78251">
        <ele>141.45</ele>
        <time>2011-09-15T14:07:18Z</time>
      </trkpt>
      <trkpt lat="47.08194" lon="-0.78268">
        <ele>141.45</ele>
        <time>2011-09-15T14:07:30Z</time>
      </trkpt>
      <trkpt lat="47.08188" lon="-0.78281">
        <ele>141.45</ele>
        <time>2011-09-15T14:07:38Z</time>
      </trkpt>
      <trkpt lat="47.0818" lon="-0.78299">
        <ele>140.49</ele>
        <time>2011-09-15T14:07:50Z</time>
      </trkpt>
      <trkpt lat="47.08171" lon="-0.78309">
        <ele>140.49</ele>
        <time>2011-09-15T14:07:56Z</time>
      </trkpt>
      <trkpt lat="47.08164" lon="-0.78318">
        <ele>140.49</ele>
        <time>2011-09-15T14:08:03Z</time>
      </trkpt>
      <trkpt lat="47.0816" lon="-0.78334">
        <ele>140.49</ele>
        <time>2011-09-15T14:08:14Z</time>
      </trkpt>
      <trkpt lat="47.08152" lon="-0.7835">
        <ele>140.97</ele>
        <time>2011-09-15T14:08:23Z</time>
      </trkpt>
      <trkpt lat="47.08145" lon="-0.7837">
        <ele>140.49</ele>
        <time>2011-09-15T14:08:32Z</time>
      </trkpt>
      <trkpt lat="47.08137" lon="-0.7838">
        <ele>140.97</ele>
        <time>2011-09-15T14:08:39Z</time>
      </trkpt>
      <trkpt lat="47.08128" lon="-0.784">
        <ele>140.97</ele>
        <time>2011-09-15T14:08:49Z</time>
      </trkpt>
      <trkpt lat="47.08122" lon="-0.7842">
        <ele>140.49</ele>
        <time>2011-09-15T14:09:02Z</time>
      </trkpt>
      <trkpt lat="47.08117" lon="-0.78441">
        <ele>140.49</ele>
        <time>2011-09-15T14:09:16Z</time>
      </trkpt>
      <trkpt lat="47.08099" lon="-0.7846">
        <ele>140.97</ele>
        <time>2011-09-15T14:09:26Z</time>
      </trkpt>
      <trkpt lat="47.08098" lon="-0.78473">
        <ele>140.97</ele>
        <time>2011-09-15T14:09:37Z</time>
      </trkpt>
      <trkpt lat="47.08089" lon="-0.78491">
        <ele>140.49</ele>
        <time>2011-09-15T14:09:50Z</time>
      </trkpt>
      <trkpt lat="47.0808" lon="-0.78506">
        <ele>140.49</ele>
        <time>2011-09-15T14:10:01Z</time>
      </trkpt>
      <trkpt lat="47.08069" lon="-0.78517">
        <ele>140.49</ele>
        <time>2011-09-15T14:10:09Z</time>
      </trkpt>
      <trkpt lat="47.08059" lon="-0.78528">
        <ele>140.49</ele>
        <time>2011-09-15T14:10:18Z</time>
      </trkpt>
      <trkpt lat="47.08061" lon="-0.78541">
        <ele>140.49</ele>
        <time>2011-09-15T14:10:33Z</time>
      </trkpt>
      <trkpt lat="47.08068" lon="-0.78548">
        <ele>140.01</ele>
        <time>2011-09-15T14:10:48Z</time>
      </trkpt>
      <trkpt lat="47.08077" lon="-0.78568">
        <ele>139.53</ele>
        <time>2011-09-15T14:10:58Z</time>
      </trkpt>
      <trkpt lat="47.08087" lon="-0.78585">
        <ele>139.53</ele>
        <time>2011-09-15T14:11:06Z</time>
      </trkpt>
      <trkpt lat="47.08097" lon="-0.78596">
        <ele>140.01</ele>
        <time>2011-09-15T14:11:14Z</time>
      </trkpt>
      <trkpt lat="47.08107" lon="-0.78604">
        <ele>139.05</ele>
        <time>2011-09-15T14:11:22Z</time>
      </trkpt>
      <trkpt lat="47.08116" lon="-0.7861">
        <ele>139.05</ele>
        <time>2011-09-15T14:11:29Z</time>
      </trkpt>
      <trkpt lat="47.08126" lon="-0.78615">
        <ele>139.05</ele>
        <time>2011-09-15T14:11:37Z</time>
      </trkpt>
      <trkpt lat="47.08135" lon="-0.78624">
        <ele>138.57</ele>
        <time>2011-09-15T14:11:46Z</time>
      </trkpt>
      <trkpt lat="47.08143" lon="-0.78636">
        <ele>138.57</ele>
        <time>2011-09-15T14:11:54Z</time>
      </trkpt>
      <trkpt lat="47.08148" lon="-0.78649">
        <ele>138.57</ele>
        <time>2011-09-15T14:12:04Z</time>
      </trkpt>
      <trkpt lat="47.08141" lon="-0.78662">
        <ele>139.05</ele>
        <time>2011-09-15T14:12:14Z</time>
      </trkpt>
      <trkpt lat="47.08133" lon="-0.78661">
        <ele>138.57</ele>
        <time>2011-09-15T14:12:26Z</time>
      </trkpt>
      <trkpt lat="47.08126" lon="-0.78652">
        <ele>139.05</ele>
        <time>2011-09-15T14:12:33Z</time>
      </trkpt>
      <trkpt lat="47.08117" lon="-0.78654">
        <ele>139.05</ele>
        <time>2011-09-15T14:12:43Z</time>
      </trkpt>
      <trkpt lat="47.08111" lon="-0.78665">
        <ele>139.05</ele>
        <time>2011-09-15T14:12:50Z</time>
      </trkpt>
      <trkpt lat="47.08105" lon="-0.78675">
        <ele>139.05</ele>
        <time>2011-09-15T14:12:57Z</time>
      </trkpt>
      <trkpt lat="47.081" lon="-0.78686">
        <ele>139.05</ele>
        <time>2011-09-15T14:13:04Z</time>
      </trkpt>
      <trkpt lat="47.08095" lon="-0.78699">
        <ele>138.57</ele>
        <time>2011-09-15T14:13:13Z</time>
      </trkpt>
      <trkpt lat="47.08089" lon="-0.78711">
        <ele>138.57</ele>
        <time>2011-09-15T14:13:22Z</time>
      </trkpt>
      <trkpt lat="47.08084" lon="-0.78723">
        <ele>138.57</ele>
        <time>2011-09-15T14:13:32Z</time>
      </trkpt>
      <trkpt lat="47.08078" lon="-0.78736">
        <ele>138.09</ele>
        <time>2011-09-15T14:13:44Z</time>
      </trkpt>
      <trkpt lat="47.08072" lon="-0.78751">
        <ele>138.09</ele>
        <time>2011-09-15T14:13:54Z</time>
      </trkpt>
      <trkpt lat="47.08064" lon="-0.78763">
        <ele>137.13</ele>
        <time>2011-09-15T14:14:10Z</time>
      </trkpt>
      <trkpt lat="47.08053" lon="-0.78786">
        <ele>137.13</ele>
        <time>2011-09-15T14:14:22Z</time>
      </trkpt>
      <trkpt lat="47.08045" lon="-0.78804">
        <ele>137.13</ele>
        <time>2011-09-15T14:14:34Z</time>
      </trkpt>
      <trkpt lat="47.08038" lon="-0.78826">
        <ele>136.64</ele>
        <time>2011-09-15T14:14:45Z</time>
      </trkpt>
      <trkpt lat="47.08027" lon="-0.78844">
        <ele>136.64</ele>
        <time>2011-09-15T14:14:55Z</time>
      </trkpt>
      <trkpt lat="47.08015" lon="-0.78859">
        <ele>136.64</ele>
        <time>2011-09-15T14:15:05Z</time>
      </trkpt>
      <trkpt lat="47.08006" lon="-0.78874">
        <ele>136.64</ele>
        <time>2011-09-15T14:15:15Z</time>
      </trkpt>
      <trkpt lat="47.07998" lon="-0.7889">
        <ele>136.16</ele>
        <time>2011-09-15T14:15:24Z</time>
      </trkpt>
      <trkpt lat="47.07991" lon="-0.78907">
        <ele>136.64</ele>
        <time>2011-09-15T14:15:35Z</time>
      </trkpt>
      <trkpt lat="47.07981" lon="-0.78926">
        <ele>136.64</ele>
        <time>2011-09-15T14:15:45Z</time>
      </trkpt>
      <trkpt lat="47.07972" lon="-0.78943">
        <ele>135.68</ele>
        <time>2011-09-15T14:15:54Z</time>
      </trkpt>
      <trkpt lat="47.07965" lon="-0.78957">
        <ele>135.68</ele>
        <time>2011-09-15T14:16:03Z</time>
      </trkpt>
      <trkpt lat="47.07961" lon="-0.78975">
        <ele>135.68</ele>
        <time>2011-09-15T14:16:14Z</time>
      </trkpt>
      <trkpt lat="47.07951" lon="-0.78994">
        <ele>135.2</ele>
        <time>2011-09-15T14:16:26Z</time>
      </trkpt>
      <trkpt lat="47.07939" lon="-0.79013">
        <ele>135.2</ele>
        <time>2011-09-15T14:16:36Z</time>
      </trkpt>
      <trkpt lat="47.07931" lon="-0.79031">
        <ele>135.2</ele>
        <time>2011-09-15T14:16:50Z</time>
      </trkpt>
      <trkpt lat="47.07923" lon="-0.79049">
        <ele>134.72</ele>
        <time>2011-09-15T14:17:02Z</time>
      </trkpt>
      <trkpt lat="47.07909" lon="-0.79067">
        <ele>134.72</ele>
        <time>2011-09-15T14:17:14Z</time>
      </trkpt>
      <trkpt lat="47.07905" lon="-0.79072">
        <ele>133.28</ele>
        <time>2011-09-15T14:17:40Z</time>
      </trkpt>
      <trkpt lat="47.07895" lon="-0.79099">
        <ele>132.8</ele>
        <time>2011-09-15T14:17:59Z</time>
      </trkpt>
      <trkpt lat="47.07887" lon="-0.79114">
        <ele>132.32</ele>
        <time>2011-09-15T14:18:23Z</time>
      </trkpt>
      <trkpt lat="47.07859" lon="-0.79152">
        <ele>131.84</ele>
        <time>2011-09-15T14:18:33Z</time>
      </trkpt>
      <trkpt lat="47.07847" lon="-0.79176">
        <ele>131.36</ele>
        <time>2011-09-15T14:18:42Z</time>
      </trkpt>
      <trkpt lat="47.07837" lon="-0.79198">
        <ele>131.36</ele>
        <time>2011-09-15T14:18:49Z</time>
      </trkpt>
      <trkpt lat="47.0783" lon="-0.79219">
        <ele>130.88</ele>
        <time>2011-09-15T14:18:56Z</time>
      </trkpt>
      <trkpt lat="47.07817" lon="-0.79244">
        <ele>131.36</ele>
        <time>2011-09-15T14:19:06Z</time>
      </trkpt>
      <trkpt lat="47.0781" lon="-0.79264">
        <ele>130.88</ele>
        <time>2011-09-15T14:19:15Z</time>
      </trkpt>
      <trkpt lat="47.07806" lon="-0.79273">
        <ele>130.4</ele>
        <time>2011-09-15T14:19:33Z</time>
      </trkpt>
      <trkpt lat="47.07796" lon="-0.79296">
        <ele>130.88</ele>
        <time>2011-09-15T14:19:40Z</time>
      </trkpt>
      <trkpt lat="47.07792" lon="-0.79315">
        <ele>130.88</ele>
        <time>2011-09-15T14:19:46Z</time>
      </trkpt>
      <trkpt lat="47.07778" lon="-0.79332">
        <ele>130.88</ele>
        <time>2011-09-15T14:19:57Z</time>
      </trkpt>
      <trkpt lat="47.07774" lon="-0.79351">
        <ele>130.88</ele>
        <time>2011-09-15T14:20:03Z</time>
      </trkpt>
      <trkpt lat="47.07767" lon="-0.79366">
        <ele>130.88</ele>
        <time>2011-09-15T14:20:16Z</time>
      </trkpt>
      <trkpt lat="47.07761" lon="-0.79384">
        <ele>130.88</ele>
        <time>2011-09-15T14:20:21Z</time>
      </trkpt>
      <trkpt lat="47.07753" lon="-0.79401">
        <ele>130.4</ele>
        <time>2011-09-15T14:20:35Z</time>
      </trkpt>
      <trkpt lat="47.07745" lon="-0.7942">
        <ele>130.4</ele>
        <time>2011-09-15T14:20:44Z</time>
      </trkpt>
      <trkpt lat="47.07738" lon="-0.79438">
        <ele>130.4</ele>
        <time>2011-09-15T14:20:54Z</time>
      </trkpt>
      <trkpt lat="47.07731" lon="-0.7945">
        <ele>129.92</ele>
        <time>2011-09-15T14:21:11Z</time>
      </trkpt>
      <trkpt lat="47.07715" lon="-0.79475">
        <ele>130.4</ele>
        <time>2011-09-15T14:21:23Z</time>
      </trkpt>
      <trkpt lat="47.07703" lon="-0.79499">
        <ele>129.92</ele>
        <time>2011-09-15T14:21:31Z</time>
      </trkpt>
      <trkpt lat="47.07695" lon="-0.79515">
        <ele>130.4</ele>
        <time>2011-09-15T14:21:38Z</time>
      </trkpt>
      <trkpt lat="47.07686" lon="-0.79531">
        <ele>130.4</ele>
        <time>2011-09-15T14:21:45Z</time>
      </trkpt>
      <trkpt lat="47.07679" lon="-0.79547">
        <ele>129.92</ele>
        <time>2011-09-15T14:21:52Z</time>
      </trkpt>
      <trkpt lat="47.07672" lon="-0.7956">
        <ele>129.92</ele>
        <time>2011-09-15T14:22:00Z</time>
      </trkpt>
      <trkpt lat="47.07666" lon="-0.79574">
        <ele>129.43</ele>
        <time>2011-09-15T14:22:08Z</time>
      </trkpt>
      <trkpt lat="47.07659" lon="-0.79586">
        <ele>129.92</ele>
        <time>2011-09-15T14:22:16Z</time>
      </trkpt>
      <trkpt lat="47.07652" lon="-0.79599">
        <ele>129.43</ele>
        <time>2011-09-15T14:22:24Z</time>
      </trkpt>
      <trkpt lat="47.07647" lon="-0.79611">
        <ele>129.43</ele>
        <time>2011-09-15T14:22:32Z</time>
      </trkpt>
      <trkpt lat="47.07641" lon="-0.79623">
        <ele>129.43</ele>
        <time>2011-09-15T14:22:41Z</time>
      </trkpt>
      <trkpt lat="47.07636" lon="-0.79639">
        <ele>129.92</ele>
        <time>2011-09-15T14:22:51Z</time>
      </trkpt>
      <trkpt lat="47.07632" lon="-0.79656">
        <ele>129.43</ele>
        <time>2011-09-15T14:23:01Z</time>
      </trkpt>
      <trkpt lat="47.07627" lon="-0.7967">
        <ele>129.43</ele>
        <time>2011-09-15T14:23:12Z</time>
      </trkpt>
      <trkpt lat="47.07621" lon="-0.79686">
        <ele>129.43</ele>
        <time>2011-09-15T14:23:23Z</time>
      </trkpt>
      <trkpt lat="47.07615" lon="-0.79702">
        <ele>128.95</ele>
        <time>2011-09-15T14:23:36Z</time>
      </trkpt>
      <trkpt lat="47.07605" lon="-0.79719">
        <ele>128.95</ele>
        <time>2011-09-15T14:23:43Z</time>
      </trkpt>
      <trkpt lat="47.07599" lon="-0.79735">
        <ele>128.47</ele>
        <time>2011-09-15T14:23:49Z</time>
      </trkpt>
      <trkpt lat="47.07592" lon="-0.7975">
        <ele>127.99</ele>
        <time>2011-09-15T14:23:56Z</time>
      </trkpt>
      <trkpt lat="47.07586" lon="-0.79764">
        <ele>128.47</ele>
        <time>2011-09-15T14:24:04Z</time>
      </trkpt>
      <trkpt lat="47.07579" lon="-0.79779">
        <ele>127.99</ele>
        <time>2011-09-15T14:24:14Z</time>
      </trkpt>
      <trkpt lat="47.07574" lon="-0.79797">
        <ele>127.51</ele>
        <time>2011-09-15T14:24:24Z</time>
      </trkpt>
      <trkpt lat="47.07573" lon="-0.79808">
        <ele>127.51</ele>
        <time>2011-09-15T14:24:40Z</time>
      </trkpt>
      <trkpt lat="47.07569" lon="-0.79824">
        <ele>127.51</ele>
        <time>2011-09-15T14:24:45Z</time>
      </trkpt>
      <trkpt lat="47.07564" lon="-0.79839">
        <ele>127.51</ele>
        <time>2011-09-15T14:24:50Z</time>
      </trkpt>
      <trkpt lat="47.07554" lon="-0.79855">
        <ele>127.03</ele>
        <time>2011-09-15T14:25:04Z</time>
      </trkpt>
      <trkpt lat="47.07546" lon="-0.79864">
        <ele>126.55</ele>
        <time>2011-09-15T14:25:15Z</time>
      </trkpt>
      <trkpt lat="47.07539" lon="-0.79879">
        <ele>126.07</ele>
        <time>2011-09-15T14:25:21Z</time>
      </trkpt>
      <trkpt lat="47.07536" lon="-0.79895">
        <ele>126.07</ele>
        <time>2011-09-15T14:25:27Z</time>
      </trkpt>
      <trkpt lat="47.07531" lon="-0.79909">
        <ele>126.07</ele>
        <time>2011-09-15T14:25:31Z</time>
      </trkpt>
      <trkpt lat="47.07528" lon="-0.79921">
        <ele>126.07</ele>
        <time>2011-09-15T14:25:36Z</time>
      </trkpt>
      <trkpt lat="47.07526" lon="-0.79933">
        <ele>126.07</ele>
        <time>2011-09-15T14:25:42Z</time>
      </trkpt>
      <trkpt lat="47.07521" lon="-0.79944">
        <ele>126.07</ele>
        <time>2011-09-15T14:25:51Z</time>
      </trkpt>
      <trkpt lat="47.07508" lon="-0.79959">
        <ele>125.59</ele>
        <time>2011-09-15T14:26:06Z</time>
      </trkpt>
      <trkpt lat="47.07502" lon="-0.79975">
        <ele>124.63</ele>
        <time>2011-09-15T14:26:18Z</time>
      </trkpt>
      <trkpt lat="47.07489" lon="-0.79995">
        <ele>124.63</ele>
        <time>2011-09-15T14:26:29Z</time>
      </trkpt>
      <trkpt lat="47.07481" lon="-0.80013">
        <ele>124.15</ele>
        <time>2011-09-15T14:26:38Z</time>
      </trkpt>
      <trkpt lat="47.07475" lon="-0.80031">
        <ele>124.15</ele>
        <time>2011-09-15T14:26:46Z</time>
      </trkpt>
      <trkpt lat="47.07471" lon="-0.80045">
        <ele>124.15</ele>
        <time>2011-09-15T14:26:54Z</time>
      </trkpt>
      <trkpt lat="47.07466" lon="-0.8006">
        <ele>124.15</ele>
        <time>2011-09-15T14:27:01Z</time>
      </trkpt>
      <trkpt lat="47.0746" lon="-0.80075">
        <ele>124.15</ele>
        <time>2011-09-15T14:27:14Z</time>
      </trkpt>
      <trkpt lat="47.07452" lon="-0.8009">
        <ele>124.15</ele>
        <time>2011-09-15T14:27:22Z</time>
      </trkpt>
      <trkpt lat="47.07446" lon="-0.80101">
        <ele>123.67</ele>
        <time>2011-09-15T14:27:27Z</time>
      </trkpt>
      <trkpt lat="47.07441" lon="-0.80113">
        <ele>123.19</ele>
        <time>2011-09-15T14:27:42Z</time>
      </trkpt>
      <trkpt lat="47.07435" lon="-0.80128">
        <ele>123.19</ele>
        <time>2011-09-15T14:27:50Z</time>
      </trkpt>
      <trkpt lat="47.07427" lon="-0.80144">
        <ele>122.22</ele>
        <time>2011-09-15T14:27:59Z</time>
      </trkpt>
      <trkpt lat="47.07423" lon="-0.8016">
        <ele>122.22</ele>
        <time>2011-09-15T14:28:11Z</time>
      </trkpt>
      <trkpt lat="47.07416" lon="-0.80178">
        <ele>121.74</ele>
        <time>2011-09-15T14:28:21Z</time>
      </trkpt>
      <trkpt lat="47.0741" lon="-0.80197">
        <ele>120.78</ele>
        <time>2011-09-15T14:28:33Z</time>
      </trkpt>
      <trkpt lat="47.07404" lon="-0.8021">
        <ele>121.26</ele>
        <time>2011-09-15T14:28:40Z</time>
      </trkpt>
      <trkpt lat="47.07397" lon="-0.80228">
        <ele>120.3</ele>
        <time>2011-09-15T14:28:56Z</time>
      </trkpt>
      <trkpt lat="47.07392" lon="-0.80246">
        <ele>119.34</ele>
        <time>2011-09-15T14:29:06Z</time>
      </trkpt>
      <trkpt lat="47.07384" lon="-0.80261">
        <ele>119.34</ele>
        <time>2011-09-15T14:29:23Z</time>
      </trkpt>
      <trkpt lat="47.07374" lon="-0.80281">
        <ele>118.38</ele>
        <time>2011-09-15T14:29:40Z</time>
      </trkpt>
      <trkpt lat="47.07367" lon="-0.803">
        <ele>117.42</ele>
        <time>2011-09-15T14:29:55Z</time>
      </trkpt>
      <trkpt lat="47.07353" lon="-0.80326">
        <ele>116.94</ele>
        <time>2011-09-15T14:30:08Z</time>
      </trkpt>
      <trkpt lat="47.07346" lon="-0.80352">
        <ele>116.46</ele>
        <time>2011-09-15T14:30:21Z</time>
      </trkpt>
      <trkpt lat="47.07339" lon="-0.80369">
        <ele>115.5</ele>
        <time>2011-09-15T14:30:32Z</time>
      </trkpt>
      <trkpt lat="47.07331" lon="-0.80387">
        <ele>115.5</ele>
        <time>2011-09-15T14:30:42Z</time>
      </trkpt>
      <trkpt lat="47.07322" lon="-0.80411">
        <ele>113.57</ele>
        <time>2011-09-15T14:31:00Z</time>
      </trkpt>
      <trkpt lat="47.07313" lon="-0.80431">
        <ele>113.57</ele>
        <time>2011-09-15T14:31:11Z</time>
      </trkpt>
      <trkpt lat="47.07305" lon="-0.80449">
        <ele>112.13</ele>
        <time>2011-09-15T14:31:23Z</time>
      </trkpt>
      <trkpt lat="47.07298" lon="-0.80467">
        <ele>112.13</ele>
        <time>2011-09-15T14:31:30Z</time>
      </trkpt>
      <trkpt lat="47.07293" lon="-0.80484">
        <ele>111.17</ele>
        <time>2011-09-15T14:31:41Z</time>
      </trkpt>
      <trkpt lat="47.07286" lon="-0.80496">
        <ele>110.69</ele>
        <time>2011-09-15T14:31:48Z</time>
      </trkpt>
      <trkpt lat="47.07285" lon="-0.80516">
        <ele>110.21</ele>
        <time>2011-09-15T14:31:56Z</time>
      </trkpt>
      <trkpt lat="47.07287" lon="-0.80533">
        <ele>109.73</ele>
        <time>2011-09-15T14:32:04Z</time>
      </trkpt>
      <trkpt lat="47.07289" lon="-0.80552">
        <ele>109.25</ele>
        <time>2011-09-15T14:32:15Z</time>
      </trkpt>
      <trkpt lat="47.0729" lon="-0.80573">
        <ele>108.77</ele>
        <time>2011-09-15T14:32:30Z</time>
      </trkpt>
      <trkpt lat="47.07291" lon="-0.80591">
        <ele>108.29</ele>
        <time>2011-09-15T14:32:42Z</time>
      </trkpt>
      <trkpt lat="47.07298" lon="-0.80598">
        <ele>108.29</ele>
        <time>2011-09-15T14:32:52Z</time>
      </trkpt>
      <trkpt lat="47.07307" lon="-0.80604">
        <ele>108.77</ele>
        <time>2011-09-15T14:33:05Z</time>
      </trkpt>
      <trkpt lat="47.07322" lon="-0.80605">
        <ele>109.25</ele>
        <time>2011-09-15T14:33:14Z</time>
      </trkpt>
      <trkpt lat="47.07332" lon="-0.80606">
        <ele>108.77</ele>
        <time>2011-09-15T14:33:19Z</time>
      </trkpt>
      <trkpt lat="47.07342" lon="-0.80612">
        <ele>109.25</ele>
        <time>2011-09-15T14:33:29Z</time>
      </trkpt>
      <trkpt lat="47.0735" lon="-0.80618">
        <ele>109.73</ele>
        <time>2011-09-15T14:33:47Z</time>
      </trkpt>
      <trkpt lat="47.07363" lon="-0.80625">
        <ele>109.73</ele>
        <time>2011-09-15T14:33:52Z</time>
      </trkpt>
      <trkpt lat="47.07374" lon="-0.80629">
        <ele>109.25</ele>
        <time>2011-09-15T14:34:06Z</time>
      </trkpt>
      <trkpt lat="47.07381" lon="-0.8063">
        <ele>108.77</ele>
        <time>2011-09-15T14:34:27Z</time>
      </trkpt>
      <trkpt lat="47.07378" lon="-0.80641">
        <ele>108.77</ele>
        <time>2011-09-15T14:34:39Z</time>
      </trkpt>
      <trkpt lat="47.07384" lon="-0.80657">
        <ele>108.29</ele>
        <time>2011-09-15T14:34:46Z</time>
      </trkpt>
      <trkpt lat="47.07403" lon="-0.80669">
        <ele>107.81</ele>
        <time>2011-09-15T14:34:52Z</time>
      </trkpt>
      <trkpt lat="47.07421" lon="-0.80682">
        <ele>106.84</ele>
        <time>2011-09-15T14:34:58Z</time>
      </trkpt>
      <trkpt lat="47.07432" lon="-0.80698">
        <ele>106.84</ele>
        <time>2011-09-15T14:35:03Z</time>
      </trkpt>
      <trkpt lat="47.07433" lon="-0.8071">
        <ele>106.84</ele>
        <time>2011-09-15T14:35:07Z</time>
      </trkpt>
      <trkpt lat="47.0743" lon="-0.80724">
        <ele>106.84</ele>
        <time>2011-09-15T14:35:10Z</time>
      </trkpt>
      <trkpt lat="47.07431" lon="-0.80735">
        <ele>107.32</ele>
        <time>2011-09-15T14:35:13Z</time>
      </trkpt>
      <trkpt lat="47.07432" lon="-0.80747">
        <ele>106.84</ele>
        <time>2011-09-15T14:35:16Z</time>
      </trkpt>
      <trkpt lat="47.07431" lon="-0.80757">
        <ele>106.84</ele>
        <time>2011-09-15T14:35:19Z</time>
      </trkpt>
      <trkpt lat="47.07433" lon="-0.80772">
        <ele>106.84</ele>
        <time>2011-09-15T14:35:24Z</time>
      </trkpt>
      <trkpt lat="47.07431" lon="-0.80782">
        <ele>106.36</ele>
        <time>2011-09-15T14:35:30Z</time>
      </trkpt>
      <trkpt lat="47.07426" lon="-0.80786">
        <ele>106.36</ele>
        <time>2011-09-15T14:35:35Z</time>
      </trkpt>
      <trkpt lat="47.0743" lon="-0.80787">
        <ele>106.36</ele>
        <time>2011-09-15T14:35:49Z</time>
      </trkpt>
      <trkpt lat="47.07435" lon="-0.80807">
        <ele>106.36</ele>
        <time>2011-09-15T14:36:00Z</time>
      </trkpt>
      <trkpt lat="47.07436" lon="-0.80824">
        <ele>106.36</ele>
        <time>2011-09-15T14:36:05Z</time>
      </trkpt>
      <trkpt lat="47.07434" lon="-0.8084">
        <ele>106.36</ele>
        <time>2011-09-15T14:36:09Z</time>
      </trkpt>
      <trkpt lat="47.07431" lon="-0.80857">
        <ele>106.36</ele>
        <time>2011-09-15T14:36:13Z</time>
      </trkpt>
      <trkpt lat="47.07435" lon="-0.80871">
        <ele>106.84</ele>
        <time>2011-09-15T14:36:17Z</time>
      </trkpt>
      <trkpt lat="47.07437" lon="-0.80884">
        <ele>106.36</ele>
        <time>2011-09-15T14:36:21Z</time>
      </trkpt>
      <trkpt lat="47.07439" lon="-0.80891">
        <ele>106.84</ele>
        <time>2011-09-15T14:36:25Z</time>
      </trkpt>
      <trkpt lat="47.07439" lon="-0.80897">
        <ele>106.36</ele>
        <time>2011-09-15T14:36:31Z</time>
      </trkpt>
      <trkpt lat="47.07439" lon="-0.80907">
        <ele>105.88</ele>
        <time>2011-09-15T14:36:37Z</time>
      </trkpt>
      <trkpt lat="47.07437" lon="-0.8092">
        <ele>106.36</ele>
        <time>2011-09-15T14:36:43Z</time>
      </trkpt>
      <trkpt lat="47.07434" lon="-0.80933">
        <ele>106.84</ele>
        <time>2011-09-15T14:36:49Z</time>
      </trkpt>
      <trkpt lat="47.07433" lon="-0.80946">
        <ele>106.36</ele>
        <time>2011-09-15T14:36:55Z</time>
      </trkpt>
      <trkpt lat="47.07431" lon="-0.80956">
        <ele>106.36</ele>
        <time>2011-09-15T14:37:01Z</time>
      </trkpt>
      <trkpt lat="47.0743" lon="-0.80967">
        <ele>106.84</ele>
        <time>2011-09-15T14:37:07Z</time>
      </trkpt>
      <trkpt lat="47.07427" lon="-0.8098">
        <ele>106.84</ele>
        <time>2011-09-15T14:37:15Z</time>
      </trkpt>
      <trkpt lat="47.07422" lon="-0.80993">
        <ele>106.84</ele>
        <time>2011-09-15T14:37:24Z</time>
      </trkpt>
      <trkpt lat="47.07418" lon="-0.81008">
        <ele>106.84</ele>
        <time>2011-09-15T14:37:28Z</time>
      </trkpt>
      <trkpt lat="47.0742" lon="-0.81021">
        <ele>106.84</ele>
        <time>2011-09-15T14:37:31Z</time>
      </trkpt>
      <trkpt lat="47.07424" lon="-0.81032">
        <ele>106.84</ele>
        <time>2011-09-15T14:37:35Z</time>
      </trkpt>
      <trkpt lat="47.07428" lon="-0.81043">
        <ele>106.84</ele>
        <time>2011-09-15T14:37:41Z</time>
      </trkpt>
      <trkpt lat="47.07428" lon="-0.81053">
        <ele>106.84</ele>
        <time>2011-09-15T14:37:48Z</time>
      </trkpt>
      <trkpt lat="47.07432" lon="-0.81061">
        <ele>106.84</ele>
        <time>2011-09-15T14:38:01Z</time>
      </trkpt>
      <trkpt lat="47.07424" lon="-0.81073">
        <ele>107.32</ele>
        <time>2011-09-15T14:38:12Z</time>
      </trkpt>
      <trkpt lat="47.07424" lon="-0.811">
        <ele>106.84</ele>
        <time>2011-09-15T14:38:23Z</time>
      </trkpt>
      <trkpt lat="47.07427" lon="-0.8112">
        <ele>106.84</ele>
        <time>2011-09-15T14:38:30Z</time>
      </trkpt>
      <trkpt lat="47.07429" lon="-0.81141">
        <ele>106.84</ele>
        <time>2011-09-15T14:38:37Z</time>
      </trkpt>
      <trkpt lat="47.07433" lon="-0.81157">
        <ele>106.84</ele>
        <time>2011-09-15T14:38:43Z</time>
      </trkpt>
      <trkpt lat="47.07434" lon="-0.81173">
        <ele>106.84</ele>
        <time>2011-09-15T14:38:48Z</time>
      </trkpt>
      <trkpt lat="47.07434" lon="-0.81186">
        <ele>107.32</ele>
        <time>2011-09-15T14:38:55Z</time>
      </trkpt>
      <trkpt lat="47.07432" lon="-0.812">
        <ele>107.32</ele>
        <time>2011-09-15T14:39:02Z</time>
      </trkpt>
      <trkpt lat="47.0743" lon="-0.81215">
        <ele>106.84</ele>
        <time>2011-09-15T14:39:07Z</time>
      </trkpt>
      <trkpt lat="47.07426" lon="-0.81229">
        <ele>107.32</ele>
        <time>2011-09-15T14:39:11Z</time>
      </trkpt>
      <trkpt lat="47.07422" lon="-0.8124">
        <ele>107.32</ele>
        <time>2011-09-15T14:39:15Z</time>
      </trkpt>
      <trkpt lat="47.07424" lon="-0.81247">
        <ele>107.32</ele>
        <time>2011-09-15T14:39:21Z</time>
      </trkpt>
      <trkpt lat="47.07426" lon="-0.81257">
        <ele>107.32</ele>
        <time>2011-09-15T14:39:29Z</time>
      </trkpt>
      <trkpt lat="47.07434" lon="-0.81272">
        <ele>107.32</ele>
        <time>2011-09-15T14:39:36Z</time>
      </trkpt>
      <trkpt lat="47.07439" lon="-0.81288">
        <ele>107.32</ele>
        <time>2011-09-15T14:39:44Z</time>
      </trkpt>
      <trkpt lat="47.07442" lon="-0.81304">
        <ele>107.32</ele>
        <time>2011-09-15T14:39:53Z</time>
      </trkpt>
      <trkpt lat="47.07444" lon="-0.8132">
        <ele>107.81</ele>
        <time>2011-09-15T14:40:02Z</time>
      </trkpt>
      <trkpt lat="47.07447" lon="-0.81335">
        <ele>107.81</ele>
        <time>2011-09-15T14:40:11Z</time>
      </trkpt>
      <trkpt lat="47.07448" lon="-0.81352">
        <ele>107.81</ele>
        <time>2011-09-15T14:40:20Z</time>
      </trkpt>
      <trkpt lat="47.07449" lon="-0.81368">
        <ele>107.81</ele>
        <time>2011-09-15T14:40:29Z</time>
      </trkpt>
      <trkpt lat="47.07448" lon="-0.81386">
        <ele>108.29</ele>
        <time>2011-09-15T14:40:37Z</time>
      </trkpt>
      <trkpt lat="47.07446" lon="-0.81401">
        <ele>108.29</ele>
        <time>2011-09-15T14:40:43Z</time>
      </trkpt>
      <trkpt lat="47.07446" lon="-0.81414">
        <ele>108.29</ele>
        <time>2011-09-15T14:40:51Z</time>
      </trkpt>
      <trkpt lat="47.07447" lon="-0.81431">
        <ele>108.29</ele>
        <time>2011-09-15T14:40:59Z</time>
      </trkpt>
      <trkpt lat="47.07449" lon="-0.81444">
        <ele>108.29</ele>
        <time>2011-09-15T14:41:05Z</time>
      </trkpt>
      <trkpt lat="47.07448" lon="-0.81458">
        <ele>108.29</ele>
        <time>2011-09-15T14:41:15Z</time>
      </trkpt>
      <trkpt lat="47.07441" lon="-0.81471">
        <ele>107.81</ele>
        <time>2011-09-15T14:41:22Z</time>
      </trkpt>
      <trkpt lat="47.07435" lon="-0.8148">
        <ele>107.81</ele>
        <time>2011-09-15T14:41:28Z</time>
      </trkpt>
      <trkpt lat="47.07426" lon="-0.81489">
        <ele>107.81</ele>
        <time>2011-09-15T14:41:36Z</time>
      </trkpt>
      <trkpt lat="47.07416" lon="-0.81494">
        <ele>108.29</ele>
        <time>2011-09-15T14:41:45Z</time>
      </trkpt>
      <trkpt lat="47.07405" lon="-0.81494">
        <ele>108.77</ele>
        <time>2011-09-15T14:41:51Z</time>
      </trkpt>
      <trkpt lat="47.07396" lon="-0.81494">
        <ele>108.77</ele>
        <time>2011-09-15T14:41:58Z</time>
      </trkpt>
      <trkpt lat="47.07387" lon="-0.81493">
        <ele>108.29</ele>
        <time>2011-09-15T14:42:05Z</time>
      </trkpt>
      <trkpt lat="47.07377" lon="-0.81492">
        <ele>109.25</ele>
        <time>2011-09-15T14:42:13Z</time>
      </trkpt>
      <trkpt lat="47.07369" lon="-0.81489">
        <ele>109.73</ele>
        <time>2011-09-15T14:42:22Z</time>
      </trkpt>
      <trkpt lat="47.07359" lon="-0.81487">
        <ele>109.25</ele>
        <time>2011-09-15T14:42:29Z</time>
      </trkpt>
      <trkpt lat="47.07349" lon="-0.81485">
        <ele>109.25</ele>
        <time>2011-09-15T14:42:38Z</time>
      </trkpt>
      <trkpt lat="47.07339" lon="-0.81481">
        <ele>109.25</ele>
        <time>2011-09-15T14:42:48Z</time>
      </trkpt>
      <trkpt lat="47.07329" lon="-0.81481">
        <ele>109.25</ele>
        <time>2011-09-15T14:42:53Z</time>
      </trkpt>
      <trkpt lat="47.07319" lon="-0.8148">
        <ele>109.73</ele>
        <time>2011-09-15T14:43:06Z</time>
      </trkpt>
      <trkpt lat="47.07309" lon="-0.81477">
        <ele>109.73</ele>
        <time>2011-09-15T14:43:11Z</time>
      </trkpt>
      <trkpt lat="47.07301" lon="-0.81474">
        <ele>109.73</ele>
        <time>2011-09-15T14:43:20Z</time>
      </trkpt>
      <trkpt lat="47.07289" lon="-0.81473">
        <ele>109.25</ele>
        <time>2011-09-15T14:43:32Z</time>
      </trkpt>
      <trkpt lat="47.07278" lon="-0.81474">
        <ele>109.25</ele>
        <time>2011-09-15T14:43:36Z</time>
      </trkpt>
      <trkpt lat="47.07268" lon="-0.81472">
        <ele>109.73</ele>
        <time>2011-09-15T14:43:40Z</time>
      </trkpt>
      <trkpt lat="47.07261" lon="-0.8147">
        <ele>109.73</ele>
        <time>2011-09-15T14:43:45Z</time>
      </trkpt>
      <trkpt lat="47.07249" lon="-0.81468">
        <ele>109.73</ele>
        <time>2011-09-15T14:44:02Z</time>
      </trkpt>
      <trkpt lat="47.07234" lon="-0.81465">
        <ele>109.25</ele>
        <time>2011-09-15T14:44:11Z</time>
      </trkpt>
      <trkpt lat="47.07222" lon="-0.81462">
        <ele>110.69</ele>
        <time>2011-09-15T14:44:20Z</time>
      </trkpt>
      <trkpt lat="47.07211" lon="-0.8146">
        <ele>110.21</ele>
        <time>2011-09-15T14:44:27Z</time>
      </trkpt>
      <trkpt lat="47.07201" lon="-0.81458">
        <ele>109.73</ele>
        <time>2011-09-15T14:44:34Z</time>
      </trkpt>
      <trkpt lat="47.0719" lon="-0.81456">
        <ele>110.21</ele>
        <time>2011-09-15T14:44:42Z</time>
      </trkpt>
      <trkpt lat="47.0718" lon="-0.81454">
        <ele>110.21</ele>
        <time>2011-09-15T14:44:49Z</time>
      </trkpt>
      <trkpt lat="47.07171" lon="-0.81452">
        <ele>110.21</ele>
        <time>2011-09-15T14:44:56Z</time>
      </trkpt>
      <trkpt lat="47.0716" lon="-0.81451">
        <ele>110.69</ele>
        <time>2011-09-15T14:45:03Z</time>
      </trkpt>
      <trkpt lat="47.0715" lon="-0.8145">
        <ele>110.21</ele>
        <time>2011-09-15T14:45:11Z</time>
      </trkpt>
      <trkpt lat="47.07141" lon="-0.81448">
        <ele>110.21</ele>
        <time>2011-09-15T14:45:18Z</time>
      </trkpt>
      <trkpt lat="47.07131" lon="-0.81446">
        <ele>110.69</ele>
        <time>2011-09-15T14:45:26Z</time>
      </trkpt>
      <trkpt lat="47.07121" lon="-0.81444">
        <ele>110.69</ele>
        <time>2011-09-15T14:45:33Z</time>
      </trkpt>
      <trkpt lat="47.07111" lon="-0.81443">
        <ele>109.73</ele>
        <time>2011-09-15T14:45:41Z</time>
      </trkpt>
      <trkpt lat="47.07101" lon="-0.81445">
        <ele>110.21</ele>
        <time>2011-09-15T14:45:50Z</time>
      </trkpt>
      <trkpt lat="47.07091" lon="-0.81446">
        <ele>110.21</ele>
        <time>2011-09-15T14:45:58Z</time>
      </trkpt>
      <trkpt lat="47.0708" lon="-0.81448">
        <ele>110.21</ele>
        <time>2011-09-15T14:46:05Z</time>
      </trkpt>
      <trkpt lat="47.0707" lon="-0.81452">
        <ele>110.69</ele>
        <time>2011-09-15T14:46:11Z</time>
      </trkpt>
      <trkpt lat="47.07061" lon="-0.81455">
        <ele>110.69</ele>
        <time>2011-09-15T14:46:17Z</time>
      </trkpt>
      <trkpt lat="47.07053" lon="-0.8146">
        <ele>110.69</ele>
        <time>2011-09-15T14:46:23Z</time>
      </trkpt>
      <trkpt lat="47.07045" lon="-0.81464">
        <ele>110.21</ele>
        <time>2011-09-15T14:46:28Z</time>
      </trkpt>
      <trkpt lat="47.07038" lon="-0.81468">
        <ele>110.21</ele>
        <time>2011-09-15T14:46:34Z</time>
      </trkpt>
      <trkpt lat="47.0703" lon="-0.81473">
        <ele>110.69</ele>
        <time>2011-09-15T14:46:41Z</time>
      </trkpt>
      <trkpt lat="47.07022" lon="-0.81479">
        <ele>111.17</ele>
        <time>2011-09-15T14:46:53Z</time>
      </trkpt>
      <trkpt lat="47.07012" lon="-0.81486">
        <ele>110.69</ele>
        <time>2011-09-15T14:46:59Z</time>
      </trkpt>
      <trkpt lat="47.07002" lon="-0.8149">
        <ele>111.17</ele>
        <time>2011-09-15T14:47:05Z</time>
      </trkpt>
      <trkpt lat="47.06993" lon="-0.81498">
        <ele>111.17</ele>
        <time>2011-09-15T14:47:15Z</time>
      </trkpt>
      <trkpt lat="47.0698" lon="-0.81506">
        <ele>111.17</ele>
        <time>2011-09-15T14:47:26Z</time>
      </trkpt>
      <trkpt lat="47.06969" lon="-0.81513">
        <ele>111.17</ele>
        <time>2011-09-15T14:47:33Z</time>
      </trkpt>
      <trkpt lat="47.0696" lon="-0.8152">
        <ele>111.65</ele>
        <time>2011-09-15T14:47:39Z</time>
      </trkpt>
      <trkpt lat="47.06951" lon="-0.81524">
        <ele>111.65</ele>
        <time>2011-09-15T14:47:45Z</time>
      </trkpt>
      <trkpt lat="47.06943" lon="-0.8153">
        <ele>111.65</ele>
        <time>2011-09-15T14:47:53Z</time>
      </trkpt>
      <trkpt lat="47.06934" lon="-0.81537">
        <ele>112.13</ele>
        <time>2011-09-15T14:48:00Z</time>
      </trkpt>
      <trkpt lat="47.06925" lon="-0.81544">
        <ele>112.13</ele>
        <time>2011-09-15T14:48:08Z</time>
      </trkpt>
      <trkpt lat="47.06914" lon="-0.81551">
        <ele>112.13</ele>
        <time>2011-09-15T14:48:17Z</time>
      </trkpt>
      <trkpt lat="47.06904" lon="-0.81557">
        <ele>112.13</ele>
        <time>2011-09-15T14:48:25Z</time>
      </trkpt>
      <trkpt lat="47.06893" lon="-0.81561">
        <ele>112.61</ele>
        <time>2011-09-15T14:48:31Z</time>
      </trkpt>
      <trkpt lat="47.06885" lon="-0.81558">
        <ele>112.13</ele>
        <time>2011-09-15T14:48:40Z</time>
      </trkpt>
      <trkpt lat="47.06877" lon="-0.81549">
        <ele>112.13</ele>
        <time>2011-09-15T14:48:48Z</time>
      </trkpt>
      <trkpt lat="47.0687" lon="-0.8154">
        <ele>112.13</ele>
        <time>2011-09-15T14:48:55Z</time>
      </trkpt>
      <trkpt lat="47.0686" lon="-0.81533">
        <ele>112.61</ele>
        <time>2011-09-15T14:49:02Z</time>
      </trkpt>
      <trkpt lat="47.06853" lon="-0.81525">
        <ele>112.13</ele>
        <time>2011-09-15T14:49:10Z</time>
      </trkpt>
      <trkpt lat="47.06844" lon="-0.8152">
        <ele>112.61</ele>
        <time>2011-09-15T14:49:18Z</time>
      </trkpt>
      <trkpt lat="47.06836" lon="-0.8151">
        <ele>112.61</ele>
        <time>2011-09-15T14:49:25Z</time>
      </trkpt>
      <trkpt lat="47.06827" lon="-0.81505">
        <ele>112.61</ele>
        <time>2011-09-15T14:49:33Z</time>
      </trkpt>
      <trkpt lat="47.06818" lon="-0.81499">
        <ele>113.09</ele>
        <time>2011-09-15T14:49:40Z</time>
      </trkpt>
      <trkpt lat="47.06809" lon="-0.81492">
        <ele>113.09</ele>
        <time>2011-09-15T14:49:48Z</time>
      </trkpt>
      <trkpt lat="47.06799" lon="-0.81483">
        <ele>113.57</ele>
        <time>2011-09-15T14:49:55Z</time>
      </trkpt>
      <trkpt lat="47.0679" lon="-0.81478">
        <ele>113.57</ele>
        <time>2011-09-15T14:50:02Z</time>
      </trkpt>
      <trkpt lat="47.06782" lon="-0.81471">
        <ele>113.57</ele>
        <time>2011-09-15T14:50:09Z</time>
      </trkpt>
      <trkpt lat="47.06774" lon="-0.81462">
        <ele>114.05</ele>
        <time>2011-09-15T14:50:16Z</time>
      </trkpt>
      <trkpt lat="47.06764" lon="-0.81458">
        <ele>114.53</ele>
        <time>2011-09-15T14:50:24Z</time>
      </trkpt>
      <trkpt lat="47.06756" lon="-0.8145">
        <ele>114.53</ele>
        <time>2011-09-15T14:50:31Z</time>
      </trkpt>
      <trkpt lat="47.06747" lon="-0.81441">
        <ele>115.01</ele>
        <time>2011-09-15T14:50:39Z</time>
      </trkpt>
      <trkpt lat="47.06738" lon="-0.81432">
        <ele>115.5</ele>
        <time>2011-09-15T14:50:47Z</time>
      </trkpt>
      <trkpt lat="47.06729" lon="-0.81425">
        <ele>115.5</ele>
        <time>2011-09-15T14:50:55Z</time>
      </trkpt>
      <trkpt lat="47.0672" lon="-0.81418">
        <ele>116.46</ele>
        <time>2011-09-15T14:51:04Z</time>
      </trkpt>
      <trkpt lat="47.06711" lon="-0.81411">
        <ele>116.46</ele>
        <time>2011-09-15T14:51:12Z</time>
      </trkpt>
      <trkpt lat="47.06702" lon="-0.81403">
        <ele>115.98</ele>
        <time>2011-09-15T14:51:19Z</time>
      </trkpt>
    </trkseg>
  </trk>
</gpx>